[[{"header":{"parameterUnit":"m.s-1","parameterCategory":1,"la1":30.6,"la2":29.2853,"lo1":-89.7004,"lo2":-87.6739,"dy":0.0162,"dx":0.0183,"nx":112,"ny":82,"refTime":"2023-05-27T12:00:00:Z","depth":0,"parameterNumber":2,"parameterNumberName":"U-component_of_WINDS"},"data":[0.0,0.0,0.0,0.0,0.0,0.0,0.0,0.0,0.0,0.0,0.0,0.0,0.0,0.0,0.0,0.0,0.0,0.0,0.0,0.0,0.0,0.0,0.0,0.0,0.0,0.0,0.0,0.0,0.0,0.0,0.0,0.0,0.0,0.0,0.0,0.0,0.0,0.0,0.0,0.0,0.0,0.0,0.0,0.0,0.0,0.0,0.0,0.0,0.0,0.0,0.0,0.0,0.0,0.0,0.0,0.0,0.0,0.0,0.0,0.0,0.0,0.0,0.0,0.0,0.0,0.0,0.0,0.0,0.0,0.0,0.0,0.0,0.0,0.0,0.0,0.0,0.0,0.0,0.0,0.0,0.0,0.0,0.0,0.0,0.0,0.0,0.0,0.0,0.0,0.0,-0.0905,-0.0929,-0.1079,-0.1176,-0.1176,-0.1126,-0.1075,-0.0997,0.0,0.0,0.0,0.0,0.0,0.0,0.0,0.0,0.0,0.0,0.0,0.0,0.0,0.0,0.0,0.0,0.0,0.0,0.0,0.0,0.0,0.0,0.0,0.0,0.0,0.0,0.0,0.0,0.0,0.0,0.0,0.0,0.0,0.0,0.0,0.0,0.0,0.0,0.0,0.0,0.0,0.0,0.0,0.0,0.0,0.0,0.0,0.0,0.0,0.0,0.0,0.0,0.0,0.0,0.0,0.0,0.0,0.0,0.0,0.0,0.0,0.0,0.0,0.0,0.0,0.0,0.0,0.0,0.0,0.0,0.0,0.0,0.0,0.0,0.0,0.0,0.0,0.0,0.0,0.0,0.0,0.0,0.0,0.0,0.0,0.0,0.0,0.0,0.0,0.0,0.0,0.0,0.0,0.0,0.0,0.0,0.0,0.0,0.0,0.0,0.0,0.0,0.0,0.0,-0.0936,-0.1063,-0.1335,-0.153,-0.153,-0.126,-0.1182,-0.1399,0.0,0.0,0.0,0.0,0.0,0.0,0.0,0.0,0.0,0.0,0.0,0.0,0.0,0.0,0.0,0.0,0.0,0.0,0.0,0.0,0.0,0.0,0.0,0.0,0.0,0.0,0.0,0.0,0.0,0.0,0.0,0.0,0.0,0.0,0.0,0.0,0.0,0.0,0.0,0.0,0.0,0.0,0.0,0.0,0.0,0.0,0.0,0.0,0.0,0.0,0.0,0.0,0.0,0.0,0.0,0.0,0.0,0.0,0.0,0.0,0.0,0.0,0.0,0.0,0.0,0.0,0.0,0.0,0.0,0.0,0.0,0.0,0.0,0.0,0.0,0.0,0.0,0.0,0.0,0.0,0.0,0.0,0.0,0.0,0.0,0.0,0.0,0.0,0.0,0.0,0.0,0.0,0.0,0.0,0.0,0.0,0.0,0.0,0.0,0.0,0.0,0.0,0.0,-0.1048,-0.1057,-0.1335,-0.1344,-0.1328,-0.1328,-0.1193,-0.1118,-0.1171,-0.1002,0.0,0.0,0.0,0.0,0.0,0.0,0.0,0.0,0.0,0.0,0.0,0.0,0.0,0.0,0.0,0.0,0.0,0.0,0.0,0.0,0.0,0.0,0.0,0.0,0.0,0.0,0.0,0.0,0.0,0.0,0.0,0.0,0.0,0.0,0.0,0.0,0.0,0.0,0.0,0.0,0.0,0.0,0.0,0.0,0.0,0.0,0.0,0.0,0.0,0.0,0.0,0.0,0.0,0.0,0.0,0.0,0.0,0.0,0.0,0.0,0.0,0.0,0.0,0.0,0.0,0.0,0.0,0.0,0.0,0.0,0.0,0.0,0.0,0.0,0.0,0.0,0.0,0.0,0.0,0.0,0.0,0.0,0.0,0.0,0.0,0.0,0.0,0.0,0.0,0.0,0.0,0.0,0.0,0.0,0.0,0.0,0.0,0.0,0.0,0.0,0.0,0.0,-0.1371,-0.1363,-0.1573,-0.1463,-0.1328,-0.1227,-0.1143,-0.1089,-0.1047,-0.0968,0.0,0.0,0.0,0.0,0.0,0.0,0.0,0.0,0.0,0.0,0.0,0.0,0.0,0.0,0.0,0.0,0.0,0.0,0.0,0.0,0.0,0.0,0.0,0.0,0.0,0.0,0.0,0.0,0.0,0.0,0.0,0.0,0.0,0.0,0.0,0.0,0.0,0.0,0.0,0.0,0.0,0.0,0.0,0.0,0.0,0.0,0.0,0.0,0.0,0.0,0.0,0.0,0.0,0.0,0.0,0.0,0.0,0.0,0.0,0.0,0.0,0.0,0.0,0.0,0.0,0.0,0.0,0.0,0.0,0.0,0.0,0.0,0.0,0.0,0.0,0.0,0.0,0.0,0.0,0.0,0.0,0.0,0.0,0.0,0.0,0.0,0.0,0.0,0.0,0.0,0.0,0.0,0.0,0.0,0.0,0.0,0.0,0.0,0.0,0.0,0.0,0.0,-0.1857,-0.1977,-0.1631,-0.1918,-0.1968,-0.1597,-0.1277,-0.1196,-0.1448,-0.1169,0.0,0.0,0.0,0.0,0.0,0.0,0.0,0.0,0.0,0.0,0.0,0.0,0.0,0.0,0.0,0.0,0.0,0.0,0.0,0.0,0.0,0.0,0.0,0.0,0.0,0.0,0.0,0.0,0.0,0.0,0.0,0.0,0.0,0.0,0.0,0.0,0.0,0.0,0.0,0.0,0.0,0.0,0.0,0.0,0.0,0.0,0.0,0.0,0.0,0.0,0.0,0.0,0.0,0.0,0.0,0.0,0.0,0.0,0.0,0.0,0.0,0.0,0.0,0.0,0.0,0.0,0.0,0.0,0.0,0.0,0.0,0.0,0.0,0.0,0.0,0.0,0.0,0.0,0.0,0.0,0.0,0.0,0.0,0.0,0.0,0.0,0.0,0.0,0.0,0.0,0.0,0.0,0.0,0.0,0.0,0.0,0.0,0.0,0.0,0.0,0.0,0.0,-0.2029,-0.2095,-0.1981,-0.1884,-0.1681,-0.1311,-0.1176,-0.1132,-0.1177,0.0,0.0,0.0,0.0,0.0,0.0,0.0,0.0,0.0,0.0,0.0,0.0,0.0,0.0,0.0,0.0,0.0,0.0,0.0,0.0,0.0,0.0,0.0,0.0,0.0,0.0,0.0,0.0,0.0,0.0,0.0,0.0,0.0,0.0,0.0,0.0,0.0,0.0,0.0,0.0,0.0,0.0,0.0,0.0,0.0,0.0,0.0,0.0,0.0,0.0,0.0,0.0,0.0,0.0,0.0,0.0,0.0,0.0,0.0,0.0,0.0,0.0,0.0,0.0,0.0,0.0,0.0,0.0,0.0,0.0,0.0,0.0,0.0,0.0,0.0,0.0,0.0,0.0,0.0,0.0,0.0,0.0,0.0,0.0,0.0,0.0,0.0,0.0,0.0,0.0,0.0,0.0,0.0,0.0,0.0,0.0,0.0,0.0,0.0,0.0,0.0,0.0,-0.2038,-0.2216,-0.2272,-0.2199,-0.1951,-0.1597,-0.1143,-0.1092,-0.1067,-0.1008,0.0,0.0,0.0,0.0,0.0,0.0,0.0,0.0,0.0,0.0,0.0,0.0,0.0,0.0,0.0,0.0,0.0,0.0,0.0,0.0,0.0,0.0,0.0,0.0,0.0,0.0,0.0,0.0,0.0,0.0,0.0,0.0,0.0,0.0,0.0,0.0,0.0,0.0,0.0,0.0,0.0,0.0,0.0,0.0,0.0,0.0,0.0,0.0,0.0,0.0,0.0,0.0,0.0,0.0,0.0,0.0,0.0,0.0,0.0,0.0,0.0,0.0,0.0,0.0,0.0,0.0,0.0,0.0,0.0,0.0,0.0,0.0,0.0,0.0,0.0,0.0,0.0,0.0,0.0,0.0,0.0,0.0,0.0,0.0,0.0,0.0,0.0,0.0,0.0,0.0,0.0,0.0,0.0,0.0,0.0,0.0,0.0,0.0,0.0,0.0,0.0,0.0,-0.205,-0.2449,-0.2571,-0.2238,-0.2204,-0.1901,-0.116,-0.1109,-0.1067,0.0,0.0,0.0,0.0,0.0,0.0,0.0,0.0,0.0,0.0,0.0,0.0,0.0,0.0,0.0,0.0,0.0,0.0,0.0,0.0,0.0,0.0,0.0,0.0,0.0,0.0,0.0,0.0,0.0,0.0,0.0,0.0,0.0,0.0,0.0,0.0,0.0,0.0,0.0,0.0,0.0,0.0,0.0,0.0,0.0,0.0,0.0,0.0,0.0,0.0,0.0,0.0,0.0,0.0,0.0,0.0,0.0,0.0,0.0,0.0,0.0,0.0,0.0,0.0,0.0,0.0,0.0,0.0,0.0,0.0,0.0,0.0,0.0,0.0,0.0,0.0,0.0,0.0,0.0,0.0,0.0,0.0,0.0,0.0,0.0,0.0,0.0,0.0,0.0,0.0,0.0,0.0,0.0,0.0,0.0,0.0,0.0,0.0,0.0,0.0,0.0,0.0,0.0,-0.208,-0.2661,-0.2922,-0.2587,-0.2554,-0.2252,-0.1513,-0.1446,-0.133,-0.1023,0.0,0.0,0.0,0.0,0.0,0.0,0.0,0.0,0.0,0.0,0.0,0.0,0.0,0.0,0.0,0.0,0.0,0.0,0.0,0.0,0.0,0.0,0.0,0.0,0.0,0.0,0.0,0.0,0.0,0.0,0.0,0.0,0.0,0.0,0.0,0.0,0.0,0.0,0.0,0.0,0.0,0.0,0.0,0.0,0.0,0.0,0.0,0.0,0.0,0.0,0.0,0.0,0.0,0.0,0.0,0.0,0.0,0.0,0.0,0.0,0.0,0.0,0.0,0.0,0.0,0.0,0.0,0.0,0.0,0.0,0.0,0.0,0.0,0.0,0.0,0.0,0.0,0.0,0.0,0.0,0.0,0.0,0.0,0.0,0.0,0.0,0.0,0.0,0.0,0.0,0.0,0.0,0.0,0.0,0.0,0.0,0.0,0.0,0.0,0.0,0.0,0.0,-0.2135,-0.2835,-0.3195,-0.2847,-0.2811,-0.2569,-0.1979,-0.1927,-0.1731,-0.13,0.0,0.0,0.0,0.0,0.0,0.0,0.0,0.0,0.0,0.0,0.0,0.0,0.0,0.0,0.0,0.0,0.0,0.0,0.0,0.0,0.0,0.0,0.0,0.0,0.0,0.0,0.0,0.0,0.0,0.0,0.0,0.0,0.0,0.0,0.0,0.0,0.0,0.0,0.0,0.0,0.0,0.0,0.0,0.0,0.0,0.0,0.0,0.0,0.0,0.0,0.0,0.0,0.0,0.0,0.0,0.0,0.0,0.0,0.0,0.0,0.0,0.0,0.0,0.0,0.0,0.0,0.0,0.0,0.0,0.0,0.0,0.0,0.0,0.0,0.0,0.0,0.0,0.0,0.0,0.0,0.0,0.0,0.0,0.0,0.0,0.0,0.0,0.0,0.0,0.0,0.0,0.0,0.0,0.0,0.0,0.0,0.0,0.0,0.0,0.0,0.0,0.0,-0.2193,-0.2967,-0.339,-0.3078,-0.3041,-0.2894,-0.2493,-0.2419,-0.2192,-0.1728,0.0,0.0,0.0,0.0,0.0,0.0,0.0,0.0,0.0,0.0,0.0,0.0,0.0,0.0,0.0,0.0,0.0,0.0,0.0,0.0,0.0,0.0,0.0,0.0,0.0,0.0,0.0,0.0,0.0,0.0,0.0,0.0,0.0,0.0,0.0,0.0,0.0,0.0,0.0,0.0,0.0,0.0,0.0,0.0,0.0,0.0,0.0,0.0,0.0,0.0,0.0,0.0,0.0,0.0,0.0,0.0,0.0,0.0,0.0,0.0,-0.6451,-0.6254,0.0,0.0,0.0,0.0,0.0,0.0,0.0,0.0,0.0,0.0,0.0,0.0,0.0,0.0,0.0,0.0,0.0,0.0,0.0,0.0,0.0,0.0,0.0,0.0,0.0,0.0,0.0,0.0,0.0,0.0,0.0,0.0,0.0,0.0,0.0,0.0,0.0,0.0,0.0,0.0,-0.2193,-0.2967,-0.3481,-0.3408,-0.339,-0.3243,-0.2894,-0.253,-0.2137,-0.1723,-0.1399,0.0,0.0,0.0,0.0,0.0,0.0,0.0,0.0,0.0,0.0,0.0,0.0,0.0,0.0,0.0,0.0,0.0,0.0,0.0,0.0,0.0,0.0,0.0,0.0,0.0,0.0,0.0,0.0,0.0,0.0,0.0,0.0,0.0,0.0,0.0,0.0,0.0,0.0,0.0,0.0,0.0,0.0,0.0,0.0,0.0,0.0,0.0,0.0,0.0,0.0,0.0,0.0,0.0,0.0,0.0,0.0,0.0,0.0,0.0,-0.6875,-0.6781,0.0,0.0,0.0,0.0,0.0,0.0,0.0,0.0,0.0,0.0,0.0,0.0,0.0,0.0,0.0,0.0,0.0,0.0,0.0,0.0,0.0,0.0,0.0,0.0,0.0,0.0,0.0,0.0,0.0,0.0,0.0,0.0,0.0,0.0,0.0,0.0,0.0,0.0,0.0,0.0,-0.2514,-0.3189,-0.3645,-0.3645,-0.3645,-0.3569,-0.3398,-0.2944,-0.2522,-0.2113,-0.1673,0.0,0.0,0.0,0.0,0.0,0.0,0.0,0.0,0.0,0.0,0.0,0.0,0.0,0.0,0.0,0.0,0.0,0.0,0.0,0.0,0.0,0.0,0.0,0.0,0.0,0.0,0.0,0.0,0.0,0.0,0.0,0.0,0.0,0.0,0.0,0.0,0.0,0.0,0.0,0.0,0.0,0.0,0.0,0.0,0.0,0.0,0.0,0.0,0.0,0.0,0.0,0.0,0.0,-0.7281,-0.7294,-0.7294,-0.7294,-0.7309,-0.7335,-0.7129,-0.7092,-0.7185,-0.6911,0.0,0.0,0.0,0.0,0.0,0.0,0.0,0.0,0.0,0.0,0.0,0.0,0.0,0.0,0.0,0.0,0.0,0.0,0.0,0.0,0.0,0.0,-0.3065,-0.2728,-0.2906,-0.3029,-0.2638,0.0,0.0,0.0,0.0,0.0,0.0,0.0,0.0,0.0,0.0,0.0,-0.2881,-0.3437,-0.3802,-0.3802,-0.3802,-0.3802,-0.3802,-0.3374,-0.2937,-0.2534,-0.2073,-0.1603,0.0,0.0,0.0,0.0,0.0,0.0,0.0,0.0,0.0,0.0,0.0,0.0,0.0,0.0,0.0,0.0,0.0,0.0,0.0,0.0,0.0,0.0,0.0,0.0,0.0,0.0,0.0,0.0,0.0,0.0,0.0,0.0,-0.6675,-0.6866,0.0,0.0,0.0,0.0,0.0,0.0,0.0,0.0,0.0,0.0,0.0,0.0,0.0,-0.8021,-0.8049,-0.816,-0.8212,-0.8217,-0.8389,-0.8468,-0.8468,-0.8468,-0.8301,-0.7948,-0.7419,0.0,-0.7202,-0.7157,0.0,0.0,0.0,0.0,0.0,0.0,0.0,0.0,0.0,0.0,0.0,0.0,0.0,0.0,0.0,0.0,0.0,0.0,0.0,0.0,0.0,0.0,-0.3685,-0.3635,-0.3662,-0.3683,-0.3621,-0.2911,-0.2284,-0.2217,-0.2214,-0.2175,0.0,0.0,0.0,0.0,0.0,0.0,-0.2979,-0.3455,-0.3802,-0.3802,-0.3802,-0.3802,-0.3802,-0.3374,-0.292,-0.2518,-0.212,-0.1675,-0.1199,-0.1171,0.0,0.0,0.0,0.0,0.0,0.0,0.0,0.0,0.0,0.0,0.0,0.0,0.0,0.0,0.0,0.0,0.0,0.0,0.0,0.0,0.0,0.0,0.0,0.0,0.0,0.0,0.0,0.0,0.0,-0.6545,-0.6732,-0.6823,-0.6754,-0.6647,0.0,0.0,0.0,0.0,0.0,0.0,0.0,0.0,0.0,-0.8309,-0.8318,-0.8371,-0.8485,-0.8543,-0.8571,-0.8571,-0.8661,-0.8703,-0.8703,-0.8703,-0.8608,-0.8422,-0.8165,-0.804,-0.7942,-0.6697,-0.6302,-0.6399,0.0,0.0,0.0,0.0,-0.4359,-0.3911,-0.3978,-0.3811,-0.3546,-0.3524,0.0,0.0,0.0,0.0,0.0,0.0,0.0,-0.3478,-0.353,-0.3628,-0.3699,-0.3789,-0.3802,-0.3802,-0.3802,-0.3451,-0.3063,-0.2744,-0.2628,-0.25,-0.2251,-0.224,0.0,0.0,0.0,-0.3053,-0.3298,-0.3607,-0.3802,-0.3802,-0.3802,-0.3802,-0.3802,-0.3157,-0.2687,-0.2511,-0.1903,-0.1478,-0.1257,-0.1222,-0.1177,0.0,0.0,0.0,0.0,0.0,0.0,0.0,0.0,0.0,0.0,0.0,0.0,0.0,0.0,0.0,0.0,0.0,0.0,0.0,0.0,0.0,0.0,0.0,0.0,0.0,0.0,0.0,0.0,-0.6761,-0.6937,-0.68,-0.6994,-0.7017,0.0,0.0,0.0,0.0,0.0,0.0,-0.8392,-0.8415,-0.8512,-0.8768,-0.8773,-0.8851,-0.9003,-0.9003,-0.9003,-0.9003,-0.9003,-0.9003,-0.9003,-0.9003,-0.8951,-0.8837,-0.8699,-0.8661,-0.8575,-0.6919,-0.6488,-0.6733,-0.5752,-0.5324,-0.5243,-0.4862,-0.4455,-0.4141,-0.4213,-0.3983,-0.364,-0.3615,-0.3593,-0.3566,-0.3544,0.0,0.0,0.0,0.0,-0.3552,-0.3619,-0.3642,-0.3679,-0.3766,-0.3802,-0.3802,-0.3802,-0.3767,-0.3612,-0.3265,-0.3132,-0.2951,-0.2621,-0.2602,0.0,-0.2963,-0.3085,-0.3283,-0.3612,-0.3741,-0.3802,-0.3802,-0.3802,-0.3802,-0.3802,-0.3196,-0.2785,-0.2668,-0.2002,-0.157,-0.1452,-0.1308,-0.122,-0.1203,0.0,0.0,0.0,0.0,0.0,0.0,0.0,0.0,0.0,0.0,0.0,0.0,0.0,0.0,0.0,0.0,0.0,0.0,0.0,0.0,0.0,0.0,0.0,0.0,0.0,0.0,0.0,0.0,0.0,-0.7049,-0.778,0.0,0.0,0.0,0.0,-0.8159,-0.8186,-0.842,-0.8934,-0.8963,-0.923,-0.9801,-0.9825,-0.983,-0.9841,-0.9846,-0.9846,-0.9846,-0.9846,-0.9846,-0.9846,-0.9846,-0.9638,-0.9246,-0.8675,-0.8518,-0.868,-0.8575,-0.844,-0.8139,-0.6641,-0.5933,-0.5587,-0.4198,-0.3657,-0.3651,-0.3782,-0.3815,-0.3762,-0.3635,-0.3552,-0.3522,-0.3579,-0.3546,0.0,0.0,-0.3601,-0.3621,-0.3751,-0.3795,-0.3798,-0.3802,-0.3802,-0.3802,-0.3802,-0.3651,-0.356,-0.3718,-0.3762,-0.3707,-0.3559,0.0,-0.3549,-0.3549,-0.3557,-0.3614,-0.3764,-0.38,-0.3802,-0.3802,-0.3802,-0.3802,-0.3802,-0.3763,-0.3548,-0.3102,-0.2668,-0.2275,-0.1882,-0.1508,-0.1264,-0.1204,-0.12,0.0,0.0,0.0,0.0,0.0,0.0,0.0,0.0,0.0,0.0,0.0,0.0,0.0,0.0,0.0,0.0,0.0,0.0,0.0,0.0,0.0,0.0,0.0,0.0,0.0,0.0,0.0,0.0,-0.7806,-0.8147,0.0,-0.8019,-0.8423,-0.8717,-0.8717,-0.9066,-0.9369,-0.9564,-0.9588,-0.9681,-0.9898,-0.9903,-0.9903,-0.9903,-0.9903,-0.9903,-0.9903,-0.9368,-0.9122,-0.9103,-0.8594,-0.8561,-0.8899,-0.868,-0.8927,-0.9463,-0.9463,-0.8907,-0.7912,-0.6931,-0.6197,-0.5613,-0.5073,-0.4555,-0.4123,-0.4178,-0.4094,-0.3995,-0.3941,-0.4,-0.4054,-0.3957,-0.4,-0.4054,-0.3957,-0.4024,-0.4125,-0.4181,-0.419,-0.4153,-0.4019,-0.3999,-0.396,-0.3821,-0.3752,-0.3708,-0.3789,-0.369,-0.3601,-0.3603,-0.3675,-0.3695,-0.3615,-0.3677,-0.3745,-0.3798,-0.3802,-0.3802,-0.3802,-0.3802,-0.3802,-0.3802,-0.353,-0.3276,-0.3102,-0.247,-0.2058,-0.1901,-0.1511,-0.1286,-0.1264,-0.1263,-0.1194,0.0,0.0,0.0,0.0,0.0,0.0,0.0,0.0,0.0,0.0,0.0,0.0,0.0,0.0,0.0,0.0,0.0,0.0,0.0,0.0,0.0,0.0,0.0,0.0,0.0,-0.8179,-0.8503,-0.8237,-0.8626,-0.8817,-0.8633,-0.9111,-0.9466,-0.9539,-0.9919,-1.0139,-1.0139,-1.0139,-1.0139,-1.0139,-1.0139,-1.0139,-1.0139,-1.0139,-1.0139,-1.0125,-0.9281,-0.8868,-0.8833,-0.7984,-0.7882,-0.8399,-0.8399,-0.8692,-0.9199,-0.9199,-0.8653,-0.778,-0.747,-0.6673,-0.5696,-0.5622,-0.5099,-0.4404,-0.4404,-0.4309,-0.4194,-0.4194,-0.4289,-0.4384,-0.425,-0.4289,-0.4365,-0.4231,-0.4289,-0.4404,-0.4404,-0.4404,-0.4365,-0.4233,-0.4194,-0.4175,-0.4036,-0.3958,-0.3901,-0.3901,-0.3745,-0.3605,-0.3663,-0.3743,-0.3751,-0.3621,-0.3723,-0.3791,-0.3741,-0.3764,-0.3802,-0.3802,-0.3802,-0.3802,-0.3802,-0.3368,-0.3172,-0.3333,-0.2568,-0.2098,-0.2097,-0.1701,-0.1399,-0.1265,-0.1265,-0.1192,-0.1034,0.0,0.0,0.0,0.0,0.0,0.0,0.0,0.0,0.0,0.0,0.0,0.0,0.0,0.0,0.0,0.0,0.0,0.0,0.0,0.0,0.0,0.0,0.0,-0.8436,-0.8709,-0.886,-0.8342,-0.9258,-0.9787,-0.9459,-0.9965,-1.0396,-1.0596,-1.0597,-1.0597,-1.0597,-1.0597,-1.0597,-1.0597,-1.0597,-1.0597,-1.0597,-1.0597,-1.0597,-1.0592,-0.9648,-0.9195,-0.9134,-0.8189,-0.7757,-0.7757,-0.7757,-0.7778,-0.7798,-0.7798,-0.7778,-0.7808,-0.8223,-0.738,-0.5899,-0.5705,-0.5104,-0.4423,-0.4404,-0.4404,-0.4423,-0.4404,-0.4423,-0.4423,-0.4404,-0.4423,-0.4423,-0.4404,-0.4423,-0.4423,-0.4423,-0.4423,-0.4423,-0.4404,-0.4404,-0.4404,-0.4404,-0.425,-0.4118,-0.4118,-0.396,-0.3821,-0.3802,-0.3802,-0.3751,-0.3625,-0.3725,0.0,-0.3623,-0.3727,-0.3802,-0.3798,-0.3798,-0.3798,-0.3793,-0.3371,-0.3301,-0.3768,-0.2984,-0.2501,-0.2501,-0.2041,-0.1607,-0.1206,-0.1204,-0.1107,-0.0909,0.0,0.0,0.0,0.0,0.0,0.0,0.0,0.0,0.0,0.0,0.0,0.0,0.0,0.0,0.0,0.0,0.0,0.0,0.0,0.0,0.0,-0.9362,-0.9467,-0.9369,-0.9822,-1.0099,-0.9957,-1.022,-1.0379,-1.028,-1.0418,-1.0548,-1.0612,-1.0597,-1.0597,-1.0597,-1.0597,-1.0597,-1.0597,-1.0597,-1.0597,-1.0597,-1.0597,-1.0597,-1.0592,-0.974,-0.8978,-0.8303,-0.7465,-0.7015,-0.6929,-0.6929,-0.7259,-0.7798,-0.7798,-0.7448,-0.7001,-0.7687,-0.7329,-0.638,-0.6245,-0.5615,-0.4818,-0.4659,-0.472,-0.4818,-0.4659,-0.472,-0.4798,-0.4659,-0.472,-0.4798,-0.4659,-0.472,-0.484,-0.484,-0.484,-0.4798,-0.4659,-0.4621,-0.4582,-0.4423,-0.4365,-0.4328,-0.4328,-0.4268,-0.4151,-0.3841,-0.3802,-0.3793,-0.3749,-0.3766,-0.3793,-0.3747,-0.3785,-0.3758,-0.3671,-0.3665,-0.3638,-0.3577,-0.3458,-0.3454,-0.3571,-0.3086,-0.2657,-0.2359,-0.1943,-0.1588,-0.127,-0.1226,-0.1107,0.0,0.0,0.0,0.0,0.0,0.0,0.0,0.0,0.0,0.0,0.0,0.0,0.0,0.0,0.0,0.0,0.0,0.0,0.0,0.0,0.0,0.0,-1.0039,-1.0193,-1.0551,-1.0594,-1.0597,-1.0597,-1.0597,-1.063,-1.0752,-1.0763,-1.0847,-1.1053,-1.1064,-1.11,-1.1183,-1.1183,-1.1183,-1.1183,-1.1183,-1.1183,-1.1183,-1.1183,-1.1183,-1.1183,-1.0231,-0.9275,-0.835,-0.736,-0.6665,-0.6218,-0.6218,-0.6495,-0.6921,-0.6921,-0.6644,-0.6333,0.0,0.0,0.0,0.0,-0.5644,-0.5145,-0.5042,-0.5062,-0.5145,-0.5022,-0.5062,-0.5134,-0.4961,-0.4987,-0.5058,-0.487,-0.4918,-0.4998,-0.4998,-0.4998,-0.4976,-0.4859,-0.4818,-0.4798,-0.4679,-0.4582,-0.4521,-0.4521,-0.4462,0.0,-0.4092,-0.3977,-0.3869,-0.3731,-0.3758,-0.3789,-0.3729,-0.3758,-0.3762,-0.3689,-0.3683,-0.3665,-0.3634,-0.3447,0.0,0.0,0.0,-0.2785,-0.2364,-0.1907,0.0,0.0,0.0,-0.112,-0.1022,-0.1029,0.0,0.0,-0.0685,-0.0461,0.0,0.0,0.0,0.0,0.0,0.0,0.0,0.0,0.0,0.0,0.0,0.0,0.0,0.0,0.0,0.0,-1.0867,-1.144,-1.1677,-1.1155,-1.0734,-1.0698,-1.0719,-1.082,-1.1072,-1.1109,-1.1286,-1.1704,-1.1721,-1.1807,-1.2,-1.2,0.0,0.0,0.0,-1.2,-1.2,-1.2,-1.2,-1.2,-1.0971,-1.0007,-0.9061,-0.7991,-0.6918,-0.5908,-0.593,-0.5844,-0.571,-0.5733,-0.5733,-0.5822,-0.7077,-0.6687,-0.5411,-0.5411,-0.54,-0.5389,-0.5389,0.0,0.0,-0.5389,-0.5389,-0.537,-0.5261,-0.5228,-0.5206,-0.5086,-0.5028,-0.5017,-0.5017,-0.5006,-0.4998,-0.4998,-0.4998,-0.4998,-0.4998,-0.4859,-0.474,-0.474,-0.4582,-0.4462,-0.4443,-0.427,-0.4029,-0.3711,-0.375,-0.3792,-0.3633,-0.3731,-0.3798,-0.3787,-0.3785,0.0,-0.3773,-0.3375,-0.3328,-0.3747,-0.3336,-0.2883,-0.2422,-0.1898,-0.1469,-0.113,-0.111,-0.1148,-0.1193,-0.1209,-0.1169,-0.1111,-0.0812,-0.037,0.0,0.0,0.0,0.0,0.0,0.0,0.0,0.0,0.0,0.0,0.0,0.0,0.0,0.0,0.0,-1.105,-1.1384,-1.1634,-1.1699,-1.1723,-1.1597,-1.1214,-1.1363,-1.1513,-1.1557,-1.1712,-1.1836,-1.193,-1.1936,-1.1957,-1.2,-1.2,-1.2,-1.2,-1.2,-1.2,-1.2,-1.2,-1.2,-1.2,-1.178,0.0,-1.0265,-1.0026,-0.8921,-0.7158,-0.7331,-0.6741,-0.571,-0.593,-0.5886,-0.5727,-0.6009,-0.586,-0.5472,-0.5472,-0.5453,-0.5389,-0.5389,-0.5389,-0.5389,-0.5389,-0.5389,-0.5387,-0.5362,-0.5354,0.0,-0.5327,-0.525,-0.5154,-0.5154,-0.5086,-0.4998,-0.4998,-0.4998,-0.4998,-0.4998,-0.4976,-0.4937,-0.4937,-0.4918,-0.484,-0.4659,-0.4484,-0.4263,-0.4033,-0.4027,-0.3973,-0.3777,-0.3791,-0.3753,-0.3642,-0.3633,-0.3626,-0.3556,-0.3481,-0.3459,-0.355,-0.322,-0.284,-0.242,-0.1987,-0.1609,-0.126,-0.1216,-0.1194,-0.1193,-0.1205,-0.0973,-0.0569,-0.091,-0.0738,0.0,0.0,0.0,0.0,0.0,0.0,0.0,0.0,0.0,0.0,0.0,-1.0385,-1.048,0.0,-1.1522,-1.1631,-1.1765,-1.1893,-1.2032,-1.2016,-1.1909,-1.1672,-1.1764,-1.185,-1.185,-1.1936,-1.2059,-1.2182,-1.2203,-1.2246,-1.2332,-1.2353,-1.2353,-1.2353,-1.2353,-1.2353,-1.2353,-1.1876,-1.1639,-1.1639,-1.1073,-1.0301,-0.9418,-0.9744,-0.8812,-0.7003,-0.8046,-0.7566,-0.606,-0.6083,-0.6019,-0.5886,-0.5755,-0.565,-0.5599,-0.5599,-0.5583,-0.5551,-0.5551,-0.5551,-0.5551,-0.5551,-0.5551,-0.554,-0.5477,-0.5461,-0.5447,-0.5406,-0.5346,-0.5299,-0.5299,-0.5209,-0.5102,-0.5102,-0.5059,-0.4998,-0.4998,-0.4998,-0.4998,-0.4998,-0.4998,-0.4976,-0.4859,-0.4759,-0.4601,-0.4289,-0.4155,-0.406,-0.396,-0.3862,-0.3764,-0.3699,-0.3695,-0.3677,-0.3655,-0.3651,-0.3651,-0.3651,-0.3438,-0.3135,-0.2759,-0.2299,-0.1887,-0.1553,-0.1328,-0.1196,-0.1193,-0.1196,-0.0916,-0.036,-0.0633,-0.0265,0.0,0.0,0.0,0.0,0.0,0.0,0.0,-1.0565,-1.0677,-1.1055,-1.1202,-1.1305,-1.1418,-1.1661,-1.1897,-1.2046,-1.208,-1.2139,-1.2369,-1.2246,-1.2145,-1.2145,-1.2102,-1.208,-1.208,-1.2102,-1.2225,-1.2448,-1.247,-1.2534,-1.2683,-1.2705,-1.2705,-1.2705,-1.2705,-1.2705,-1.2705,-1.195,-1.1478,-1.1278,-1.0366,-0.9449,-0.8549,-0.91,-0.84,-0.6823,-0.8108,-0.7822,-0.6454,-0.6257,-0.6149,-0.6127,-0.593,-0.5841,-0.5819,-0.5733,-0.5688,-0.5688,-0.5688,-0.5688,-0.5688,-0.5688,-0.5688,-0.5672,-0.5572,-0.5543,-0.5524,-0.5466,-0.5444,-0.5425,-0.5425,-0.5335,-0.5242,-0.5242,-0.5151,-0.5086,-0.5086,-0.5086,-0.5086,-0.5086,-0.5086,-0.5086,-0.5086,-0.5047,-0.4903,-0.4523,-0.4311,-0.4196,-0.4155,-0.3979,-0.3862,-0.3862,-0.3821,-0.3802,-0.3802,-0.3802,-0.3802,-0.3802,-0.3693,-0.3406,-0.2895,-0.2447,-0.1978,-0.1461,-0.1086,-0.089,-0.089,-0.0847,-0.0532,0.0058,0.0058,0.0552,-1.0032,-1.0102,-1.0374,-1.0532,-1.0741,-1.1039,0.0,-1.1546,-1.156,-1.1608,-1.1946,-1.2186,-1.197,-1.2136,-1.2334,-1.2342,-1.2363,-1.2369,-1.2406,-1.2534,-1.2619,-1.2619,-1.2454,-1.2363,-1.2363,-1.2513,-1.2619,-1.2662,-1.2662,-1.2683,-1.2705,-1.2705,-1.2705,-1.2705,-1.2705,-1.2705,-1.2705,-1.2598,-1.2122,-1.1305,-1.1171,-1.0626,-0.9705,-0.9792,-0.9161,-0.794,-0.7085,-0.6741,-0.6726,-0.6476,-0.6365,-0.6365,-0.6343,-0.6321,-0.6276,-0.5863,-0.5688,-0.5688,-0.5688,-0.5688,-0.5688,-0.5688,-0.5688,-0.5686,-0.5672,-0.5667,-0.5664,-0.5675,-0.557,-0.5486,-0.5486,-0.5439,-0.537,-0.537,-0.5359,-0.5351,-0.5351,-0.5351,-0.5351,-0.5351,-0.5351,-0.5351,-0.5351,-0.5261,-0.5052,-0.4714,-0.4643,-0.4562,-0.4384,-0.4192,-0.406,-0.406,-0.3901,-0.3802,-0.3802,-0.3802,-0.3802,-0.3802,-0.3793,-0.3258,-0.2089,-0.1986,-0.14,-0.0234,0.0076,0.0227,0.0227,0.0407,0.077,0.1305,0.1305,0.1407,-1.0557,-1.0619,-1.0752,-1.0962,-1.1208,-1.1428,-1.1469,-1.1478,-1.1535,-1.1815,-1.2037,-1.2182,-1.2225,-1.2412,-1.2534,-1.2427,-1.2491,-1.2577,-1.2577,-1.2641,-1.2705,-1.2705,-1.2641,-1.2577,-1.2577,-1.2641,-1.2705,-1.2705,-1.2705,-1.2705,-1.2705,-1.2705,-1.2705,-1.2705,-1.2705,-1.2705,-1.2705,-1.2165,-1.1693,-1.1278,-1.0193,-0.9475,-0.9082,-0.9082,-0.9122,-0.9096,-0.7504,-0.7183,-0.7735,-0.6944,-0.6634,-0.6612,-0.6454,-0.6406,-0.6365,-0.6038,-0.593,-0.5908,-0.5755,-0.5688,-0.5688,-0.5688,-0.5688,-0.5688,-0.5688,-0.5688,-0.5688,-0.5688,-0.5653,-0.5613,-0.5613,-0.5545,-0.5453,-0.5453,-0.542,-0.5389,-0.5389,-0.5389,-0.5389,-0.5389,-0.5389,-0.5389,-0.5389,-0.5348,-0.5276,-0.5126,-0.4882,-0.4659,-0.4582,-0.4406,-0.4233,-0.4118,-0.4021,-0.3921,-0.3802,-0.3802,-0.3587,-0.3079,-0.3039,-0.2586,-0.1587,-0.1293,-0.0901,-0.0353,0.0,0.0232,0.0348,0.0421,0.0838,0.156,0.156,0.1769,-1.095,-1.0992,-1.1017,-1.1172,-1.1455,-1.1653,-1.1527,-1.1542,-1.1698,-1.204,-1.2145,-1.2246,-1.2363,-1.2555,-1.2641,-1.2513,-1.2598,-1.2705,-1.2705,-1.2705,-1.2705,-1.2705,-1.2705,-1.2705,-1.2705,-1.2705,-1.2705,-1.2705,-1.2705,-1.2705,-1.2705,-1.2705,-1.2705,-1.2705,-1.2705,-1.2705,-1.2705,-1.2036,-1.1564,-1.1278,-0.9932,-0.8999,-0.85,-0.8237,-0.8496,-0.9052,-0.7683,-0.7492,-0.8039,-0.7231,-0.6881,-0.6858,-0.6675,-0.6583,-0.6564,-0.6371,-0.6216,-0.606,-0.5799,-0.5688,-0.5688,-0.5688,-0.5688,-0.5688,-0.5688,-0.5688,-0.5688,-0.5688,-0.5688,-0.5688,-0.5688,-0.5623,-0.5559,-0.5559,-0.5513,-0.549,-0.549,-0.549,-0.549,-0.549,-0.549,-0.549,-0.549,-0.5442,-0.542,-0.542,-0.5121,-0.4879,-0.4848,-0.4638,-0.4387,-0.4118,-0.4099,-0.4019,-0.3821,-0.3802,-0.3431,-0.255,-0.2491,-0.2038,-0.0979,-0.0607,-0.0313,-0.0078,0.0255,0.051,0.0668,0.0766,0.1158,0.1763,0.1822,0.2078,-1.0986,-1.0947,-1.091,-1.0985,-1.1356,-1.1752,-1.1946,-1.2192,-1.2378,-1.2384,-1.2534,-1.2619,-1.2427,-1.2555,-1.2705,-1.2683,-1.2705,-1.2705,-1.2705,-1.2705,-1.2705,-1.2705,-1.2705,-1.2705,-1.2705,-1.2705,-1.2705,-1.2705,-1.2705,-1.2705,-1.2705,-1.2705,-1.2705,-1.2705,-1.2705,-1.2705,-1.2705,-1.2662,-1.2207,-1.1305,-1.1235,-1.0258,-0.8478,-0.7555,-0.7161,-0.7183,-0.7117,-0.7117,-0.7139,-0.7095,-0.7095,-0.7095,-0.7073,-0.7073,-0.7051,-0.6858,-0.6482,-0.606,-0.5799,-0.5688,-0.5688,-0.5688,-0.5688,-0.5688,-0.5688,-0.5688,-0.5688,-0.5688,-0.5688,-0.5688,-0.5688,-0.5686,-0.5683,-0.5683,-0.5702,-0.57,-0.57,-0.57,-0.57,-0.57,-0.57,-0.57,-0.57,-0.558,-0.5502,-0.5502,-0.5439,-0.5337,-0.5197,-0.4903,-0.4545,-0.4138,-0.4099,-0.4019,-0.3821,-0.3802,-0.3431,-0.255,-0.2491,-0.1763,-0.0117,-0.002,0.0372,0.1218,0.1454,0.1552,0.1552,0.1961,0.2156,0.2195,0.2373,0.249,-1.1399,-1.155,-1.169,-1.1874,-1.2155,-1.2347,-1.2283,-1.2347,-1.2406,-1.2406,-1.2312,-1.2257,-1.232,-1.2382,-1.2424,-1.2424,-1.259,-1.2705,-1.2705,-1.2705,-1.2705,-1.2705,-1.2705,-1.2705,-1.2705,-1.2705,-1.2705,-1.2705,-1.2705,-1.2705,-1.2705,-1.2705,-1.2705,-1.2705,-1.2705,-1.2705,-1.2705,-1.2705,-1.2534,-1.2229,-1.1601,-1.0647,-0.9405,-0.8452,-0.8039,-0.7995,-0.7382,-0.7095,-0.7095,-0.7095,-0.7095,-0.7095,-0.7095,-0.7095,-0.7076,-0.6881,-0.6704,-0.6526,-0.6257,-0.6169,-0.6169,-0.6169,-0.6083,-0.5975,-0.5975,-0.5841,-0.5688,-0.5688,-0.5688,-0.5688,-0.5688,-0.5688,-0.5688,-0.5688,-0.5688,-0.5688,-0.5688,-0.5688,-0.5688,-0.5688,-0.5688,-0.5688,-0.5688,-0.5656,-0.5602,-0.5521,-0.5447,-0.5346,-0.5223,-0.5111,-0.4899,-0.4533,-0.4506,-0.437,-0.4021,-0.3999,-0.3351,-0.1803,-0.1705,-0.0941,0.0785,0.0863,0.1001,0.1296,0.1375,0.1474,0.1591,0.1728,0.1865,0.2004,0.2217,0.2294,-1.1906,-1.1968,-1.2046,-1.2198,-1.2347,-1.2433,-1.2406,-1.2406,-1.2427,-1.2491,-1.2284,-1.2147,-1.2271,-1.2292,-1.2292,-1.2292,-1.243,-1.2611,-1.2825,-1.2771,-1.2777,-1.297,-1.2994,-1.2958,-1.284,-1.2828,-1.2792,-1.2711,-1.2705,-1.2705,-1.2705,-1.2705,-1.2705,-1.2705,-1.2705,-1.2705,-1.2705,-1.2705,-1.2705,-1.2683,-1.1757,-1.0977,-1.0361,-0.9432,-0.8824,-0.8456,-0.7863,-0.7401,-0.7095,-0.7095,-0.7095,-0.7095,-0.7095,-0.7095,-0.7076,-0.6944,-0.6903,-0.6858,-0.652,-0.6406,-0.6406,-0.6406,-0.6321,-0.6213,-0.6213,-0.6083,-0.5927,-0.5863,-0.5841,-0.5822,-0.5733,-0.5688,-0.5688,-0.5688,-0.5688,-0.5688,-0.5688,-0.5688,-0.5688,-0.5688,-0.5688,-0.5688,-0.5688,-0.5688,-0.5661,-0.5583,-0.5529,-0.546,-0.5294,-0.5272,-0.5147,-0.4812,-0.4779,-0.4626,-0.4235,-0.3919,-0.3075,-0.1509,-0.1117,-0.0275,0.1237,0.1296,0.1296,0.1296,0.1296,0.1356,0.1493,0.1572,0.167,0.1788,0.2003,0.2138,-1.2405,-1.2229,-1.2043,-1.2044,-1.2037,-1.2102,-1.2363,-1.2427,-1.247,-1.2644,-1.2475,-1.2268,-1.2256,-1.2262,-1.2274,-1.2274,-1.2298,-1.2497,-1.3027,-1.287,-1.29,-1.343,-1.3491,-1.3394,-1.3147,-1.3123,-1.3003,-1.2747,-1.2711,-1.2705,-1.2705,-1.2705,-1.2705,-1.2705,-1.2705,-1.2705,-1.2705,-1.2705,-1.2705,-1.2683,-1.18,-1.137,-1.1348,-1.0404,-0.9492,-0.8632,-0.8544,-0.7995,-0.7161,-0.7117,-0.7095,-0.7095,-0.7095,-0.7095,-0.7095,-0.7095,-0.7095,-0.7029,-0.6583,-0.6428,-0.6428,-0.6428,-0.6432,-0.6432,-0.6432,-0.6406,-0.6365,-0.6171,-0.6105,-0.606,-0.5797,-0.5733,-0.571,-0.571,-0.571,-0.5688,-0.5688,-0.5688,-0.5688,-0.5688,-0.5688,-0.5688,-0.5688,-0.5688,-0.5688,-0.5688,-0.5688,-0.5627,-0.543,-0.54,-0.5271,-0.4953,-0.492,-0.4796,-0.4467,-0.363,-0.2687,-0.1668,-0.0785,0.0177,0.1257,0.1296,0.1296,0.1296,0.1296,0.1296,0.1296,0.1493,0.1591,0.1591,0.1788,0.1983,-1.2623,-1.2571,-1.2514,-1.2522,-1.2519,-1.254,-1.2619,-1.2619,-1.2587,-1.243,-1.2183,-1.1942,-1.1743,-1.187,-1.2002,-1.2002,-1.2349,-1.2729,-1.3051,-1.3039,-1.3117,-1.3455,-1.3491,-1.3467,-1.34,-1.3394,-1.328,-1.3015,-1.2804,-1.2705,-1.2705,-1.2705,-1.2705,-1.2705,-1.2705,-1.2705,-1.2705,-1.2705,-1.2705,-1.2705,-1.247,-1.2336,-1.2314,-1.1365,-1.0799,-1.0501,-0.9109,-0.8368,-0.8083,-0.7382,-0.7095,-0.7095,-0.7095,-0.7095,-0.7095,-0.7095,-0.7095,-0.7073,-0.6962,-0.6918,-0.6918,-0.6918,-0.6811,-0.6704,-0.6704,-0.6567,-0.6384,-0.6343,-0.6321,-0.6299,-0.6235,-0.6105,-0.5997,-0.5997,-0.5841,-0.5688,-0.5688,-0.5688,-0.5688,-0.5688,-0.5688,-0.5688,-0.5688,-0.5688,-0.5688,-0.5688,-0.5688,-0.5656,-0.5502,-0.5483,-0.5416,-0.5297,-0.5284,-0.5185,-0.4948,-0.4039,-0.2955,-0.1747,-0.0812,0.0177,0.1257,0.1296,0.1296,0.1296,0.1296,0.1296,0.1296,0.1355,0.1375,0.1375,0.1591,0.1709,-1.2705,-1.2705,-1.2705,-1.2705,-1.2705,-1.2705,-1.2705,-1.2705,-1.2662,-1.2518,-1.2256,-1.2027,-1.1882,-1.1972,-1.2075,-1.2075,-1.2439,-1.2822,-1.3214,-1.3274,-1.3412,-1.3815,-1.3857,-1.3809,-1.3701,-1.3688,-1.3551,-1.3292,-1.3021,-1.281,-1.2711,-1.2705,-1.2705,-1.2705,-1.2705,-1.2705,-1.2705,-1.2705,-1.2705,-1.2705,-1.2705,-1.2705,-1.2683,-1.2143,-1.1693,-1.1235,-1.0193,-0.9261,-0.8456,-0.7929,-0.747,-0.7095,-0.7095,-0.7095,-0.7095,-0.7095,-0.7095,-0.7095,-0.7095,-0.7095,-0.7095,-0.7095,-0.7032,-0.6925,-0.6925,-0.6833,-0.6697,-0.6612,-0.6567,-0.6545,-0.6432,-0.6321,-0.6213,-0.6127,-0.5997,-0.5841,-0.5733,-0.5688,-0.5688,-0.5688,-0.5688,-0.5688,-0.5688,-0.5688,-0.5688,-0.5688,-0.5688,-0.5664,-0.5597,-0.5586,-0.554,-0.5461,-0.5447,-0.5383,-0.5246,-0.4355,-0.3294,-0.2078,-0.1079,-0.002,0.1078,0.1237,0.129,0.1297,0.1296,0.1296,0.1296,0.1296,0.1296,0.1296,0.1415,0.1513,-1.2705,-1.2705,-1.2705,-1.2705,-1.2705,-1.2705,-1.2705,-1.2705,-1.2693,-1.2656,-1.2454,-1.228,-1.225,-1.2268,-1.2292,-1.2292,-1.2545,-1.294,-1.3418,-1.3521,-1.3749,-1.4238,-1.4298,-1.4208,-1.3978,-1.396,-1.3851,-1.3563,-1.3334,-1.3069,-1.2777,-1.2723,-1.2705,-1.2705,-1.2705,-1.2705,-1.2705,-1.2705,-1.2705,-1.2705,-1.2705,-1.2705,-1.2705,-1.2705,-1.225,-1.1478,-1.1343,-1.0388,-0.8868,-0.8737,-0.8123,-0.7294,-0.7294,-0.7205,-0.7095,-0.7095,-0.7095,-0.7095,-0.7095,-0.7095,-0.7095,-0.7095,-0.7095,-0.7095,-0.7095,-0.7095,-0.7073,-0.6881,-0.684,-0.6792,-0.6542,-0.6473,-0.6409,-0.6191,-0.6127,-0.6019,-0.5755,-0.5688,-0.5688,-0.5688,-0.5688,-0.5688,-0.5688,-0.5688,-0.5688,-0.5688,-0.5688,-0.5688,-0.5688,-0.5688,-0.5648,-0.5543,-0.5532,-0.551,-0.5447,-0.4515,-0.3497,-0.2486,-0.1304,-0.0188,0.088,0.1145,0.1274,0.1303,0.1303,0.1301,0.1296,0.1296,0.1296,0.1296,0.1296,0.1395,-1.2705,-1.2705,-1.2705,-1.2705,-1.2705,-1.2705,-1.2705,-1.2705,-1.2644,-1.2427,-1.2322,-1.2225,-1.2009,-1.2147,-1.2292,-1.2292,-1.2707,-1.3135,-1.3449,-1.3701,-1.3954,-1.4262,-1.4298,-1.428,-1.4238,-1.4226,-1.4123,-1.3857,-1.3797,-1.3562,-1.3057,-1.2831,-1.2705,-1.2705,-1.2705,-1.2705,-1.2705,-1.2705,-1.2705,-1.2705,-1.2705,-1.2705,-1.2705,-1.2705,-1.2619,-1.24,-1.1644,-1.1128,-1.0755,-0.9971,-0.91,-0.8259,-0.8259,-0.7775,-0.7095,-0.7095,-0.7095,-0.7095,-0.7095,-0.7095,-0.7095,-0.7095,-0.7095,-0.7095,-0.7095,-0.7095,-0.7095,-0.7051,-0.7054,-0.7032,-0.6985,-0.6855,-0.6659,-0.6409,-0.6213,-0.6019,-0.5755,-0.5688,-0.5688,-0.5688,-0.5688,-0.5688,-0.5688,-0.5688,-0.5688,-0.5688,-0.5688,-0.5688,-0.5688,-0.5688,-0.568,-0.5659,-0.5656,-0.567,-0.5651,-0.4094,-0.2932,-0.2501,-0.0849,0.0378,0.0963,0.1026,0.1139,0.1295,0.1294,0.1302,0.1296,0.1296,0.1296,0.1296,0.1296,0.1316,-1.2705,-1.2705,-1.2705,-1.2705,-1.2705,-1.2705,-1.2705,-1.2705,-1.2668,-1.2521,-1.2518,-1.2481,-1.2334,-1.2433,-1.2518,-1.2518,-1.2948,-1.3346,-1.3479,-1.3857,-1.4159,-1.428,-1.4298,-1.4298,-1.4298,-1.4298,-1.4244,-1.4117,-1.3984,-1.3737,-1.3328,-1.3045,-1.2834,-1.2705,-1.2705,-1.2705,-1.2705,-1.2705,-1.2705,-1.2705,-1.2705,-1.2705,-1.2705,-1.2705,-1.2705,-1.2662,-1.2229,-1.1757,-1.1262,-1.082,-1.0079,-0.9231,-0.9231,-0.8645,-0.7819,-0.7819,-0.7514,-0.7095,-0.7095,-0.7095,-0.7095,-0.7095,-0.7095,-0.7095,-0.7095,-0.7095,-0.7095,-0.7095,-0.7095,-0.7095,-0.7095,-0.7032,-0.6899,-0.6656,-0.6349,-0.606,-0.593,-0.5799,-0.5688,-0.5688,-0.5688,-0.5688,-0.5688,-0.5688,-0.5688,-0.5688,-0.5688,-0.5688,-0.5688,-0.5688,-0.5688,-0.5688,-0.5688,-0.5688,-0.5688,-0.4882,-0.3881,-0.2779,-0.1725,-0.0627,0.0579,0.0772,0.0933,0.114,0.1105,0.1153,0.1301,0.1305,0.1296,0.1296,0.1296,0.1296,-1.2705,-1.2705,-1.2705,-1.2705,-1.2705,-1.2705,-1.2705,-1.2705,-1.2705,-1.2705,-1.2705,-1.2705,-1.2705,-1.2705,-1.2705,-1.2705,-1.3093,-1.3424,-1.3485,-1.3918,-1.4238,-1.4292,-1.4298,-1.4298,-1.4298,-1.4298,-1.4298,-1.4298,-1.4105,-1.3851,-1.3509,-1.3244,-1.3003,-1.2801,-1.2735,-1.2705,-1.2705,-1.2705,-1.2705,-1.2705,-1.2705,-1.2705,-1.2705,-1.2705,-1.2705,-1.2705,-1.2705,-1.2272,-1.1601,-1.1601,-1.1058,-1.0209,-1.0209,-0.9497,-0.85,-0.85,-0.7907,-0.7095,-0.7095,-0.7095,-0.7095,-0.7095,-0.7095,-0.7095,-0.7095,-0.7095,-0.7095,-0.7095,-0.7095,-0.7095,-0.7095,-0.7095,-0.7032,-0.6767,-0.6393,-0.6083,-0.6019,-0.5841,-0.5688,-0.5688,-0.5688,-0.5688,-0.5688,-0.5688,-0.5688,-0.5688,-0.5688,-0.5688,-0.5688,-0.5688,-0.5688,-0.5688,-0.5688,-0.5688,-0.5688,-0.5508,-0.477,-0.3291,-0.2617,-0.1577,-0.0066,0.0416,0.0759,0.0997,0.0938,0.1051,0.1292,0.1301,0.1307,0.1306,0.13,0.1296,-1.2705,-1.2705,-1.2705,-1.2705,-1.2705,-1.2705,-1.2705,-1.2705,-1.2705,-1.2705,-1.2705,-1.2705,-1.2705,-1.2705,-1.2705,-1.2705,-1.2958,-1.322,-1.3461,-1.3738,-1.4032,-1.4268,-1.4298,-1.4298,-1.4298,-1.4298,-1.4298,-1.4298,-1.4274,-1.4045,-1.3521,-1.3244,-1.3087,-1.3063,-1.2837,-1.2705,-1.2705,-1.2705,-1.2705,-1.2705,-1.2705,-1.2705,-1.2705,-1.2705,-1.2705,-1.2705,-1.2705,-1.2662,-1.2577,-1.2577,-1.2015,-1.1171,-1.1171,-1.0084,-0.85,-0.85,-0.7907,-0.7095,-0.7095,-0.7095,-0.7095,-0.7095,-0.7095,-0.7095,-0.7095,-0.7095,-0.7095,-0.7095,-0.7095,-0.7095,-0.7095,-0.7095,-0.6985,-0.6542,-0.6257,-0.6041,-0.5799,-0.571,-0.5688,-0.5688,-0.5688,-0.5688,-0.5688,-0.5688,-0.5688,-0.5688,-0.5688,-0.5688,-0.5688,-0.5688,-0.5688,-0.5688,-0.5688,-0.5688,-0.5688,-0.4926,-0.4344,-0.4188,-0.2486,-0.1343,-0.0982,-0.0067,0.0598,0.0999,0.0996,0.1092,0.1302,0.1293,0.1299,0.1298,0.131,0.1296,-1.2705,-1.2705,-1.2705,-1.2705,-1.2705,-1.2705,-1.2705,-1.2705,-1.2705,-1.2705,-1.2705,-1.2705,-1.2705,-1.2705,-1.2705,-1.2705,-1.294,-1.3135,-1.3244,-1.3617,-1.3948,-1.4051,-1.4201,-1.4298,-1.4298,-1.4298,-1.4298,-1.4298,-1.4298,-1.4208,-1.3996,-1.3737,-1.3497,-1.334,-1.3232,-1.3093,-1.2936,-1.2936,-1.2852,-1.2705,-1.2705,-1.2705,-1.2705,-1.2705,-1.2705,-1.2705,-1.2705,-1.2705,-1.2705,-1.2705,-1.2485,-1.2143,-1.2143,-1.1343,-1.0193,-1.0193,-0.9584,-0.8707,-0.8145,-0.7951,-0.7841,-0.7294,-0.7095,-0.7095,-0.7095,-0.7095,-0.7095,-0.7095,-0.7095,-0.7095,-0.7095,-0.7095,-0.7051,-0.6874,-0.6542,-0.6257,-0.6146,-0.5908,-0.5688,-0.5688,-0.5688,-0.5688,-0.5688,-0.5688,-0.5688,-0.5688,-0.5688,-0.5688,-0.5688,-0.5688,-0.5688,-0.5688,-0.5688,-0.5688,-0.5688,-0.5352,-0.4904,-0.4344,-0.3583,-0.2575,-0.1322,-0.0896,-0.0268,0.062,0.0767,0.091,0.1117,0.124,0.1309,0.1308,0.1299,0.1304,-1.2705,-1.2705,-1.2705,-1.2705,-1.2705,-1.2705,-1.2705,-1.2705,-1.2705,-1.2705,-1.2705,-1.2705,-1.2705,-1.2705,-1.2705,0.0,0.0,-1.3009,-1.3087,-1.3418,-1.3684,-1.3756,-1.3954,-1.4093,-1.4171,-1.425,-1.4298,-1.4298,-1.4298,-1.4298,-1.4298,-1.4123,-1.3906,-1.364,-1.3533,-1.3406,-1.322,-1.3214,-1.3081,-1.2825,-1.2825,-1.2783,-1.2705,-1.2705,-1.2705,-1.2705,-1.2705,-1.2705,-1.2705,-1.2705,-1.2705,-1.2705,-1.2705,-1.2122,-1.1305,-1.1305,-1.0712,-0.9814,-0.9148,-0.8908,-0.8759,-0.7819,-0.7511,-0.7467,-0.7183,-0.7095,-0.7095,-0.7095,-0.7095,-0.7095,-0.7095,-0.7095,-0.7076,-0.7032,-0.6767,-0.6479,-0.6343,-0.606,-0.5799,-0.571,-0.5688,-0.5688,-0.5688,-0.5688,-0.5688,-0.5688,-0.5688,-0.5688,-0.5688,-0.5688,-0.5688,-0.5688,-0.5688,-0.5688,-0.5688,-0.5688,-0.5419,-0.4748,-0.4456,-0.3695,-0.2308,-0.1995,-0.1277,-0.0067,0.0088,0.0461,0.1032,0.1161,0.1254,0.1338,0.1309,0.1291,-1.2705,-1.2705,-1.2705,-1.2705,-1.2705,-1.2705,-1.2705,-1.2705,-1.2705,-1.2705,-1.2705,-1.2705,-1.2705,-1.2705,-1.2705,-1.2705,-1.2705,0.0,-1.3063,-1.3105,-1.3208,-1.3467,-1.3497,-1.3605,-1.3888,-1.4141,-1.4298,-1.4298,-1.4298,-1.4298,-1.4298,-1.4292,-1.4171,-1.3912,-1.3629,-1.3491,-1.3491,-1.3491,-1.3358,-1.3099,-1.3099,-1.2948,-1.2705,-1.2705,-1.2705,-1.2705,-1.2705,-1.2705,-1.2705,-1.2705,-1.2705,-1.2705,-1.2705,-1.2122,-1.1305,-1.1305,-1.0712,-0.9901,-0.9901,-0.9879,-0.9727,-0.8781,-0.8478,-0.8303,-0.7382,-0.7095,-0.7095,-0.7095,-0.7095,-0.7095,-0.7095,-0.7095,-0.7054,-0.6858,-0.6795,-0.6662,-0.6194,-0.6105,-0.6019,-0.5755,-0.5688,-0.5688,-0.5688,-0.5688,-0.5688,-0.5688,-0.5688,-0.5688,-0.5688,-0.5688,-0.5688,-0.5688,-0.5688,-0.5688,-0.5688,-0.5688,-0.5688,-0.5688,-0.4815,-0.43,-0.4275,-0.3382,-0.2329,-0.1118,-0.1073,-0.0358,0.1099,0.1033,0.113,0.1388,0.1339,0.131,-1.2705,-1.2705,-1.2705,-1.2705,-1.2705,-1.2705,-1.2705,-1.2705,-1.2705,-1.2705,-1.2705,-1.2705,-1.2705,-1.2705,-1.2705,-1.2705,-1.2705,-1.2735,-1.2804,-1.3135,-1.34,-1.3485,-1.3833,-1.4081,-1.4165,-1.425,-1.4298,-1.4298,-1.4298,-1.4298,-1.4298,-1.4298,-1.4256,-1.4177,-1.4093,-1.3966,-1.3785,-1.3756,-1.3629,-1.3364,-1.3189,-1.3057,-1.2967,-1.2768,-1.2705,-1.2705,-1.2705,-1.2705,-1.2705,-1.2705,-1.2705,-1.2705,-1.2705,-1.2507,-1.225,-1.225,-1.2073,-1.1725,-1.1079,-1.0863,-1.0712,-0.9753,-0.9449,-0.9405,-0.9096,-0.8119,-0.7095,-0.7095,-0.7095,-0.7095,-0.7095,-0.7095,-0.7076,-0.701,-0.6903,-0.6704,-0.6368,-0.6191,-0.6019,-0.5755,-0.5688,-0.5688,-0.5688,-0.5688,-0.5688,-0.5688,-0.5688,-0.5688,-0.5688,-0.5688,-0.5688,-0.5688,-0.5688,-0.5688,-0.5688,-0.5688,-0.5688,-0.5688,-0.5419,-0.4971,-0.4322,-0.4007,-0.3381,-0.2351,-0.1522,-0.0872,-0.0403,0.0579,0.119,0.139,0.1381,0.134,-1.2705,-1.2705,-1.2705,-1.2705,-1.2705,-1.2705,-1.2705,-1.2705,-1.2705,-1.2705,-1.2705,-1.2705,-1.2705,-1.2705,-1.2705,-1.2705,-1.2705,-1.2741,-1.285,-1.3135,-1.3382,-1.3479,-1.3888,-1.4153,-1.4153,-1.4238,-1.4298,-1.4298,-1.4298,-1.4298,-1.4298,-1.4298,-1.4298,-1.4298,-1.4298,-1.422,-1.4057,-1.4051,-1.3924,-1.3641,-1.3473,-1.3292,-1.3093,-1.2924,-1.2807,-1.2705,-1.2705,-1.2705,0.0,-1.2705,-1.2705,-1.2705,-1.2705,-1.2705,-1.2705,-1.2705,-1.2705,-1.2619,-1.2036,-1.1822,-1.1666,-1.0729,-1.0188,-0.9901,-0.9901,-0.8838,-0.7555,-0.7205,-0.7095,-0.7095,-0.7095,-0.7095,-0.7095,-0.7095,-0.701,-0.6858,-0.6612,-0.6368,-0.6146,-0.5908,-0.5777,-0.5688,-0.5688,-0.5688,-0.5688,-0.5688,-0.5688,-0.5688,-0.5688,-0.5688,-0.5688,-0.5688,-0.5688,-0.5688,-0.5688,-0.5688,-0.5688,-0.5688,-0.5688,-0.5441,-0.4859,-0.4837,-0.4389,-0.3449,-0.2685,-0.208,-0.1632,-0.0179,0.0801,0.1297,0.1363,0.137,0.0,-1.2705,-1.2705,-1.2705,-1.2705,-1.2705,-1.2705,-1.2705,0.0,-1.2705,-1.2705,-1.2705,-1.2705,-1.2705,-1.2705,-1.2705,-1.2705,-1.2801,-1.3063,-1.3135,-1.325,-1.3491,-1.3773,-1.3924,-1.3912,-1.4141,-1.4298,-1.4298,-1.4298,-1.4298,-1.4298,-1.4298,-1.4298,-1.4298,-1.4298,-1.4298,-1.4298,-1.4298,-1.4171,-1.393,-1.3918,-1.3629,-1.3159,-1.3117,-1.2961,-1.2735,-1.2711,-1.2705,-1.2705,-1.2705,-1.2705,-1.2705,-1.2705,-1.2705,-1.2705,-1.2705,-1.2705,-1.2705,-1.2705,-1.2705,-1.2555,-1.1693,-1.082,-1.0096,-1.0031,-0.9301,-0.8324,-0.7448,-0.7161,-0.7095,-0.7095,-0.7095,-0.7095,-0.7095,-0.7095,-0.7054,-0.684,-0.6612,-0.6365,-0.6149,-0.5908,-0.5733,-0.571,-0.5688,-0.5688,-0.5688,-0.5688,-0.5688,-0.5688,-0.5688,-0.5688,-0.5688,-0.5688,-0.5688,-0.5688,-0.5688,-0.5688,-0.5688,-0.5688,-0.5688,-0.5688,-0.5688,-0.5285,-0.4411,-0.4344,-0.3714,-0.2502,-0.1184,-0.0045,0.0896,0.1143,0.1287,-1.2705,0.0,-1.2705,-1.2705,-1.2705,-1.2705,0.0,-1.2705,-1.2705,-1.2705,-1.2705,-1.2705,-1.2705,-1.2705,-1.2705,-1.2705,-1.2705,-1.2801,-1.3063,-1.3449,-1.3749,-1.3809,-1.4045,-1.4129,-1.3924,-1.4141,-1.4298,-1.4298,-1.4298,-1.4298,-1.4298,-1.4298,-1.4298,-1.4298,-1.4298,-1.4298,-1.4298,-1.4298,-1.4268,-1.4201,-1.4002,-1.3839,-1.3707,-1.3286,-1.3069,-1.2991,-1.2795,-1.2705,-1.2705,-1.2705,-1.2705,-1.2705,-1.2705,-1.2705,-1.2705,-1.2705,-1.2705,-1.2705,-1.2705,-1.2705,-1.2662,-1.2443,-1.2229,-1.1923,-1.1187,-0.9823,-0.8456,-0.8237,-0.7643,-0.7095,-0.7095,-0.7095,-0.7095,-0.7095,-0.7095,-0.7054,-0.684,-0.6748,-0.6593,-0.6171,-0.6038,-0.593,-0.5733,-0.5688,-0.5688,-0.5688,-0.5688,-0.5688,-0.5688,-0.5688,-0.5688,-0.5688,-0.5688,-0.5688,-0.5688,-0.5688,-0.5688,-0.5688,-0.5688,-0.5688,-0.5688,-0.5688,-0.5599,-0.5374,-0.4656,-0.3714,-0.2502,-0.2167,-0.1699,-0.1097,-0.0336,0.0134,-1.2705,-1.2705,-1.2705,-1.2705,-1.2705,-1.2705,-1.2705,-1.2705,-1.2705,-1.2705,-1.2705,-1.2705,-1.2705,-1.2705,-1.2705,-1.2705,-1.2792,-1.2973,-1.3244,-1.3527,-1.375,-1.3894,-1.4032,-1.4111,-1.4087,-1.4214,-1.4298,-1.4298,-1.4298,-1.4298,-1.4298,-1.4298,-1.4298,-1.4298,-1.4298,-1.4298,-1.4298,-1.4298,-1.4298,-1.4292,-1.4153,-1.402,-1.3894,-1.3587,-1.3328,-1.3093,-1.2942,-1.2804,-1.2705,-1.2705,-1.2705,-1.2705,-1.2705,-1.2705,-1.2705,-1.2705,-1.2705,-1.2705,-1.2705,-1.2705,-1.2705,-1.2705,-1.2705,-1.2619,-1.21,-1.0928,-0.9693,-0.9257,-0.847,-0.7731,-0.7731,-0.7426,-0.7095,-0.7095,-0.7095,-0.7073,-0.6969,-0.6858,-0.6681,-0.6302,-0.6171,-0.6016,-0.5755,-0.5688,-0.5688,-0.5688,-0.5688,-0.5688,-0.5688,-0.5688,-0.5688,-0.5688,-0.5688,-0.5688,-0.5688,-0.5688,-0.5688,-0.5688,-0.5688,-0.5688,-0.5688,-0.5688,-0.5688,-0.5688,-0.5196,-0.4409,-0.3331,-0.3194,-0.2726,-0.1925,-0.132,-0.0895,-1.2705,-1.2705,-1.2705,-1.2705,-1.2705,-1.2705,-1.2705,-1.2705,-1.2705,-1.2705,-1.2705,-1.2705,-1.2705,-1.2705,-1.2705,-1.2705,-1.2948,-1.325,-1.3515,-1.361,-1.3701,-1.3882,-1.3942,-1.4039,-1.422,-1.4274,-1.4298,-1.4298,-1.4298,-1.4298,-1.4298,-1.4298,-1.4298,-1.4298,-1.4298,-1.4298,-1.4298,-1.4298,-1.4298,-1.4298,-1.4298,-1.4177,-1.3966,-1.3924,-1.3641,-1.3214,-1.3135,-1.2967,-1.2765,-1.2723,-1.2705,-1.2705,-1.2705,-1.2705,-1.2705,-1.2705,-1.2705,-1.2705,-1.2705,-1.2705,-1.2705,-1.2705,-1.2705,-1.2705,-1.2705,-1.2143,-1.1343,-1.0556,-0.9449,-0.85,-0.85,-0.7797,-0.7095,-0.7095,-0.7095,-0.7095,-0.7095,-0.6966,-0.6748,-0.6454,-0.6257,-0.606,-0.5755,-0.5688,-0.5688,-0.5688,-0.5688,-0.5688,-0.5688,-0.5688,-0.5688,-0.5688,-0.5688,-0.5688,-0.5688,-0.5688,-0.5688,-0.5688,-0.5688,-0.5688,-0.5688,-0.5688,-0.5688,-0.5688,-0.5688,-0.5307,-0.4523,-0.4291,-0.3642,-0.2596,-0.2237,-0.1924,-1.2705,-1.2705,-1.2705,-1.2705,-1.2705,-1.2705,-1.2705,-1.2705,-1.2705,-1.2705,-1.2705,-1.2705,-1.2705,-1.2705,-1.2705,-1.2705,-1.3127,-1.3527,-1.3809,-1.4039,-1.4111,-1.393,-1.4099,-1.4165,-1.3984,-1.4165,-1.4298,-1.4298,-1.4298,-1.4298,-1.4298,-1.4298,-1.4298,-1.4298,-1.4298,-1.4298,-1.4298,-1.4298,-1.4298,-1.4298,-1.4298,-1.428,-1.4226,-1.4008,-1.3863,-1.3738,-1.3292,-1.3075,-1.3021,-1.2801,-1.2705,-1.2705,-1.2705,-1.2705,-1.2705,-1.2705,-1.2705,-1.2705,-1.2705,-1.2705,-1.2705,-1.2705,-1.2705,-1.2705,-1.2705,-1.2598,-1.247,-1.2314,-1.0448,-0.85,-0.85,-0.7797,-0.7095,-0.7095,-0.7095,-0.7095,-0.7095,-0.7076,-0.6918,-0.6476,-0.6365,-0.621,-0.5777,-0.5688,-0.5688,-0.5688,-0.5688,-0.5688,-0.5688,-0.5688,-0.5688,-0.5688,-0.5688,-0.5688,-0.5688,-0.5688,-0.5688,-0.5688,-0.5688,-0.5688,-0.5688,-0.5688,-0.5688,-0.5688,-0.5688,-0.5621,-0.5488,-0.5441,-0.5238,-0.4877,-0.3825,-0.3175,-1.2705,-1.2705,-1.2705,-1.2705,-1.2705,-1.2705,-1.2705,-1.2705,-1.2705,-1.2705,-1.2705,-1.2747,-1.2882,-1.2928,-1.3003,-1.3308,-1.3418,-1.3581,-1.387,-1.3888,-1.3882,-1.3906,-1.4014,-1.4093,-1.4117,-1.4226,-1.4298,-1.4298,-1.4298,-1.4298,-1.4298,-1.4298,-1.4298,-1.4298,-1.4298,-1.4298,-1.4298,-1.4298,-1.4298,-1.4298,-1.4298,-1.4298,-1.4292,-1.4171,-1.4039,-1.3894,-1.3629,-1.3364,-1.3093,-1.2967,-1.2837,-1.2705,-1.2705,-1.2705,-1.2705,-1.2705,-1.2705,-1.2705,-1.2705,-1.2705,-1.2705,-1.2705,-1.2705,-1.2705,-1.2705,-1.2705,-1.2705,-1.2705,-1.1402,-1.0019,-1.0019,-0.8934,-0.7863,-0.7863,-0.747,-0.7095,-0.7095,-0.7095,-0.6962,-0.6498,-0.6406,-0.6254,-0.5777,-0.5688,-0.5688,-0.5688,-0.5688,-0.5688,-0.5688,-0.5688,-0.5688,-0.5688,-0.5688,-0.5688,-0.5688,-0.5688,-0.5688,-0.5688,-0.5688,-0.5688,-0.5688,-0.5688,-0.5688,-0.5688,-0.5688,-0.5688,-0.5688,-0.5688,-0.5599,-0.5394,-0.4832,-0.4362,-1.2705,-1.2705,-1.2705,-1.2705,-1.2705,-1.2705,-1.2705,-1.2705,-1.2723,-1.2789,-1.2801,-1.2868,-1.3063,-1.3105,-1.3256,-1.3743,-1.3701,-1.3701,-1.396,-1.3827,-1.375,-1.3972,-1.3996,-1.4075,-1.428,-1.4298,-1.4298,-1.4298,-1.4298,-1.4298,-1.4298,-1.4298,-1.4298,-1.4298,-1.4298,-1.4298,-1.4298,-1.4298,-1.4298,-1.4298,-1.4298,-1.4298,-1.4298,-1.4298,-1.4183,-1.3996,-1.393,-1.3676,-1.3274,-1.3153,-1.2979,-1.2795,-1.2729,-1.2705,-1.2705,-1.2705,-1.2705,-1.2705,-1.2705,-1.2705,-1.2705,-1.2705,-1.2705,-1.2705,-1.2705,-1.2705,-1.2705,-1.2705,-1.2186,-1.1585,-1.1365,-1.0062,-0.8781,-0.8544,-0.7951,-0.736,-0.7139,-0.7095,-0.6985,-0.6564,-0.6498,-0.6346,-0.5863,-0.5799,-0.5777,-0.571,-0.5688,-0.5688,-0.5688,-0.5688,-0.5688,-0.5688,-0.5688,-0.5688,-0.5688,-0.5688,-0.5688,-0.5688,-0.5688,-0.5688,-0.5688,-0.5688,-0.5688,-0.5688,-0.5688,-0.5688,-0.5688,-0.5688,-0.5621,-0.5463,-0.5416,-0.5216,-1.2705,-1.2705,-1.2705,-1.2705,-1.2705,-1.2705,-1.2705,-1.2705,-1.2777,-1.3021,-1.3075,-1.3081,-1.3099,-1.3105,-1.3196,-1.3479,-1.3731,-1.3966,-1.4232,-1.425,-1.425,-1.4268,-1.4268,-1.428,-1.4292,-1.4298,-1.4298,-1.4298,-1.4298,-1.4298,-1.4298,-1.4298,-1.4298,-1.4298,-1.4298,-1.4298,-1.4298,-1.4298,-1.4298,-1.4298,-1.4298,-1.4298,-1.4298,-1.4298,-1.4286,-1.4256,-1.4008,-1.3882,-1.3809,-1.3304,-1.3087,-1.3045,-1.2807,-1.2705,-1.2705,-1.2705,-1.2705,-1.2705,-1.2705,-1.2705,-1.2705,-1.2705,-1.2705,-1.2705,-1.2705,-1.2705,-1.2705,-1.2705,-1.2662,-1.2406,-1.1521,-1.0556,-0.9575,-0.8715,-0.8456,-0.8171,-0.7294,-0.7095,-0.7032,-0.6814,-0.677,-0.6615,-0.6149,-0.606,-0.5997,-0.5733,-0.5688,-0.5688,-0.5688,-0.5688,-0.5688,-0.5688,-0.5688,-0.5688,-0.5688,-0.5688,-0.5688,-0.5688,-0.5688,-0.5688,-0.5688,-0.5688,-0.5688,-0.5688,-0.5688,-0.5688,-0.5688,-0.5688,-0.5688,-0.5666,-0.5485,-0.5371,-1.2705,-1.2705,-1.2705,-1.2705,-1.2705,-1.2705,-1.2705,-1.2837,-1.2973,-1.3081,-1.3232,-1.3394,-1.358,-1.372,-1.3888,-1.3984,-1.4087,-1.4183,-1.4286,-1.4298,-1.4298,-1.4298,-1.4298,-1.4298,-1.4298,-1.4298,-1.4298,-1.4298,-1.4298,-1.4298,-1.4298,-1.4298,-1.4298,-1.4298,-1.4298,-1.4298,-1.4298,-1.4298,-1.4298,-1.4298,-1.4298,-1.4298,-1.4298,-1.4298,-1.4298,-1.4292,-1.4189,-1.4057,-1.3888,-1.3688,-1.3394,-1.3075,-1.2792,-1.2705,-1.2705,-1.2705,-1.2705,-1.2705,-1.2705,-1.2705,-1.2705,-1.2705,-1.2705,-1.2705,-1.2705,-1.2705,-1.2705,-1.2705,-1.2705,-1.2619,-1.225,-1.1467,-1.0534,-0.9601,-0.893,-0.8237,-0.7294,-0.7095,-0.7032,-0.684,-0.6659,-0.6457,-0.6149,-0.5952,-0.5822,-0.571,-0.5688,-0.5688,-0.5688,-0.5688,-0.5688,-0.5688,-0.5688,-0.5688,-0.5688,-0.5688,-0.5688,-0.5688,-0.5688,-0.5688,-0.5688,-0.5688,-0.5688,-0.5688,-0.5688,-0.5688,-0.5688,-0.5688,-0.5688,-0.5688,-0.5621,-0.553,-1.2705,-1.2705,-1.2705,-1.2705,-1.275,-1.2837,-1.2837,-1.2967,-1.3147,-1.3316,-1.3491,-1.3672,-1.3876,-1.4051,-1.4171,-1.4171,-1.4244,-1.4298,-1.4298,-1.4298,-1.4298,-1.4298,-1.4298,-1.4298,-1.4298,-1.4298,-1.4298,-1.4298,-1.4298,-1.4298,-1.4298,-1.4298,-1.4298,-1.4298,-1.4298,-1.4298,-1.4298,-1.4298,-1.4298,-1.4298,-1.4298,-1.4298,-1.4298,-1.4298,-1.4298,-1.4298,-1.4298,-1.4195,-1.402,-1.3936,-1.3623,-1.3208,-1.3015,-1.291,-1.2837,-1.2837,-1.2762,-1.2705,-1.2705,-1.2705,-1.2705,-1.2705,-1.2705,-1.2705,-1.2705,-1.2705,-1.2705,-1.2705,-1.2705,-1.2705,-1.2705,-1.2229,-1.1515,-1.0577,-0.9845,-0.9126,-0.8185,-0.7753,-0.7492,-0.7363,-0.6896,-0.6454,-0.6235,-0.5994,-0.5799,-0.571,-0.5688,-0.5688,-0.5688,-0.5688,-0.5688,-0.5688,-0.5688,-0.5688,-0.5688,-0.5688,-0.5688,-0.5688,-0.5688,-0.5688,-0.5688,-0.5688,-0.5688,-0.5688,-0.5688,-0.5688,-0.5688,-0.5688,-0.5688,-0.5688,-0.5688,-0.5621,-1.2705,-1.2705,-1.2705,-1.2705,-1.2894,-1.3105,-1.3111,-1.3111,-1.3256,-1.3803,-1.3912,-1.3912,-1.3912,-1.3912,-1.3912,-1.3912,-1.4129,-1.4298,-1.4298,-1.4298,-1.4298,-1.4298,-1.4298,-1.4298,-1.4298,-1.4298,-1.4298,-1.4298,-1.4298,-1.4298,-1.4298,-1.4298,-1.4298,-1.4298,-1.4298,-1.4298,-1.4298,-1.4298,-1.4298,-1.4298,-1.4298,-1.4298,-1.4298,-1.4298,-1.4298,-1.4298,-1.4298,-1.4298,-1.428,-1.4014,-1.3732,-1.3497,-1.3491,-1.3334,-1.3105,-1.3105,-1.293,-1.2711,-1.2711,-1.2705,-1.2705,-1.2705,-1.2705,-1.2705,-1.2705,-1.2705,-1.2705,-1.2705,-1.2705,-1.2705,-1.2705,-1.2683,-1.2443,-1.1521,-1.1278,-1.1041,-1.0096,-0.917,-0.8522,-0.85,-0.758,-0.6726,-0.6454,-0.6235,-0.6016,-0.5733,-0.571,-0.5688,-0.5688,-0.5688,-0.5688,-0.5688,-0.5688,-0.5688,-0.5688,-0.5688,-0.5688,-0.5688,-0.5688,-0.5688,-0.5688,-0.5688,-0.5688,-0.5688,-0.5688,-0.5688,-0.5688,-0.5688,-0.5688,-0.5688,-0.5688,-0.5688,-1.2705,-1.2705,-1.2753,-1.293,-1.3039,-1.3202,-1.3592,-1.3653,-1.3767,-1.4111,-1.4177,-1.4177,-1.4177,-1.4177,-1.4177,-1.4177,-1.4244,-1.4298,-1.4298,-1.4298,-1.4298,-1.4298,-1.4298,-1.4298,-1.4298,-1.4298,-1.4298,-1.4298,-1.4298,-1.4298,-1.4298,-1.4298,-1.4298,-1.4298,-1.4298,-1.4298,-1.4298,-1.4298,-1.4298,-1.4298,-1.4298,-1.4298,-1.4298,-1.4298,-1.4298,-1.4298,-1.4298,-1.4298,-1.428,-1.4014,-1.3857,-1.375,-1.3563,-1.3443,-1.3376,-1.3376,-1.3322,-1.3248,-1.3039,-1.2979,-1.2942,-1.2771,-1.2705,-1.2705,-1.2705,-1.2705,-1.2705,-1.2705,-1.2705,-1.2705,-1.2705,-1.2207,-1.165,-1.137,-1.0799,-1.0231,-0.9966,-0.9684,-0.9296,-0.8627,-0.8123,-0.7551,-0.6811,-0.6349,-0.6083,-0.5997,-0.5822,-0.5688,-0.5688,-0.5688,-0.5688,-0.5688,-0.5688,-0.5688,-0.5688,-0.5688,-0.5688,-0.5688,-0.5688,-0.5688,-0.5688,-0.5688,-0.5688,-0.5688,-0.5688,-0.5688,-0.5688,-0.5688,-0.5688,-0.5688,-0.5688,-0.5688,-1.2705,-1.2705,-1.275,-1.3033,-1.3177,-1.3394,-1.3942,-1.4063,-1.4105,-1.4262,-1.4298,-1.4298,-1.4298,-1.4298,-1.4298,-1.4298,-1.4298,-1.4298,-1.4298,-1.4298,-1.4298,-1.4298,-1.4298,-1.4298,-1.4298,-1.4298,-1.4298,-1.4298,-1.4298,-1.4298,-1.4298,-1.4298,-1.4298,-1.4298,-1.4298,-1.4298,-1.4298,-1.4298,-1.4298,-1.4298,-1.4298,-1.4298,-1.4298,-1.4298,-1.4298,-1.4298,-1.4298,-1.4298,-1.4286,-1.4129,-1.4063,-1.4045,-1.3888,-1.3738,-1.367,-1.367,-1.3581,-1.3473,-1.331,-1.3256,-1.3232,-1.3079,-1.2958,-1.2852,-1.2852,-1.2768,-1.2705,-1.2705,-1.2705,-1.2705,-1.2705,-1.173,-1.0842,-1.1214,-1.0577,-0.9901,-0.9901,-0.9597,-0.917,-0.8606,-0.8339,-0.79,-0.6969,-0.6722,-0.6523,-0.6149,-0.5863,-0.5688,-0.5688,-0.5688,-0.5688,-0.5688,-0.5688,-0.5688,-0.5688,-0.5688,-0.5688,-0.5688,-0.5688,-0.5688,-0.5688,-0.5688,-0.5688,-0.5688,-0.5688,-0.5688,-0.5688,-0.5688,-0.5688,-0.5688,-0.5688,-0.5688,-1.2705,-1.2705,-1.2777,-1.3063,-1.3352,-1.3713,-1.4189,-1.4298,-1.4298,-1.4298,-1.4298,-1.4298,-1.4298,-1.4298,-1.4298,-1.4298,-1.4298,-1.4298,-1.4298,-1.4298,-1.4298,-1.4298,-1.4298,-1.4298,-1.4298,-1.4298,-1.4298,-1.4298,-1.4298,-1.4298,-1.4298,-1.4298,-1.4298,-1.4298,-1.4298,-1.4298,-1.4298,-1.4298,-1.4298,-1.4298,-1.4298,-1.4298,-1.4298,-1.4298,-1.4298,-1.4298,-1.4298,-1.4298,-1.4298,-1.4298,-1.4298,-1.4298,-1.4298,-1.4153,-1.3942,-1.3942,-1.3768,-1.3563,-1.3533,-1.355,-1.3527,-1.3497,-1.3334,-1.3135,-1.3135,-1.2942,-1.2741,-1.2741,-1.2723,-1.2705,-1.2705,-1.1375,-1.0231,-1.1106,-1.0513,-0.9792,-0.9879,-0.9231,-0.8627,-0.8627,-0.8492,-0.8053,-0.7121,-0.7294,-0.7224,-0.6238,-0.5863,-0.5688,-0.5688,-0.5688,-0.5688,-0.5688,-0.5688,-0.5688,-0.5688,-0.5688,-0.5688,-0.5688,-0.5688,-0.5688,-0.5688,-0.5688,-0.5688,-0.5688,-0.5688,-0.5688,-0.5688,-0.5688,-0.5688,-0.5688,-0.5688,-0.5688,-1.2705,-1.2705,-1.2819,-1.3286,-1.3756,-1.4159,-1.4268,-1.4298,-1.4298,-1.4298,-1.4298,-1.4298,-1.4298,-1.4298,-1.4298,-1.4298,-1.4298,-1.4298,-1.4298,-1.4298,-1.4298,-1.4298,-1.4298,-1.4298,-1.4298,-1.4298,-1.4298,-1.4298,-1.4298,-1.4298,-1.4298,-1.4298,-1.4298,-1.4298,-1.4298,-1.4298,-1.4298,-1.4298,-1.4298,-1.4298,-1.4298,-1.4298,-1.4298,-1.4298,-1.4298,-1.4298,-1.4298,-1.4298,-1.4298,-1.4298,-1.4298,-1.4298,-1.4298,-1.4262,-1.4214,-1.4214,-1.4177,-1.4099,-1.3894,-1.3821,-1.3791,-1.3563,-1.3455,-1.3406,-1.3406,-1.3226,-1.3009,-1.3009,-1.2852,-1.2705,-1.2705,-1.1859,-1.1063,-1.1257,-1.0019,-0.8995,-0.9749,-0.9749,-0.9601,-0.9601,-0.9553,-0.9226,-0.8303,-0.8075,-0.7614,-0.6302,-0.5863,-0.5688,-0.5688,-0.5688,-0.5688,-0.5688,-0.5688,-0.5688,-0.5688,-0.5688,-0.5688,-0.5688,-0.5688,-0.5688,-0.5688,-0.5688,-0.5688,-0.5688,-0.5688,-0.5688,-0.5688,-0.5688,-0.5688,-0.5688,-0.5688,-0.5688,-1.2705,-1.2705,-1.2831,-1.3381,-1.3912,-1.4298,-1.4298,-1.4298,-1.4298,-1.4298,-1.4298,-1.4298,-1.4298,-1.4298,-1.4298,-1.4298,-1.4298,-1.4298,-1.4298,-1.4298,-1.4298,-1.4298,-1.4298,-1.4298,-1.4298,-1.4298,-1.4298,-1.4298,-1.4298,-1.4298,-1.4298,-1.4298,-1.4298,-1.4298,-1.4298,-1.4298,-1.4298,-1.4298,-1.4298,-1.4298,-1.4298,-1.4298,-1.4298,-1.4298,-1.4298,-1.4298,-1.4298,-1.4298,-1.4298,-1.4298,-1.4298,-1.4298,-1.4298,-1.4298,-1.4298,-1.4298,-1.4298,-1.428,-1.4141,-1.4093,-1.4075,-1.3936,-1.3803,-1.3701,-1.3701,-1.3497,-1.3262,-1.3135,-1.2997,-1.2852,-1.2741,-1.1993,-1.1305,-1.1305,-1.0214,-0.9192,-0.9231,-0.9231,-0.91,-0.8641,-0.8925,-0.893,-0.7995,-0.7551,-0.7066,-0.6216,-0.5863,-0.5688,-0.5688,-0.5688,-0.5688,-0.5688,-0.5688,-0.5688,-0.5688,-0.5688,-0.5688,-0.5688,-0.5688,-0.5688,-0.5688,-0.5688,-0.5688,-0.5688,-0.5688,-0.5688,-0.5688,-0.5688,-0.5688,-0.5688,-0.5688,-0.5688,-1.2513,-1.2529,-1.275,-1.3354,-1.3912,-1.4298,-1.4298,-1.4298,-1.4298,-1.4298,-1.4298,-1.4298,-1.4298,-1.4298,-1.4298,-1.4298,-1.4298,-1.4298,-1.4298,-1.4298,-1.4298,-1.4298,-1.4298,-1.4298,-1.4298,-1.4298,-1.4298,-1.4298,-1.4298,-1.4298,-1.4298,-1.4298,-1.4298,-1.4298,-1.4298,-1.4298,-1.4298,-1.4298,-1.4298,-1.4298,-1.4298,-1.4298,-1.4298,-1.4298,-1.4298,-1.4298,-1.4298,-1.4298,-1.4298,-1.4298,-1.4298,-1.4298,-1.4298,-1.4298,-1.4298,-1.4298,-1.4298,-1.4298,-1.4298,-1.4298,-1.4298,-1.4298,-1.4153,-1.3972,-1.3972,-1.3768,-1.3515,-1.3298,-1.3202,-1.3117,-1.2904,-1.2254,-1.169,-1.169,-1.1091,-1.0144,-0.8793,-0.85,-0.8281,-0.7492,-0.7973,-0.8259,-0.747,-0.6852,-0.6387,-0.6191,-0.593,-0.5755,-0.571,-0.5688,-0.5688,-0.5688,-0.5688,-0.5688,-0.5688,-0.5688,-0.5688,-0.5688,-0.5688,-0.5688,-0.5688,-0.5688,-0.5688,-0.5688,-0.5688,-0.5688,-0.5688,-0.5688,-0.5688,-0.5688,-0.5688,-0.5688,-1.1714,-1.1838,-1.2377,-1.3285,-1.3912,-1.4298,-1.4298,-1.4298,-1.4298,-1.4298,-1.4298,-1.4298,-1.4298,-1.4298,-1.4298,-1.4298,-1.4298,-1.4298,-1.4298,-1.4298,-1.4298,-1.4298,-1.4298,-1.4298,-1.4298,-1.4298,-1.4298,-1.4298,-1.4298,-1.4298,-1.4298,-1.4298,-1.4298,-1.4298,-1.4298,-1.4298,-1.4298,-1.4298,-1.4298,-1.4298,-1.4298,-1.4298,-1.4298,-1.4298,-1.4298,-1.4298,-1.4298,-1.4298,-1.4298,-1.4298,-1.4298,-1.4298,-1.4298,-1.4298,-1.4298,-1.4298,-1.4298,-1.4298,-1.4298,-1.4298,-1.4298,-1.4298,-1.4274,-1.4244,-1.4244,-1.4063,-1.3845,-1.3809,-1.364,-1.343,-1.3394,-1.3292,-1.3202,-1.3202,-1.3106,-1.2187,-0.9156,-0.85,-0.8456,-0.8346,-0.8412,-0.8456,-0.8324,-0.7448,-0.6656,-0.6409,-0.6191,-0.5975,-0.5733,-0.5688,-0.5688,-0.5688,-0.5688,-0.5688,-0.5688,-0.5688,-0.5688,-0.5688,-0.5688,-0.5688,-0.5688,-0.5688,-0.5688,-0.5688,-0.5688,-0.5688,-0.5688,-0.5688,-0.5688,-0.5688,-0.5688,-0.5688,-1.2207,-1.2087,-1.2324,-1.328,-1.3912,-1.4298,-1.4298,-1.4298,-1.4298,-1.4298,-1.4298,-1.4298,-1.4298,-1.4298,-1.4298,-1.4298,-1.4298,-1.4298,-1.4298,-1.4298,-1.4298,-1.4298,-1.4298,-1.4298,-1.4298,-1.4298,-1.4298,-1.4298,-1.4298,-1.4298,-1.4298,-1.4298,-1.4298,-1.4298,-1.4298,-1.4298,-1.4298,-1.4298,-1.4298,-1.4298,-1.4298,-1.4298,-1.4298,-1.4298,-1.4298,-1.4298,-1.4298,-1.4298,-1.4298,-1.4298,-1.4298,-1.4298,-1.4298,-1.4298,-1.4298,-1.4298,-1.4298,-1.4298,-1.4298,-1.4298,-1.4298,-1.4298,-1.4298,-1.4298,-1.4298,-1.4214,-1.4093,-1.3948,-1.3827,-1.3701,-1.3533,-1.3491,-1.3491,-1.3491,-1.3491,-1.2944,-1.095,-1.0524,-1.0187,-0.9112,-0.8417,-0.7987,-0.7987,-0.7397,-0.6869,-0.6754,-0.6375,-0.606,-0.593,-0.5799,-0.5688,-0.5688,-0.5688,-0.5688,-0.5688,-0.5688,-0.5688,-0.5688,-0.5688,-0.5688,-0.5688,-0.5688,-0.5688,-0.5688,-0.5688,-0.5688,-0.5688,-0.5688,-0.5688,-0.5688,-0.5688,-0.5688,-1.2336,-1.1998,-1.1883,-1.2893,-1.3502,-1.3927,-1.4232,-1.4298,-1.4226,-1.3956,-1.3878,-1.3878,-1.3878,-1.4124,-1.4298,-1.4298,-1.4298,-1.4298,-1.4298,-1.4298,-1.4298,-1.4298,-1.4298,-1.4298,-1.4298,-1.4298,-1.4298,-1.4298,-1.4298,-1.4298,-1.4298,-1.4298,-1.4298,-1.4298,-1.4298,-1.4298,-1.4298,-1.4298,-1.4298,-1.4298,-1.4298,-1.4298,-1.4298,-1.4298,-1.4298,-1.4298,-1.4298,-1.4298,-1.4298,-1.4298,-1.4298,-1.4298,-1.4298,-1.4298,-1.4298,-1.4298,-1.4298,-1.4298,-1.4298,-1.4298,-1.4298,-1.4298,-1.4298,-1.4298,-1.4298,-1.4298,-1.4256,-1.4057,-1.4002,-1.396,-1.3767,-1.369,-1.369,-1.369,-1.369,-1.3418,-1.2323,-1.1907,-1.1242,-0.9522,-0.8551,-0.7926,-0.7647,-0.7343,-0.7132,-0.7063,-0.6598,-0.6221,-0.6154,-0.5886,-0.5688,-0.5688,-0.5688,-0.5688,-0.5688,-0.5688,-0.5688,-0.5688,-0.5688,-0.5688,-0.5688,-0.5688,-0.5688,-0.5688,-0.5688,-0.5688,-0.5688,-0.5688,-0.5688,-0.5688,-0.5688,-0.5688,-1.137,-1.0891,-1.067,-1.1877,-1.2383,-1.29,-1.4046,-1.4298,-1.4004,-1.2998,-1.278,-1.278,-1.278,-1.3607,-1.4298,-1.4298,-1.4298,-1.4298,-1.4298,-1.4298,-1.4298,-1.4298,-1.4298,-1.4298,-1.4298,-1.4298,-1.4298,-1.4298,-1.4298,-1.4298,-1.4298,-1.4298,-1.4298,-1.4298,-1.4298,-1.4298,-1.4298,-1.4298,-1.4298,-1.4298,-1.4298,-1.4298,-1.4298,-1.4298,-1.4298,-1.4298,-1.4298,-1.4298,-1.4298,-1.4298,-1.4298,-1.4298,-1.4298,-1.4298,-1.4298,-1.4298,-1.4298,-1.4298,-1.4298,-1.4298,-1.4298,-1.4298,-1.4298,-1.4298,-1.4298,-1.4298,-1.4292,-1.428,-1.428,-1.4274,-1.4262,-1.4256,-1.4256,-1.4256,-1.4256,-1.385,-1.2423,-1.1403,-1.0463,-0.9406,-0.915,-0.8804,-0.7785,-0.7594,-0.7493,-0.7228,-0.6897,-0.6584,-0.6313,-0.5938,-0.5688,-0.5688,-0.5688,-0.5688,-0.5688,-0.5688,-0.5688,-0.5688,-0.5688,-0.5688,-0.5688,-0.5688,-0.5688,-0.5688,-0.5688,-0.5688,-0.5688,-0.5688,-0.5688,-0.5688,-0.5688,-0.5688,-1.1149,-1.0375,-0.9656,-1.07,-1.1728,-1.2609,-1.3046,-1.3211,-1.3167,-1.278,-1.2193,-1.1926,-1.2581,-1.3022,-1.3487,-1.4202,-1.4298,-1.4298,-1.4298,-1.4298,-1.4298,-1.4298,-1.4298,-1.4298,-1.4298,-1.4298,-1.4298,-1.4298,-1.4298,-1.4298,-1.4298,-1.4298,-1.4298,-1.4298,-1.4298,-1.4298,-1.4298,-1.4298,-1.4298,-1.4298,-1.4298,-1.4298,-1.4298,-1.4298,-1.4298,-1.4298,-1.4298,-1.4298,-1.4298,-1.4298,-1.4298,-1.4298,-1.4298,-1.4298,-1.4298,-1.4298,-1.4298,-1.4298,-1.4298,-1.4298,-1.4298,-1.4298,-1.4298,-1.4298,-1.4298,-1.4298,-1.4298,-1.4298,-1.4298,-1.4298,-1.4298,-1.4298,-1.4298,-1.4298,-1.4298,-1.4172,-1.362,-1.2194,-1.0905,-1.0545,-0.9373,-0.8313,-0.7931,-0.7776,-0.7685,-0.7613,-0.7113,-0.6721,-0.6631,-0.6241,-0.5928,-0.5827,-0.5819,-0.5789,-0.5716,-0.5688,-0.5688,-0.5688,-0.5688,-0.5688,-0.5688,-0.5688,-0.5688,-0.5688,-0.5688,-0.5688,-0.5688,-0.5688,-0.5688,-0.5688,-0.5688,-0.5688,-1.1069,-1.0284,-0.9544,-0.9907,-1.1014,-1.2097,-1.249,-1.2912,-1.3047,-1.2339,-1.1926,-1.1804,-1.2145,-1.246,-1.3047,-1.4124,-1.4298,-1.4298,-1.4298,-1.4298,-1.4298,-1.4298,-1.4298,-1.4298,-1.4298,-1.4298,-1.4298,-1.4298,-1.4298,-1.4298,-1.4298,-1.4298,-1.4298,-1.4298,-1.4298,-1.4298,-1.4298,-1.4298,-1.4298,-1.4298,-1.4298,-1.4298,-1.4298,-1.4298,-1.4298,-1.4298,-1.4298,-1.4298,-1.4298,-1.4298,-1.4298,-1.4298,-1.4298,-1.4298,-1.4298,-1.4298,-1.4298,-1.4298,-1.4298,-1.4298,-1.4298,-1.4298,-1.4298,-1.4298,-1.4298,-1.4298,-1.4298,-1.4298,-1.4298,-1.4298,-1.4298,-1.4298,-1.4298,-1.4298,-1.4298,-1.4298,-1.4298,-1.3221,-1.2023,-1.1346,-1.0047,-0.885,-0.8113,-0.7932,-0.7864,-0.7864,-0.7403,-0.7003,-0.6905,-0.6511,-0.6171,-0.5995,-0.5964,-0.5918,-0.5778,-0.5767,-0.5751,-0.5713,-0.5688,-0.5688,-0.5688,-0.5688,-0.5688,-0.5688,-0.5688,-0.5688,-0.5688,-0.5688,-0.5688,-0.5688,-0.5688,-0.5688,0.0,0.0,0.0,-0.964,-1.0259,-1.1334,-1.2445,-1.3505,-1.3685,-1.1658,-1.1999,-1.2363,-1.1414,-1.2047,-1.3047,-1.4124,-1.4298,-1.4298,-1.4298,-1.4298,-1.4298,-1.4298,-1.4298,-1.4298,-1.4298,-1.4298,-1.4298,-1.4298,-1.4298,-1.4298,-1.4298,-1.4298,-1.4298,-1.4298,-1.4298,-1.4298,-1.4298,-1.4298,-1.4298,-1.4298,-1.4298,-1.4298,-1.4298,-1.4298,-1.4298,-1.4298,-1.4298,-1.4298,-1.4298,-1.4298,-1.4298,-1.4298,-1.4298,-1.4298,-1.4298,-1.4298,-1.4298,-1.4298,-1.4298,-1.4298,-1.4298,-1.4298,-1.4298,-1.4298,-1.4298,-1.4298,-1.4298,-1.4298,-1.4298,-1.4298,-1.4274,-1.4274,-1.4298,-1.4274,-1.4274,-1.4298,-1.4298,-1.4298,-1.3685,-1.1634,-1.1194,-1.0489,-0.8407,-0.8013,-0.7988,-0.7988,-0.7723,-0.7413,-0.714,-0.6759,-0.6399,-0.6139,-0.6115,-0.6043,-0.5918,-0.5909,-0.5858,-0.5724,-0.5716,-0.5713,-0.5688,-0.5688,-0.5688,-0.5688,-0.5688,-0.5688,-0.5688,-0.5688,-0.5688,-0.5688,-0.5688,-0.5688,-1.1838,0.0,0.0,0.0,0.0,0.0,-1.2474,-1.2853,-1.2974,-1.2387,-1.1926,-1.1755,-1.2193,-1.2509,-1.3047,-1.4124,-1.4298,-1.4298,-1.4298,-1.4298,-1.4298,-1.4298,-1.4298,-1.4298,-1.4298,-1.4298,-1.4298,-1.4298,-1.4298,-1.4298,-1.4298,-1.4298,-1.4298,-1.4298,-1.4298,-1.4298,-1.4298,-1.4298,-1.4298,-1.4298,-1.4298,-1.4298,-1.4298,-1.4298,-1.4298,-1.4298,-1.4298,-1.4298,-1.4298,-1.4298,-1.4298,-1.4298,-1.4298,-1.4298,-1.4298,-1.4298,-1.4298,-1.4298,-1.4298,-1.4298,-1.4298,-1.4298,-1.4298,-1.4298,-1.4298,-1.4298,-1.4298,-1.4298,-1.4298,-1.4124,-1.3342,-1.3709,-1.41,-1.3342,-1.3733,-1.4298,-1.4298,-1.4298,-1.3902,-1.2557,-1.1072,-0.9854,-0.9266,-0.8506,-0.7988,-0.7988,-0.776,-0.7536,-0.7461,-0.7032,-0.6679,-0.6536,-0.6361,-0.6192,-0.6045,-0.6034,-0.5986,-0.5863,-0.5855,-0.5797,-0.5713,-0.5688,-0.5688,-0.5688,-0.5688,-0.5688,-0.5688,-0.5688,-0.5688,-0.5688,-0.5688,-0.5688,-1.2481,-1.1942,-1.1425,-1.1,0.0,0.0,-1.2581,-1.3001,-1.324,-1.278,-1.2587,-1.2538,-1.2684,-1.3071,-1.3559,-1.4202,-1.4298,-1.4298,-1.4298,-1.4298,-1.4298,-1.4298,-1.4298,-1.4298,-1.4298,-1.4298,-1.4298,-1.4298,-1.4298,-1.4298,-1.4298,-1.4298,-1.4298,-1.4298,-1.4298,-1.4298,-1.4298,-1.4298,-1.4298,-1.4298,-1.4298,-1.4298,-1.4298,-1.4298,-1.4298,-1.4298,-1.4298,-1.4298,-1.4298,-1.4298,-1.4298,-1.4298,-1.4298,-1.4298,-1.4298,-1.4298,-1.4298,-1.4298,-1.4298,-1.4298,-1.4298,-1.4298,-1.4298,-1.4298,-1.4298,-1.4298,-1.4298,-1.4298,-1.4298,-1.4154,-1.3535,-1.3487,-1.3463,-1.2853,-1.2853,-1.2998,-1.2998,-1.2998,-1.2955,-1.2732,-1.1731,-1.0607,-0.9752,-0.9093,-0.8506,-0.8063,-0.7867,-0.7721,-0.7621,-0.7216,-0.6913,-0.6763,-0.6511,-0.629,-0.6194,-0.6186,-0.6134,-0.5988,-0.5977,-0.595,-0.5859,-0.5857,-0.5857,-0.5857,-0.5808,-0.5759,-0.5688,-0.5688,-0.5688,-0.5688,-0.5688,-0.5688,-1.3143,-1.2877,-1.2654,-1.178,-1.2217,0.0,-1.2877,-1.3613,-1.4028,-1.3071,-1.3637,-1.4004,-1.3047,-1.3661,-1.4298,-1.4298,-1.4298,-1.4298,-1.4298,-1.4298,-1.4298,-1.4298,-1.4298,-1.4298,-1.4298,-1.4298,-1.4298,-1.4298,-1.4298,-1.4298,-1.4298,-1.4298,-1.4298,-1.4298,-1.4298,-1.4298,-1.4298,-1.4298,-1.4298,-1.4298,-1.4298,-1.4298,-1.4298,-1.4298,-1.4298,-1.4298,-1.4298,-1.4298,-1.4298,-1.4298,-1.4298,-1.4298,-1.4298,-1.4298,-1.4298,-1.4298,-1.4298,-1.4298,-1.4298,-1.4298,-1.4298,-1.4298,-1.4298,-1.4298,-1.4298,-1.4298,-1.4298,-1.4298,-1.4298,-1.4274,-1.4148,-1.3414,-1.2684,-1.2557,-1.1853,-1.1194,-1.1194,-1.1194,-1.1463,-1.2363,-1.2533,-1.195,-1.0096,-0.9682,-0.9242,-0.8162,-0.7988,-0.7917,-0.7671,-0.7391,-0.7113,-0.6867,-0.6589,-0.6371,-0.632,-0.6312,-0.626,-0.6137,-0.6129,-0.6123,-0.611,-0.611,-0.611,-0.611,-0.5977,-0.5874,-0.5751,-0.5724,-0.5688,-0.5688,-0.5688,-0.5688,-1.4052,-1.398,-1.3932,-1.3733,-1.383,0.0,-1.398,-1.4148,-1.4244,-1.4028,-1.4148,-1.425,-1.4028,-1.4154,-1.4298,-1.4298,-1.4298,-1.4298,-1.4298,-1.4298,-1.4298,-1.4298,-1.4298,-1.4298,-1.4298,-1.4298,-1.4298,-1.4298,-1.4298,-1.4298,-1.4298,-1.4298,-1.4298,-1.4298,-1.4298,-1.4298,-1.4298,-1.4298,-1.4298,-1.4298,-1.4298,-1.4298,-1.4298,-1.4298,-1.4298,-1.4298,-1.4298,-1.4298,-1.4298,-1.4298,-1.4298,-1.4298,-1.4298,-1.4298,-1.4298,-1.4298,-1.4298,-1.4298,-1.4298,-1.4298,-1.4298,-1.4298,-1.4298,-1.4298,-1.4298,-1.4298,-1.4298,-1.4298,-1.4298,-1.41,-1.3245,-1.2853,-1.2509,-1.1682,-1.1341,-1.1194,-1.1194,-1.1194,-1.1268,-1.1439,-1.1487,-1.1365,-1.095,-1.017,-0.9242,-0.8162,-0.7988,-0.7988,-0.7942,-0.749,-0.7188,-0.7138,-0.6686,-0.6404,-0.6379,-0.6379,-0.6355,-0.6265,-0.6257,-0.6213,-0.6112,-0.611,-0.611,-0.611,-0.6085,-0.604,-0.6015,-0.5803,-0.5688,-0.5688,-0.5688,-0.5688,-1.4298,-1.4298,-1.4298,-1.4298,-1.4298,0.0,0.0,-1.4298,-1.4298,-1.4298,-1.4298,-1.4298,-1.4298,-1.4298,-1.4256,-1.4123,-1.4214,-1.4208,-1.3948,-1.4129,-1.4298,-1.4298,-1.4298,-1.4298,-1.4298,-1.4298,-1.4298,-1.4298,-1.4298,-1.4298,-1.4298,-1.4298,-1.4298,-1.4298,-1.4298,-1.4298,-1.4298,-1.4298,-1.4298,-1.4298,-1.4298,-1.4298,-1.4298,-1.4298,-1.4298,-1.4298,-1.4298,-1.4298,-1.4298,-1.4298,-1.4298,-1.4298,-1.4298,-1.4298,-1.4298,-1.4298,-1.4298,-1.4298,-1.4298,-1.4298,-1.4298,-1.4298,-1.4298,-1.4298,-1.4298,-1.4298,-1.4298,-1.4298,-1.4298,-1.4172,-1.3637,-1.3095,-1.2436,-1.1439,-1.0779,-1.0268,-0.9731,-0.9608,-0.9756,-1.0293,-1.0391,-1.0391,-1.0391,-0.9948,-0.9192,-0.7988,-0.7917,-0.7939,-0.7817,-0.7568,-0.7391,-0.7391,-0.7039,-0.6786,-0.6786,-0.6664,-0.6589,-0.6555,-0.6426,-0.6325,-0.6263,-0.626,-0.6236,-0.6202,-0.6202,-0.617,-0.611,-0.5966,-0.5909,-0.5909,-0.5824,-0.5794,-1.4298,-1.4298,-1.4298,-1.4298,-1.4298,-1.4298,0.0,0.0,0.0,-1.4298,-1.4298,-1.4298,-1.4298,-1.4298,-1.4214,-1.3948,-1.4087,-1.4057,-1.358,-1.3882,-1.4147,-1.4147,-1.4238,-1.428,-1.4226,-1.422,-1.4244,-1.4292,-1.425,-1.4244,-1.4292,-1.4298,-1.4298,-1.4298,-1.4298,-1.4298,-1.4298,-1.4298,-1.4298,-1.4298,-1.4298,-1.4298,-1.4298,-1.4298,-1.4298,-1.4298,-1.4298,-1.4298,-1.4298,-1.4298,-1.4298,-1.4298,-1.4298,-1.4298,-1.4298,-1.4298,-1.4298,-1.4298,-1.4298,-1.4298,-1.4298,-1.4298,-1.4298,-1.4298,-1.4298,-1.4298,-1.4298,-1.4298,-1.4298,-1.4298,-1.4298,-1.3487,-1.2509,-1.1682,-1.0685,-0.9608,-0.8531,-0.8308,-0.8503,-0.9167,-0.9291,-0.9361,-0.9558,-0.9608,-0.9143,-0.7793,-0.7793,-0.7817,-0.7568,-0.7469,-0.7447,-0.7447,-0.7216,-0.7036,-0.7036,-0.6892,-0.6767,-0.6717,-0.6564,-0.6462,-0.6412,-0.6412,-0.6368,-0.6325,-0.6325,-0.6276,-0.6154,-0.6154,-0.613,-0.6107,-0.5986,-0.5937,-1.4298,-1.4298,-1.4298,-1.4298,-1.4298,-1.4298,-1.4298,0.0,-1.4298,-1.4298,0.0,-1.4298,-1.4298,0.0,0.0,-1.3948,-1.393,-1.3845,-1.3533,-1.3545,-1.3581,-1.3581,-1.4014,-1.4208,-1.3972,-1.3954,-1.4045,-1.428,-1.4081,-1.4051,-1.4286,-1.4298,-1.4298,-1.4298,-1.4298,-1.4298,-1.4298,-1.4298,-1.4298,-1.4298,-1.4298,-1.4298,-1.4298,-1.4298,-1.4298,-1.4298,-1.4298,-1.4298,-1.4298,-1.4298,-1.4298,-1.4298,-1.4298,-1.4298,-1.4298,-1.4298,-1.4298,-1.4298,-1.4298,-1.4298,-1.4298,-1.4298,-1.4298,-1.4298,-1.4298,-1.4298,-1.4298,-1.4298,-1.4298,-1.4298,-1.4298,-1.3487,-1.2684,-1.2557,-1.1755,-1.073,-0.9657,-0.941,-0.9167,-0.8333,-0.8184,-0.8482,-0.9435,-0.9608,-0.9143,-0.7793,-0.7621,-0.7543,-0.7288,-0.7042,-0.6895,-0.6895,-0.6639,-0.6487,-0.6487,-0.6692,-0.6692,-0.6462,-0.6639,-0.6642,-0.6412,-0.6412,-0.6406,-0.6393,-0.6393,-0.6385,-0.6371,-0.6371,-0.6266,-0.611,-0.6096,-0.6088,-1.4298,-1.4298,-1.4298,-1.4298,-1.4298,-1.4298,-1.4298,-1.4298,-1.4298,-1.4298,0.0,0.0,0.0,0.0,0.0,0.0,-1.3906,-1.3738,-1.3322,-1.34,-1.3491,-1.3491,-1.3713,-1.3857,-1.3906,-1.4045,-1.4177,-1.4286,-1.4195,-1.4177,-1.4292,-1.4298,-1.4298,-1.4298,-1.4298,-1.4298,-1.4298,-1.4298,-1.4298,-1.4298,-1.4298,-1.4298,-1.4298,-1.4298,-1.4298,-1.4298,-1.4298,-1.4298,-1.4298,-1.4298,-1.4298,-1.4298,-1.4298,-1.4298,-1.4298,-1.4298,-1.4298,-1.4298,-1.4298,-1.4298,-1.4298,-1.4298,-1.4298,-1.4298,-1.4298,-1.4298,-1.4298,-1.4298,-1.4298,-1.4298,-1.4298,-1.398,-1.3463,-1.2853,-1.2387,-1.1609,-0.9948,-0.9608,-0.9291,-0.8212,-0.7988,-0.8137,-0.8602,-0.8676,-0.8432,-0.7718,-0.7721,-0.7668,-0.7263,-0.7241,-0.7194,-0.7042,-0.6939,-0.6861,-0.6861,-0.6817,-0.6742,-0.6639,-0.6589,-0.6514,-0.6412,-0.6412,-0.6412,-0.6412,-0.6412,-0.6412,-0.6412,-0.6412,-0.636,-0.6263,-0.6222,-0.6216,-1.4316,-1.4298,-1.4298,-1.4298,-1.4298,-1.4298,-1.4298,-1.4298,-1.4298,-1.4298,-1.4298,0.0,0.0,0.0,-1.4214,-1.3948,0.0,-1.3702,-1.3177,-1.3268,-1.3358,-1.3302,-1.334,-1.3491,-1.375,-1.3972,-1.4111,-1.4183,-1.4189,-1.422,-1.4292,-1.4298,-1.4298,-1.4298,-1.4298,-1.4298,-1.4298,-1.4298,-1.4298,-1.4298,-1.4298,-1.4298,-1.4298,-1.4298,-1.4298,-1.4298,-1.4298,-1.4298,-1.4298,-1.4298,-1.4298,-1.4298,-1.4298,-1.4298,-1.4298,-1.4298,-1.4298,-1.4298,-1.4298,-1.4298,-1.4298,-1.4298,-1.4298,-1.4298,-1.4298,-1.4298,-1.4298,-1.4298,-1.4298,-1.4298,-1.4298,-1.4298,-1.41,-1.3318,-1.3143,-1.2635,-1.0852,-1.0219,-0.9731,-0.8651,-0.8212,-0.7988,-0.7988,-0.7988,-0.7917,-0.7646,-0.7768,-0.769,-0.7163,-0.7269,-0.7269,-0.7014,-0.6989,-0.6989,-0.6989,-0.6867,-0.6795,-0.6795,-0.6539,-0.6412,-0.6412,-0.6412,-0.6412,-0.6412,-0.6412,-0.6412,-0.6412,-0.6412,-0.6412,-0.6409,-0.6352,-0.6339,-1.437,-1.4298,-1.4298,-1.4298,-1.4298,-1.4298,-1.4298,-1.4298,-1.4298,-1.4298,-1.4298,-1.4298,-1.4298,-1.4298,-1.4214,0.0,-1.3906,0.0,0.0,-1.3111,-1.3015,-1.2765,-1.2948,-1.3214,-1.3479,-1.3515,-1.3623,-1.39,-1.3918,-1.4032,-1.4286,-1.4298,-1.4298,-1.4298,-1.4298,-1.4298,-1.4298,-1.4298,-1.4298,-1.4298,-1.4298,-1.4298,-1.4298,-1.4298,-1.4298,-1.4298,-1.4298,-1.4298,-1.4298,-1.4298,-1.4298,-1.4298,-1.4298,-1.4298,-1.4298,-1.4298,-1.4298,-1.4298,-1.4298,-1.4298,-1.4298,-1.4298,-1.4298,-1.4298,-1.4298,-1.4298,-1.4298,-1.4298,-1.4298,-1.4298,-1.4298,-1.4298,-1.4298,-1.4274,-1.4244,-1.3956,-1.2829,-1.1828,-1.0828,-0.9756,-0.8701,-0.7988,-0.7988,-0.7988,-0.7917,-0.7646,-0.7596,-0.7419,-0.6895,-0.682,-0.6717,-0.6462,-0.6437,-0.6437,-0.6437,-0.6667,-0.6795,-0.6795,-0.6539,-0.6412,-0.6412,-0.6412,-0.6412,-0.6412,-0.6412,-0.6412,-0.6412,-0.6412,-0.6412,-0.6412,-0.6406,-0.6406,-1.4859,-1.4835,-1.4793,-1.4618,-1.4551,-1.4527,-1.434,-1.4298,-1.4298,-1.4298,-1.4298,-1.4298,-1.4298,-1.4298,-1.4268,0.0,0.0,-1.3845,0.0,-1.3322,-1.2997,-1.2735,-1.293,-1.3135,-1.3226,-1.3568,-1.3809,-1.39,-1.4063,-1.4201,-1.4292,-1.4298,-1.4298,-1.4298,-1.4298,-1.4298,-1.4298,-1.4298,-1.4298,-1.4298,-1.4298,-1.4298,-1.4298,-1.4298,-1.4298,-1.4298,-1.4298,-1.4298,-1.4298,-1.4298,-1.4298,-1.4298,-1.4298,-1.4298,-1.4298,-1.4298,-1.4298,-1.4298,-1.4298,-1.4298,-1.4298,-1.4298,-1.4298,-1.4298,-1.4298,-1.4298,-1.4298,-1.4298,-1.4298,-1.4298,-1.4298,-1.4298,-1.4298,-1.4298,-1.4298,-1.4004,-1.2926,-1.2436,-1.1901,-1.0852,-0.9801,-0.9069,-0.9069,-0.8482,-0.7967,-0.7867,-0.7867,-0.7668,-0.7141,-0.7064,-0.6889,-0.6437,-0.6412,-0.6412,-0.6412,-0.6487,-0.6539,-0.6539,-0.6462,-0.6412,-0.6412,-0.6412,-0.6412,-0.6412,-0.6412,-0.6412,-0.6412,-0.6412,-0.6412,-0.6412,-0.6412,-0.6412,-1.5137,-1.5107,-1.5071,-1.4902,-1.4834,-1.4756,-1.4509,-1.4443,-1.4443,-1.4443,-1.437,-1.4328,-1.4431,-1.4364,-1.4298,0.0,0.0,0.0,0.0,-1.343,-1.3033,-1.2852,-1.29,-1.2991,-1.3093,-1.3406,-1.3684,-1.3894,-1.4063,-1.4201,-1.4292,-1.4298,-1.4298,-1.4298,-1.4298,-1.4298,-1.4298,-1.4298,-1.4298,-1.4298,-1.4395,-1.4443,-1.4449,-1.4545,-1.4588,-1.4588,-1.4588,-1.4588,-1.4582,-1.4485,-1.4443,-1.4437,-1.4334,-1.4298,-1.4298,-1.4298,-1.4298,-1.4298,-1.4298,-1.4298,-1.4298,-1.4298,-1.4298,-1.4226,-1.3854,-1.4004,-1.4244,-1.3941,-1.4069,-1.4322,-1.4419,-1.437,-1.4298,-1.4298,-1.4298,-1.41,-1.3414,-1.2974,-1.2509,-1.1853,-1.0901,-1.017,-1.017,-0.9608,-0.8874,-0.8113,-0.7988,-0.7839,-0.7391,-0.7341,-0.7163,-0.6736,-0.6589,-0.6512,-0.6412,-0.6412,-0.6412,-0.6412,-0.6412,-0.6412,-0.6412,-0.6412,-0.6433,-0.6477,-0.6433,-0.6433,-0.6477,-0.6433,-0.6412,-0.6412,-0.6412,-0.6412]},{"header":{"parameterUnit":"m.s-1","parameterCategory":1,"la1":30.6,"la2":29.2853,"lo1":-89.7004,"lo2":-87.6739,"dy":0.0162,"dx":0.0183,"nx":112,"ny":82,"refTime":"2023-05-27T12:00:00:Z","depth":0,"parameterNumber":3,"parameterNumberName":"V-component_of_WINDS"},"data":[0.0,0.0,0.0,0.0,0.0,0.0,0.0,0.0,0.0,0.0,0.0,0.0,0.0,0.0,0.0,0.0,0.0,0.0,0.0,0.0,0.0,0.0,0.0,0.0,0.0,0.0,0.0,0.0,0.0,0.0,0.0,0.0,0.0,0.0,0.0,0.0,0.0,0.0,0.0,0.0,0.0,0.0,0.0,0.0,0.0,0.0,0.0,0.0,0.0,0.0,0.0,0.0,0.0,0.0,0.0,0.0,0.0,0.0,0.0,0.0,0.0,0.0,0.0,0.0,0.0,0.0,0.0,0.0,0.0,0.0,0.0,0.0,0.0,0.0,0.0,0.0,0.0,0.0,0.0,0.0,0.0,0.0,0.0,0.0,0.0,0.0,0.0,0.0,0.0,0.0,2.6332,2.7465,2.9511,3.0798,3.0798,3.08,2.9394,2.6114,0.0,0.0,0.0,0.0,0.0,0.0,0.0,0.0,0.0,0.0,0.0,0.0,0.0,0.0,0.0,0.0,0.0,0.0,0.0,0.0,0.0,0.0,0.0,0.0,0.0,0.0,0.0,0.0,0.0,0.0,0.0,0.0,0.0,0.0,0.0,0.0,0.0,0.0,0.0,0.0,0.0,0.0,0.0,0.0,0.0,0.0,0.0,0.0,0.0,0.0,0.0,0.0,0.0,0.0,0.0,0.0,0.0,0.0,0.0,0.0,0.0,0.0,0.0,0.0,0.0,0.0,0.0,0.0,0.0,0.0,0.0,0.0,0.0,0.0,0.0,0.0,0.0,0.0,0.0,0.0,0.0,0.0,0.0,0.0,0.0,0.0,0.0,0.0,0.0,0.0,0.0,0.0,0.0,0.0,0.0,0.0,0.0,0.0,0.0,0.0,0.0,0.0,0.0,0.0,2.7679,2.9981,3.0576,3.0802,3.0802,3.0794,2.9664,2.6975,0.0,0.0,0.0,0.0,0.0,0.0,0.0,0.0,0.0,0.0,0.0,0.0,0.0,0.0,0.0,0.0,0.0,0.0,0.0,0.0,0.0,0.0,0.0,0.0,0.0,0.0,0.0,0.0,0.0,0.0,0.0,0.0,0.0,0.0,0.0,0.0,0.0,0.0,0.0,0.0,0.0,0.0,0.0,0.0,0.0,0.0,0.0,0.0,0.0,0.0,0.0,0.0,0.0,0.0,0.0,0.0,0.0,0.0,0.0,0.0,0.0,0.0,0.0,0.0,0.0,0.0,0.0,0.0,0.0,0.0,0.0,0.0,0.0,0.0,0.0,0.0,0.0,0.0,0.0,0.0,0.0,0.0,0.0,0.0,0.0,0.0,0.0,0.0,0.0,0.0,0.0,0.0,0.0,0.0,0.0,0.0,0.0,0.0,0.0,0.0,0.0,0.0,0.0,2.6679,2.8496,3.0576,3.0791,3.0792,3.0792,3.0797,2.9705,2.7162,2.6622,0.0,0.0,0.0,0.0,0.0,0.0,0.0,0.0,0.0,0.0,0.0,0.0,0.0,0.0,0.0,0.0,0.0,0.0,0.0,0.0,0.0,0.0,0.0,0.0,0.0,0.0,0.0,0.0,0.0,0.0,0.0,0.0,0.0,0.0,0.0,0.0,0.0,0.0,0.0,0.0,0.0,0.0,0.0,0.0,0.0,0.0,0.0,0.0,0.0,0.0,0.0,0.0,0.0,0.0,0.0,0.0,0.0,0.0,0.0,0.0,0.0,0.0,0.0,0.0,0.0,0.0,0.0,0.0,0.0,0.0,0.0,0.0,0.0,0.0,0.0,0.0,0.0,0.0,0.0,0.0,0.0,0.0,0.0,0.0,0.0,0.0,0.0,0.0,0.0,0.0,0.0,0.0,0.0,0.0,0.0,0.0,0.0,0.0,0.0,0.0,0.0,0.0,2.8228,2.9382,3.0663,3.0805,3.0792,3.0796,3.0799,2.9785,2.7421,2.7307,0.0,0.0,0.0,0.0,0.0,0.0,0.0,0.0,0.0,0.0,0.0,0.0,0.0,0.0,0.0,0.0,0.0,0.0,0.0,0.0,0.0,0.0,0.0,0.0,0.0,0.0,0.0,0.0,0.0,0.0,0.0,0.0,0.0,0.0,0.0,0.0,0.0,0.0,0.0,0.0,0.0,0.0,0.0,0.0,0.0,0.0,0.0,0.0,0.0,0.0,0.0,0.0,0.0,0.0,0.0,0.0,0.0,0.0,0.0,0.0,0.0,0.0,0.0,0.0,0.0,0.0,0.0,0.0,0.0,0.0,0.0,0.0,0.0,0.0,0.0,0.0,0.0,0.0,0.0,0.0,0.0,0.0,0.0,0.0,0.0,0.0,0.0,0.0,0.0,0.0,0.0,0.0,0.0,0.0,0.0,0.0,0.0,0.0,0.0,0.0,0.0,0.0,2.9571,3.0678,3.0797,3.08,3.0796,3.0798,3.0794,3.0035,2.8225,2.8179,0.0,0.0,0.0,0.0,0.0,0.0,0.0,0.0,0.0,0.0,0.0,0.0,0.0,0.0,0.0,0.0,0.0,0.0,0.0,0.0,0.0,0.0,0.0,0.0,0.0,0.0,0.0,0.0,0.0,0.0,0.0,0.0,0.0,0.0,0.0,0.0,0.0,0.0,0.0,0.0,0.0,0.0,0.0,0.0,0.0,0.0,0.0,0.0,0.0,0.0,0.0,0.0,0.0,0.0,0.0,0.0,0.0,0.0,0.0,0.0,0.0,0.0,0.0,0.0,0.0,0.0,0.0,0.0,0.0,0.0,0.0,0.0,0.0,0.0,0.0,0.0,0.0,0.0,0.0,0.0,0.0,0.0,0.0,0.0,0.0,0.0,0.0,0.0,0.0,0.0,0.0,0.0,0.0,0.0,0.0,0.0,0.0,0.0,0.0,0.0,0.0,0.0,2.9246,3.0201,3.0737,3.0802,3.0794,3.0792,3.0798,3.0076,2.8374,0.0,0.0,0.0,0.0,0.0,0.0,0.0,0.0,0.0,0.0,0.0,0.0,0.0,0.0,0.0,0.0,0.0,0.0,0.0,0.0,0.0,0.0,0.0,0.0,0.0,0.0,0.0,0.0,0.0,0.0,0.0,0.0,0.0,0.0,0.0,0.0,0.0,0.0,0.0,0.0,0.0,0.0,0.0,0.0,0.0,0.0,0.0,0.0,0.0,0.0,0.0,0.0,0.0,0.0,0.0,0.0,0.0,0.0,0.0,0.0,0.0,0.0,0.0,0.0,0.0,0.0,0.0,0.0,0.0,0.0,0.0,0.0,0.0,0.0,0.0,0.0,0.0,0.0,0.0,0.0,0.0,0.0,0.0,0.0,0.0,0.0,0.0,0.0,0.0,0.0,0.0,0.0,0.0,0.0,0.0,0.0,0.0,0.0,0.0,0.0,0.0,0.0,2.8051,2.9174,3.0129,3.0722,3.0798,3.0798,3.0799,3.0801,3.0079,2.842,0.0,0.0,0.0,0.0,0.0,0.0,0.0,0.0,0.0,0.0,0.0,0.0,0.0,0.0,0.0,0.0,0.0,0.0,0.0,0.0,0.0,0.0,0.0,0.0,0.0,0.0,0.0,0.0,0.0,0.0,0.0,0.0,0.0,0.0,0.0,0.0,0.0,0.0,0.0,0.0,0.0,0.0,0.0,0.0,0.0,0.0,0.0,0.0,0.0,0.0,0.0,0.0,0.0,0.0,0.0,0.0,0.0,0.0,0.0,0.0,0.0,0.0,0.0,0.0,0.0,0.0,0.0,0.0,0.0,0.0,0.0,0.0,0.0,0.0,0.0,0.0,0.0,0.0,0.0,0.0,0.0,0.0,0.0,0.0,0.0,0.0,0.0,0.0,0.0,0.0,0.0,0.0,0.0,0.0,0.0,0.0,0.0,0.0,0.0,0.0,0.0,0.0,2.8207,2.9665,3.0732,3.0798,3.08,3.0801,3.0798,3.08,3.0079,0.0,0.0,0.0,0.0,0.0,0.0,0.0,0.0,0.0,0.0,0.0,0.0,0.0,0.0,0.0,0.0,0.0,0.0,0.0,0.0,0.0,0.0,0.0,0.0,0.0,0.0,0.0,0.0,0.0,0.0,0.0,0.0,0.0,0.0,0.0,0.0,0.0,0.0,0.0,0.0,0.0,0.0,0.0,0.0,0.0,0.0,0.0,0.0,0.0,0.0,0.0,0.0,0.0,0.0,0.0,0.0,0.0,0.0,0.0,0.0,0.0,0.0,0.0,0.0,0.0,0.0,0.0,0.0,0.0,0.0,0.0,0.0,0.0,0.0,0.0,0.0,0.0,0.0,0.0,0.0,0.0,0.0,0.0,0.0,0.0,0.0,0.0,0.0,0.0,0.0,0.0,0.0,0.0,0.0,0.0,0.0,0.0,0.0,0.0,0.0,0.0,0.0,0.0,2.8205,2.9666,3.0701,3.0731,3.0734,3.0757,3.0803,3.0806,3.0088,2.8419,0.0,0.0,0.0,0.0,0.0,0.0,0.0,0.0,0.0,0.0,0.0,0.0,0.0,0.0,0.0,0.0,0.0,0.0,0.0,0.0,0.0,0.0,0.0,0.0,0.0,0.0,0.0,0.0,0.0,0.0,0.0,0.0,0.0,0.0,0.0,0.0,0.0,0.0,0.0,0.0,0.0,0.0,0.0,0.0,0.0,0.0,0.0,0.0,0.0,0.0,0.0,0.0,0.0,0.0,0.0,0.0,0.0,0.0,0.0,0.0,0.0,0.0,0.0,0.0,0.0,0.0,0.0,0.0,0.0,0.0,0.0,0.0,0.0,0.0,0.0,0.0,0.0,0.0,0.0,0.0,0.0,0.0,0.0,0.0,0.0,0.0,0.0,0.0,0.0,0.0,0.0,0.0,0.0,0.0,0.0,0.0,0.0,0.0,0.0,0.0,0.0,0.0,2.8729,3.0493,3.1734,3.1747,3.1731,3.1752,3.1794,3.1797,3.1085,2.9405,0.0,0.0,0.0,0.0,0.0,0.0,0.0,0.0,0.0,0.0,0.0,0.0,0.0,0.0,0.0,0.0,0.0,0.0,0.0,0.0,0.0,0.0,0.0,0.0,0.0,0.0,0.0,0.0,0.0,0.0,0.0,0.0,0.0,0.0,0.0,0.0,0.0,0.0,0.0,0.0,0.0,0.0,0.0,0.0,0.0,0.0,0.0,0.0,0.0,0.0,0.0,0.0,0.0,0.0,0.0,0.0,0.0,0.0,0.0,0.0,0.0,0.0,0.0,0.0,0.0,0.0,0.0,0.0,0.0,0.0,0.0,0.0,0.0,0.0,0.0,0.0,0.0,0.0,0.0,0.0,0.0,0.0,0.0,0.0,0.0,0.0,0.0,0.0,0.0,0.0,0.0,0.0,0.0,0.0,0.0,0.0,0.0,0.0,0.0,0.0,0.0,0.0,2.9508,3.1717,3.3304,3.3295,3.3299,3.3292,3.3305,3.3291,3.2622,3.1026,0.0,0.0,0.0,0.0,0.0,0.0,0.0,0.0,0.0,0.0,0.0,0.0,0.0,0.0,0.0,0.0,0.0,0.0,0.0,0.0,0.0,0.0,0.0,0.0,0.0,0.0,0.0,0.0,0.0,0.0,0.0,0.0,0.0,0.0,0.0,0.0,0.0,0.0,0.0,0.0,0.0,0.0,0.0,0.0,0.0,0.0,0.0,0.0,0.0,0.0,0.0,0.0,0.0,0.0,0.0,0.0,0.0,0.0,0.0,0.0,3.0597,2.974,0.0,0.0,0.0,0.0,0.0,0.0,0.0,0.0,0.0,0.0,0.0,0.0,0.0,0.0,0.0,0.0,0.0,0.0,0.0,0.0,0.0,0.0,0.0,0.0,0.0,0.0,0.0,0.0,0.0,0.0,0.0,0.0,0.0,0.0,0.0,0.0,0.0,0.0,0.0,0.0,2.9508,3.1717,3.3295,3.3303,3.3304,3.3299,3.3292,3.3302,3.288,3.1887,3.1649,0.0,0.0,0.0,0.0,0.0,0.0,0.0,0.0,0.0,0.0,0.0,0.0,0.0,0.0,0.0,0.0,0.0,0.0,0.0,0.0,0.0,0.0,0.0,0.0,0.0,0.0,0.0,0.0,0.0,0.0,0.0,0.0,0.0,0.0,0.0,0.0,0.0,0.0,0.0,0.0,0.0,0.0,0.0,0.0,0.0,0.0,0.0,0.0,0.0,0.0,0.0,0.0,0.0,0.0,0.0,0.0,0.0,0.0,0.0,3.2344,3.1904,0.0,0.0,0.0,0.0,0.0,0.0,0.0,0.0,0.0,0.0,0.0,0.0,0.0,0.0,0.0,0.0,0.0,0.0,0.0,0.0,0.0,0.0,0.0,0.0,0.0,0.0,0.0,0.0,0.0,0.0,0.0,0.0,0.0,0.0,0.0,0.0,0.0,0.0,0.0,0.0,3.0659,3.2932,3.4495,3.4495,3.4495,3.4503,3.4501,3.4523,3.4184,3.3351,3.2946,0.0,0.0,0.0,0.0,0.0,0.0,0.0,0.0,0.0,0.0,0.0,0.0,0.0,0.0,0.0,0.0,0.0,0.0,0.0,0.0,0.0,0.0,0.0,0.0,0.0,0.0,0.0,0.0,0.0,0.0,0.0,0.0,0.0,0.0,0.0,0.0,0.0,0.0,0.0,0.0,0.0,0.0,0.0,0.0,0.0,0.0,0.0,0.0,0.0,0.0,0.0,0.0,0.0,3.3015,3.3072,3.3072,3.3072,3.3489,3.4143,3.3448,3.3456,3.3895,3.2516,0.0,0.0,0.0,0.0,0.0,0.0,0.0,0.0,0.0,0.0,0.0,0.0,0.0,0.0,0.0,0.0,0.0,0.0,0.0,0.0,0.0,0.0,3.3552,3.2836,3.3213,3.3359,3.1962,0.0,0.0,0.0,0.0,0.0,0.0,0.0,0.0,0.0,0.0,0.0,3.2117,3.432,3.5795,3.5795,3.5795,3.5795,3.5795,3.5857,3.5582,3.4869,3.4195,3.3379,0.0,0.0,0.0,0.0,0.0,0.0,0.0,0.0,0.0,0.0,0.0,0.0,0.0,0.0,0.0,0.0,0.0,0.0,0.0,0.0,0.0,0.0,0.0,0.0,0.0,0.0,0.0,0.0,0.0,0.0,0.0,0.0,3.2625,3.2565,0.0,0.0,0.0,0.0,0.0,0.0,0.0,0.0,0.0,0.0,0.0,0.0,0.0,3.232,3.2434,3.3191,3.3561,3.358,3.4281,3.4604,3.4604,3.4604,3.4745,3.4947,3.4904,0.0,3.3972,3.3761,0.0,0.0,0.0,0.0,0.0,0.0,0.0,0.0,0.0,0.0,0.0,0.0,0.0,0.0,0.0,0.0,0.0,0.0,0.0,0.0,0.0,0.0,3.5434,3.5321,3.5397,3.5414,3.5185,3.286,3.0735,3.0505,3.0466,3.0156,0.0,0.0,0.0,0.0,0.0,0.0,3.301,3.4692,3.5795,3.5795,3.5795,3.5795,3.5795,3.5857,3.5858,3.5732,3.562,3.4862,3.3299,3.3026,0.0,0.0,0.0,0.0,0.0,0.0,0.0,0.0,0.0,0.0,0.0,0.0,0.0,0.0,0.0,0.0,0.0,0.0,0.0,0.0,0.0,0.0,0.0,0.0,0.0,0.0,0.0,0.0,0.0,3.1814,3.2015,3.2015,3.1691,3.1274,0.0,0.0,0.0,0.0,0.0,0.0,0.0,0.0,0.0,3.3094,3.3132,3.334,3.3795,3.4183,3.4377,3.4377,3.4737,3.4908,3.4908,3.4908,3.4931,3.4997,3.5018,3.4826,3.4488,3.4254,3.3693,3.2919,0.0,0.0,0.0,0.0,3.2561,3.2736,3.3613,3.3947,3.3917,3.3526,0.0,0.0,0.0,0.0,0.0,0.0,0.0,3.2922,3.3761,3.4517,3.5197,3.5678,3.5795,3.5795,3.5795,3.4653,3.3336,3.2384,3.1414,3.0484,2.9641,2.9916,0.0,0.0,0.0,3.3023,3.3863,3.5049,3.5795,3.5795,3.5795,3.5795,3.5795,3.5857,3.5896,3.5908,3.5946,3.5633,3.4899,3.3923,3.2694,0.0,0.0,0.0,0.0,0.0,0.0,0.0,0.0,0.0,0.0,0.0,0.0,0.0,0.0,0.0,0.0,0.0,0.0,0.0,0.0,0.0,0.0,0.0,0.0,0.0,0.0,0.0,0.0,3.1809,3.1951,3.1821,3.1958,3.1733,0.0,0.0,0.0,0.0,0.0,0.0,3.267,3.2684,3.3062,3.3904,3.3923,3.4225,3.4812,3.4812,3.4812,3.4812,3.4812,3.4812,3.4812,3.4812,3.4845,3.4874,3.4889,3.4898,3.4879,3.4588,3.4274,3.3948,3.3474,3.3149,3.2984,3.3279,3.3415,3.3574,3.447,3.4792,3.481,3.4577,3.4363,3.4111,3.372,0.0,0.0,0.0,0.0,3.3798,3.4616,3.483,3.5002,3.5641,3.5795,3.5795,3.5795,3.5465,3.4911,3.4102,3.2898,3.1738,3.0924,3.1318,0.0,3.1678,3.2785,3.3904,3.4734,3.5408,3.5795,3.5795,3.5795,3.5795,3.5795,3.5854,3.5888,3.5897,3.594,3.5962,3.5967,3.4741,3.3865,3.3416,0.0,0.0,0.0,0.0,0.0,0.0,0.0,0.0,0.0,0.0,0.0,0.0,0.0,0.0,0.0,0.0,0.0,0.0,0.0,0.0,0.0,0.0,0.0,0.0,0.0,0.0,0.0,0.0,0.0,3.2726,3.3202,0.0,0.0,0.0,0.0,3.2346,3.238,3.2703,3.3416,3.3449,3.3781,3.4535,3.4548,3.4567,3.4604,3.4623,3.4623,3.4623,3.4623,3.4623,3.4623,3.4623,3.4682,3.4809,3.4875,3.4893,3.4894,3.4879,3.441,3.3739,3.3966,3.3542,3.2947,3.4039,3.4435,3.4554,3.5424,3.5734,3.5603,3.4771,3.3975,3.3507,3.4227,3.3917,0.0,0.0,3.4441,3.4635,3.5505,3.5736,3.5756,3.5795,3.5795,3.5795,3.5795,3.4554,3.3876,3.5371,3.5603,3.5274,3.4406,0.0,3.4309,3.4309,3.4387,3.4754,3.5622,3.5775,3.5795,3.5795,3.5795,3.5795,3.5795,3.5799,3.5821,3.5901,3.5897,3.5904,3.5908,3.5886,3.5094,3.3435,3.3318,0.0,0.0,0.0,0.0,0.0,0.0,0.0,0.0,0.0,0.0,0.0,0.0,0.0,0.0,0.0,0.0,0.0,0.0,0.0,0.0,0.0,0.0,0.0,0.0,0.0,0.0,0.0,0.0,3.2594,3.3215,0.0,3.2542,3.2864,3.311,3.311,3.3542,3.3925,3.4196,3.4209,3.4325,3.4588,3.4607,3.4607,3.4607,3.4607,3.4607,3.4607,3.4735,3.4801,3.4806,3.4875,3.4903,3.4879,3.4894,3.4831,3.471,3.471,3.4675,3.4615,3.4745,3.4705,3.4586,3.4986,3.5195,3.5327,3.5635,3.5762,3.5754,3.5446,3.5105,3.4902,3.5247,3.5105,3.4902,3.5247,3.5318,3.5346,3.5654,3.5732,3.5756,3.5791,3.5793,3.5797,3.5793,3.5329,3.5098,3.5678,3.4923,3.4264,3.4461,3.4964,3.5158,3.4577,3.4983,3.5447,3.5756,3.5795,3.5795,3.5795,3.5795,3.5795,3.5795,3.5842,3.5866,3.5901,3.5892,3.5898,3.5907,3.5964,3.5719,3.5094,3.5075,3.367,0.0,0.0,0.0,0.0,0.0,0.0,0.0,0.0,0.0,0.0,0.0,0.0,0.0,0.0,0.0,0.0,0.0,0.0,0.0,0.0,0.0,0.0,0.0,0.0,0.0,3.2804,3.3327,3.2508,3.3356,3.379,3.3233,3.3854,3.4425,3.4689,3.5171,3.5433,3.5433,3.5433,3.5433,3.5433,3.5433,3.5433,3.5433,3.5433,3.5433,3.5458,3.5647,3.5732,3.5761,3.592,3.5923,3.5845,3.5845,3.5776,3.5649,3.5649,3.5785,3.5925,3.5332,3.5253,3.5463,3.5495,3.5574,3.5706,3.5706,3.5737,3.577,3.577,3.574,3.5708,3.5744,3.574,3.5711,3.5747,3.574,3.5706,3.5706,3.5706,3.5711,3.5766,3.577,3.5773,3.5769,3.5778,3.5804,3.5804,3.4897,3.4303,3.4847,3.5428,3.5505,3.4635,3.5233,3.5698,3.5408,3.5622,3.5795,3.5795,3.5795,3.5795,3.5795,3.5583,3.5581,3.5841,3.5611,3.5583,3.5896,3.5408,3.5128,3.5114,3.5114,3.4139,3.2112,0.0,0.0,0.0,0.0,0.0,0.0,0.0,0.0,0.0,0.0,0.0,0.0,0.0,0.0,0.0,0.0,0.0,0.0,0.0,0.0,0.0,0.0,0.0,3.284,3.3152,3.3355,3.2622,3.3814,3.4701,3.4771,3.5483,3.6254,3.7029,3.711,3.711,3.711,3.711,3.711,3.711,3.711,3.711,3.711,3.711,3.711,3.7091,3.7308,3.7402,3.7417,3.7615,3.7706,3.7706,3.7706,3.7702,3.7698,3.7698,3.7702,3.7536,3.5706,3.5191,3.549,3.5521,3.5613,3.5704,3.5706,3.5706,3.5704,3.5706,3.5704,3.5704,3.5706,3.5704,3.5704,3.5706,3.5704,3.5704,3.5704,3.5704,3.5704,3.5706,3.5706,3.5706,3.5706,3.5744,3.5799,3.5799,3.5797,3.5793,3.5795,3.5795,3.5505,3.4674,3.5253,0.0,3.4655,3.5272,3.5795,3.5756,3.5756,3.5756,3.5717,3.5014,3.4883,3.5661,3.499,3.495,3.5772,3.4295,3.3457,3.3474,3.3435,3.3829,3.4695,0.0,0.0,0.0,0.0,0.0,0.0,0.0,0.0,0.0,0.0,0.0,0.0,0.0,0.0,0.0,0.0,0.0,0.0,0.0,0.0,0.0,3.5323,3.5801,3.5119,3.5644,3.6033,3.5829,3.6162,3.6421,3.6449,3.6633,3.686,3.7086,3.711,3.711,3.711,3.711,3.711,3.711,3.711,3.711,3.711,3.711,3.711,3.7091,3.7243,3.7394,3.755,3.7745,3.7851,3.7847,3.7847,3.7785,3.7698,3.7698,3.7769,3.7775,3.7162,3.7056,3.7132,3.658,3.6089,3.5692,3.5693,3.5705,3.5692,3.5693,3.5705,3.5694,3.5693,3.5705,3.5694,3.5693,3.5705,3.5709,3.5709,3.5709,3.5694,3.5693,3.5698,3.5703,3.5704,3.5711,3.5735,3.5735,3.5722,3.5736,3.5791,3.5795,3.5717,3.5486,3.5641,3.5717,3.5467,3.5639,3.5564,3.4925,3.4866,3.4614,3.4031,3.3788,3.3749,3.3973,3.3785,3.3763,3.4,3.4222,3.4632,3.527,3.404,3.3829,0.0,0.0,0.0,0.0,0.0,0.0,0.0,0.0,0.0,0.0,0.0,0.0,0.0,0.0,0.0,0.0,0.0,0.0,0.0,0.0,0.0,0.0,3.6982,3.7547,3.7489,3.7253,3.711,3.711,3.711,3.7223,3.7574,3.7611,3.775,3.8076,3.8114,3.8083,3.8059,3.8059,3.8059,3.8059,3.8059,3.8059,3.8059,3.8059,3.8059,3.8059,3.8265,3.8448,3.8659,3.888,3.9044,3.9118,3.9118,3.9073,3.9,3.9,3.9048,3.9021,0.0,0.0,0.0,0.0,3.7073,3.6751,3.6745,3.6743,3.6751,3.6748,3.6743,3.6674,3.6303,3.6201,3.6132,3.5783,3.5698,3.5706,3.5706,3.5706,3.569,3.5706,3.5692,3.5694,3.5691,3.5703,3.5691,3.5691,3.5699,0.0,3.5743,3.5776,3.5689,3.5311,3.5564,3.5678,3.5292,3.5564,3.5603,3.51,3.5041,3.4866,3.4398,3.4045,0.0,0.0,0.0,3.3517,3.2786,3.2953,0.0,0.0,0.0,3.3106,3.4692,3.3676,0.0,0.0,3.2219,3.1305,0.0,0.0,0.0,0.0,0.0,0.0,0.0,0.0,0.0,0.0,0.0,0.0,0.0,0.0,0.0,0.0,3.9104,3.9571,3.9501,3.8271,3.7356,3.7386,3.738,3.7656,3.8376,3.8426,3.8721,3.9432,3.9489,3.9463,3.9405,3.9405,0.0,0.0,0.0,3.9405,3.9405,3.9405,3.9405,3.9405,3.9643,3.9857,4.0042,4.0289,4.0527,4.0746,4.0742,4.0775,4.0794,4.079,4.079,4.062,3.8773,3.8169,3.8351,3.8351,3.8273,3.8196,3.8196,0.0,0.0,3.8196,3.8196,3.806,3.7287,3.7055,3.69,3.6187,3.5919,3.5842,3.5842,3.5764,3.5706,3.5706,3.5706,3.5706,3.5706,3.5706,3.5702,3.5702,3.5703,3.5699,3.5701,3.5742,3.5534,3.4763,3.5309,3.5521,3.4752,3.5311,3.5756,3.5659,3.5639,0.0,3.5523,3.4856,3.4763,3.5467,3.4841,3.3803,3.2351,3.1603,3.1294,3.1386,3.1289,3.2382,3.4706,3.4608,3.455,3.4513,3.3076,3.2342,0.0,0.0,0.0,0.0,0.0,0.0,0.0,0.0,0.0,0.0,0.0,0.0,0.0,0.0,0.0,3.822,3.8977,3.9514,3.9495,3.9182,3.8996,3.9107,3.9064,3.9102,3.9252,3.9226,3.925,3.9405,3.9424,3.9418,3.9405,3.9405,3.9405,3.9405,3.9405,3.9405,3.9405,3.9405,3.9405,3.9405,3.9451,0.0,3.969,3.9751,4.0034,4.0465,4.0415,4.0557,4.0794,4.0742,4.0749,4.0752,4.0356,3.9805,3.9249,3.9249,3.8798,3.8196,3.8196,3.8196,3.8196,3.8196,3.8196,3.8176,3.8002,3.7944,0.0,3.7751,3.7209,3.6671,3.6671,3.6187,3.5706,3.5706,3.5706,3.5706,3.5706,3.569,3.5695,3.5695,3.5698,3.5709,3.5693,3.5716,3.5684,3.5573,3.5691,3.5737,3.5562,3.5698,3.5525,3.483,3.4752,3.4497,3.3837,3.3648,3.3612,3.3779,3.3635,3.3728,3.4074,3.4004,3.4279,3.4977,3.4295,3.4198,3.4706,3.3982,3.3658,3.3667,3.4031,3.382,0.0,0.0,0.0,0.0,0.0,0.0,0.0,0.0,0.0,0.0,0.0,3.7211,3.763,0.0,3.8284,3.8721,3.917,3.9437,3.9354,3.9379,3.9412,3.9483,3.9476,3.945,3.945,3.9424,3.9366,3.9308,3.9301,3.9288,3.9261,3.9254,3.9254,3.9254,3.9254,3.9254,3.9254,3.9381,3.9452,3.9452,3.9594,3.9741,3.99,3.9821,4.0058,4.0492,4.0219,4.0332,4.0704,4.07,4.0729,4.0749,4.0787,4.0526,4.0158,4.0158,3.9884,3.9495,3.9495,3.9495,3.9495,3.9495,3.9495,3.9417,3.8972,3.8856,3.876,3.8312,3.7886,3.7558,3.7558,3.6919,3.6303,3.6303,3.5994,3.5706,3.5706,3.5706,3.5706,3.5706,3.5706,3.569,3.5706,3.57,3.5701,3.574,3.5775,3.5806,3.5797,3.5808,3.5622,3.5197,3.5158,3.4983,3.4593,3.4554,3.4554,3.4554,3.4144,3.4114,3.4577,3.422,3.4225,3.4692,3.4271,3.4256,3.4706,3.4256,3.4265,3.4705,3.515,3.4647,0.0,0.0,0.0,0.0,0.0,0.0,0.0,3.6469,3.6558,3.7323,3.7442,3.7636,3.8315,3.8365,3.8537,3.9248,3.936,3.9321,3.9229,3.9288,3.934,3.934,3.9353,3.936,3.936,3.9353,3.9295,3.9183,3.9176,3.9156,3.9108,3.9101,3.9101,3.9101,3.9101,3.9101,3.9101,3.9318,3.9458,3.9495,3.9724,3.9932,4.0115,4.0013,4.0166,4.0503,4.0186,4.0243,4.0604,4.0654,4.069,4.0694,4.0742,4.0755,4.0759,4.079,4.0797,4.0797,4.0797,4.0797,4.0797,4.0797,4.0797,4.0681,3.9965,3.9752,3.9617,3.8895,3.8583,3.8447,3.8447,3.7809,3.7151,3.7151,3.6651,3.6187,3.6187,3.6187,3.6187,3.6187,3.6187,3.6187,3.6187,3.6055,3.5877,3.5711,3.5757,3.579,3.5775,3.5795,3.5808,3.5808,3.5793,3.5795,3.5795,3.5795,3.5795,3.5795,3.5138,3.4775,3.4841,3.419,3.3848,3.3894,3.3732,3.3992,3.4696,3.4521,3.4801,3.5488,3.5488,3.4917,3.5058,3.5302,3.6179,3.6804,3.6926,3.7267,0.0,3.844,3.8109,3.9033,3.9074,3.902,3.923,3.9159,3.9117,3.9217,3.921,3.9229,3.9197,3.9156,3.9129,3.9129,3.9202,3.921,3.921,3.9163,3.9129,3.9115,3.9115,3.9108,3.9101,3.9101,3.9101,3.9101,3.9101,3.9101,3.9101,3.9135,3.9265,3.9508,3.9526,3.9656,3.9851,3.9829,3.9979,4.026,4.0439,4.0557,4.0599,4.06,4.0617,4.0617,4.0621,4.0624,4.0631,4.0752,4.0797,4.0797,4.0797,4.0797,4.0797,4.0797,4.0797,4.0777,4.0681,4.0642,4.0623,4.0542,3.9946,3.9346,3.9346,3.8702,3.806,3.806,3.7983,3.7925,3.7925,3.7925,3.7925,3.7925,3.7925,3.7925,3.7925,3.7287,3.6527,3.5804,3.5715,3.5706,3.5708,3.5751,3.5806,3.5806,3.5804,3.5795,3.5795,3.5795,3.5795,3.5795,3.5717,3.5672,3.5759,3.5667,3.5636,3.5702,3.4941,3.4609,3.4706,3.3923,3.3604,3.3686,3.3686,3.4385,3.6817,3.6657,3.674,3.7533,3.7685,3.7823,3.8565,3.844,3.8403,3.9257,3.9373,3.9308,3.9295,3.9215,3.9156,3.919,3.917,3.9142,3.9142,3.9122,3.9101,3.9101,3.9122,3.9142,3.9142,3.9122,3.9101,3.9101,3.9101,3.9101,3.9101,3.9101,3.9101,3.9101,3.9101,3.9101,3.9101,3.9252,3.9395,3.9495,3.9769,3.9946,4.0037,4.0037,4.0008,3.9994,4.0363,4.0481,4.0379,4.0542,4.0594,4.0598,4.0604,4.0591,4.0617,4.0707,4.0742,4.0746,4.0787,4.0797,4.0797,4.0797,4.0797,4.0797,4.0797,4.0797,4.0797,4.0797,4.0545,4.0255,4.0255,3.9614,3.8956,3.8956,3.8566,3.8196,3.8196,3.8196,3.8196,3.8196,3.8196,3.8196,3.8196,3.7906,3.7541,3.7207,3.6314,3.5693,3.5703,3.5725,3.5766,3.5799,3.581,3.5801,3.5795,3.5795,3.5817,3.5864,3.5867,3.5864,3.5902,3.5895,3.5907,3.5936,3.5625,3.5468,3.5467,3.5095,3.4892,3.4848,3.4848,3.5229,3.772,3.7484,3.7192,3.8021,3.8365,3.8489,3.8527,3.8502,3.8639,3.9229,3.934,3.9288,3.921,3.9149,3.9122,3.9163,3.9135,3.9101,3.9101,3.9101,3.9101,3.9101,3.9101,3.9101,3.9101,3.9101,3.9101,3.9101,3.9101,3.9101,3.9101,3.9101,3.9101,3.9101,3.9101,3.9101,3.9101,3.9292,3.9433,3.9495,3.9835,4.0076,4.0205,4.026,4.0186,4.0004,4.0349,4.0425,4.03,4.0492,4.0573,4.0577,4.0568,4.0563,4.0586,4.0656,4.068,4.0704,4.0781,4.0797,4.0797,4.0797,4.0797,4.0797,4.0797,4.0797,4.0797,4.0797,4.0797,4.0797,4.0797,4.0332,3.9868,3.9868,3.9382,3.8911,3.8911,3.8911,3.8911,3.8911,3.8911,3.8911,3.8911,3.8721,3.8566,3.8566,3.7326,3.6295,3.6062,3.5834,3.5728,3.5799,3.5801,3.5791,3.5793,3.5795,3.5832,3.5906,3.591,3.5899,3.5905,3.5893,3.5917,3.5937,3.5976,3.5992,3.6009,3.5988,3.5958,3.5894,3.5891,3.5897,3.6793,3.7029,3.7203,3.8076,3.8883,3.9438,3.938,3.9264,3.9185,3.9204,3.9156,3.9129,3.919,3.9149,3.9101,3.9108,3.9101,3.9101,3.9101,3.9101,3.9101,3.9101,3.9101,3.9101,3.9101,3.9101,3.9101,3.9101,3.9101,3.9101,3.9101,3.9101,3.9101,3.9101,3.9101,3.9101,3.9101,3.9115,3.9239,3.9508,3.9508,3.9753,4.021,4.0393,4.0485,4.0481,4.0492,4.0492,4.0489,4.0496,4.0496,4.0496,4.05,4.05,4.0504,4.0577,4.0639,4.0704,4.0781,4.0797,4.0797,4.0797,4.0797,4.0797,4.0797,4.0797,4.0797,4.0797,4.0797,4.0797,4.0797,4.0777,4.0758,4.0758,4.0736,4.0716,4.0716,4.0716,4.0716,4.0716,4.0716,4.0716,4.0716,4.0023,3.9462,3.9462,3.8702,3.7828,3.698,3.6173,3.5728,3.5797,3.5801,3.5791,3.5793,3.5795,3.5832,3.5906,3.591,3.5894,3.5898,3.5898,3.5935,3.5995,3.6006,3.6002,3.6002,3.5923,3.5892,3.589,3.5898,3.589,3.7505,3.7704,3.7865,3.8687,3.9071,3.9236,3.9256,3.9236,3.9197,3.9197,3.8755,3.8363,3.8343,3.8323,3.8309,3.8309,3.8748,3.9101,3.9101,3.9101,3.9101,3.9101,3.9101,3.9101,3.9101,3.9101,3.9101,3.9101,3.9101,3.9101,3.9101,3.9101,3.9101,3.9101,3.9101,3.9101,3.9101,3.9101,3.9156,3.9232,3.9402,3.965,3.9943,4.0195,4.03,4.0308,4.0445,4.0496,4.0496,4.0496,4.0496,4.0496,4.0496,4.0496,4.0519,4.0573,4.0603,4.0631,4.0654,4.0668,4.0668,4.0668,4.07,4.0736,4.0736,4.0755,4.0797,4.0797,4.0797,4.0797,4.0797,4.0797,4.0797,4.0797,4.0797,4.0797,4.0797,4.0797,4.0797,4.0797,4.0797,4.0797,4.0797,4.0565,4.0178,3.9597,3.876,3.7886,3.7016,3.6657,3.6292,3.5788,3.5733,3.5749,3.581,3.5793,3.582,3.5892,3.5897,3.5925,3.5968,3.5966,3.5982,3.5992,3.6009,3.6005,3.6,3.5974,3.5967,3.5979,3.5928,3.5903,3.8269,3.8249,3.8204,3.9057,3.9236,3.9209,3.9197,3.9197,3.919,3.917,3.8518,3.7947,3.7907,3.79,3.79,3.79,3.8328,3.8885,3.9472,3.9305,3.9324,3.9918,3.9993,3.9881,3.9591,3.9554,3.9442,3.912,3.9101,3.9101,3.9101,3.9101,3.9101,3.9101,3.9101,3.9101,3.9101,3.9101,3.9101,3.9108,3.9376,3.958,3.9705,3.9957,4.0115,4.0214,4.0334,4.0422,4.0496,4.0496,4.0496,4.0496,4.0496,4.0496,4.0519,4.0542,4.0569,4.0577,4.0593,4.0591,4.0591,4.0591,4.0624,4.0661,4.0661,4.07,4.0723,4.0752,4.0755,4.0778,4.079,4.0797,4.0797,4.0797,4.0797,4.0797,4.0797,4.0797,4.0797,4.0797,4.0797,4.0797,4.0797,4.0797,4.0603,4.0042,3.9498,3.8699,3.7519,3.7364,3.7066,3.6244,3.615,3.6052,3.5785,3.5782,3.5825,3.5906,3.592,3.5956,3.5994,3.5992,3.5992,3.5992,3.5992,3.601,3.6004,3.6001,3.5996,3.5991,3.596,3.5913,3.8972,3.8638,3.8267,3.9166,3.9373,3.9353,3.921,3.919,3.9176,3.9059,3.8395,3.7826,3.7789,3.7807,3.7845,3.7845,3.7919,3.8532,4.0167,3.9684,3.9777,4.1412,4.1597,4.13,4.0538,4.0464,4.0093,3.9231,3.912,3.9101,3.9101,3.9101,3.9101,3.9101,3.9101,3.9101,3.9101,3.9101,3.9101,3.9108,3.9363,3.9489,3.9496,3.9694,3.9922,4.0177,4.0196,4.0308,4.0485,4.0492,4.0496,4.0496,4.0496,4.0496,4.0496,4.0496,4.0496,4.0508,4.0563,4.0588,4.0588,4.0588,4.0607,4.0607,4.0607,4.0591,4.0617,4.0687,4.0697,4.0704,4.0762,4.079,4.0794,4.0794,4.0794,4.0797,4.0797,4.0797,4.0797,4.0797,4.0797,4.0797,4.0797,4.0797,4.0797,4.0797,4.0797,4.0194,3.8486,3.8273,3.7956,3.7152,3.7058,3.6739,3.5895,3.5852,3.5896,3.5957,3.5987,3.5996,3.5994,3.5992,3.5992,3.5992,3.5992,3.5992,3.5992,3.6004,3.6,3.6,3.5991,3.5961,3.9066,3.898,3.8875,3.9119,3.9181,3.9175,3.9129,3.9129,3.8954,3.8328,3.7566,3.6823,3.621,3.66,3.7009,3.7009,3.8005,3.9175,4.0241,4.0204,4.0446,4.1486,4.1597,4.1523,4.1319,4.13,4.0947,4.013,3.9479,3.9101,3.9101,3.9101,3.9101,3.9101,3.9101,3.9101,3.9101,3.9101,3.9101,3.9101,3.9176,3.9198,3.9205,3.9471,3.9609,3.9709,4.0051,4.0233,4.0291,4.0445,4.0496,4.0496,4.0496,4.0496,4.0496,4.0496,4.0496,4.05,4.0519,4.0527,4.0527,4.0527,4.0565,4.0603,4.0603,4.0605,4.0595,4.0621,4.0624,4.0628,4.0657,4.0697,4.0733,4.0733,4.0755,4.0797,4.0797,4.0797,4.0797,4.0797,4.0797,4.0797,4.0797,4.0797,4.0797,4.0797,4.0797,4.0407,3.9304,3.9169,3.8843,3.7992,3.7895,3.779,3.7586,3.7066,3.6776,3.6794,3.6299,3.5996,3.5994,3.5992,3.5992,3.5992,3.5992,3.5992,3.5992,3.599,3.6009,3.6009,3.6,3.5995,3.9101,3.9101,3.9101,3.9101,3.9101,3.9101,3.9101,3.9101,3.8971,3.8525,3.7789,3.7083,3.6637,3.6916,3.7231,3.7231,3.8284,3.9535,4.0743,4.0929,4.1356,4.2519,4.2649,4.25,4.2166,4.2129,4.1783,4.0984,4.0148,3.9498,3.912,3.9101,3.9101,3.9101,3.9101,3.9101,3.9101,3.9101,3.9101,3.9101,3.9101,3.9101,3.9108,3.9259,3.9395,3.9508,3.9769,4.0016,4.0214,4.0321,4.0429,4.0496,4.0496,4.0496,4.0496,4.0496,4.0496,4.0496,4.0496,4.0496,4.0496,4.0496,4.0527,4.0565,4.0565,4.0561,4.0564,4.0598,4.0605,4.0609,4.0607,4.0624,4.0661,4.0694,4.0733,4.0755,4.079,4.0797,4.0797,4.0797,4.0797,4.0797,4.0797,4.0797,4.0797,4.0797,4.0797,4.0623,4.0139,4.0062,3.9733,3.8856,3.876,3.8611,3.8235,3.7856,3.7649,3.7677,3.7309,3.6934,3.6586,3.6561,3.6383,3.6012,3.5992,3.5992,3.5992,3.5992,3.5992,3.5992,3.6007,3.6003,3.9101,3.9101,3.9101,3.9101,3.9101,3.9101,3.9101,3.9101,3.9064,3.8952,3.8402,3.7863,3.777,3.7826,3.79,3.79,3.8681,3.9825,4.1374,4.169,4.2314,4.3819,4.4005,4.3726,4.302,4.2965,4.263,4.182,4.1114,4.0297,3.9324,3.9157,3.9101,3.9101,3.9101,3.9101,3.9101,3.9101,3.9101,3.9101,3.9101,3.9101,3.9101,3.9101,3.9225,3.9458,3.9477,3.9719,4.0105,4.0134,4.0263,4.0461,4.0461,4.0477,4.0496,4.0496,4.0496,4.0496,4.0496,4.0496,4.0496,4.0496,4.0496,4.0496,4.0496,4.0496,4.05,4.0573,4.06,4.0588,4.0589,4.0581,4.0611,4.0664,4.0694,4.0729,4.0787,4.0797,4.0797,4.0797,4.0797,4.0797,4.0797,4.0797,4.0797,4.0797,4.0797,4.0797,4.0797,4.0797,4.0507,3.9752,3.9675,3.9362,3.8602,3.8506,3.8513,3.8572,3.8533,3.8203,3.7509,3.7463,3.7068,3.6187,3.6168,3.6129,3.5992,3.5992,3.5992,3.5992,3.5992,3.6008,3.9101,3.9101,3.9101,3.9101,3.9101,3.9101,3.9101,3.9101,3.8915,3.8247,3.7993,3.7696,3.7027,3.7454,3.79,3.79,3.9182,4.0501,4.1467,4.2166,4.2946,4.3893,4.4005,4.3949,4.3819,4.3782,4.3466,4.2649,4.2463,4.1739,4.026,3.9491,3.9101,3.9101,3.9101,3.9101,3.9101,3.9101,3.9101,3.9101,3.9101,3.9101,3.9101,3.9101,3.9129,3.9178,3.9389,3.9538,3.9621,3.9805,4.0013,4.0255,4.0255,4.0351,4.0496,4.0496,4.0496,4.0496,4.0496,4.0496,4.0496,4.0496,4.0496,4.0496,4.0496,4.0496,4.0496,4.0504,4.0523,4.0527,4.0516,4.0557,4.061,4.0611,4.0661,4.0729,4.0787,4.0797,4.0797,4.0797,4.0797,4.0797,4.0797,4.0797,4.0797,4.0797,4.0797,4.0797,4.0797,4.0797,4.0739,4.0584,4.0565,4.0503,4.0368,3.979,3.9461,3.9472,3.8916,3.8514,3.8386,3.8365,3.7952,3.7087,3.7067,3.6715,3.5992,3.5992,3.5992,3.5992,3.5992,3.5991,3.9101,3.9101,3.9101,3.9101,3.9101,3.9101,3.9101,3.9101,3.899,3.8606,3.8525,3.8414,3.803,3.8265,3.8525,3.8525,3.9925,4.1152,4.156,4.2649,4.3578,4.3949,4.4005,4.4005,4.4005,4.4005,4.3838,4.3448,4.3039,4.2277,4.1096,4.0223,3.9572,3.9101,3.9101,3.9101,3.9101,3.9101,3.9101,3.9101,3.9101,3.9101,3.9101,3.9101,3.9101,3.9115,3.9232,3.9376,3.952,3.9603,3.9778,3.9983,3.9983,4.0134,4.0343,4.0343,4.0421,4.0496,4.0496,4.0496,4.0496,4.0496,4.0496,4.0496,4.0496,4.0496,4.0496,4.0496,4.0496,4.0496,4.0496,4.0527,4.055,4.0591,4.066,4.0704,4.0742,4.0781,4.0797,4.0797,4.0797,4.0797,4.0797,4.0797,4.0797,4.0797,4.0797,4.0797,4.0797,4.0797,4.0797,4.0797,4.0797,4.0797,4.0797,4.0488,4.0302,4.0373,4.0002,3.9643,3.9293,3.9289,3.8875,3.7991,3.7523,3.7091,3.6676,3.6226,3.5992,3.5992,3.5992,3.5992,3.9101,3.9101,3.9101,3.9101,3.9101,3.9101,3.9101,3.9101,3.9101,3.9101,3.9101,3.9101,3.9101,3.9101,3.9101,3.9101,4.0371,4.1393,4.1579,4.2835,4.3819,4.3986,4.4005,4.4005,4.4005,4.4005,4.4005,4.4005,4.341,4.263,4.1653,4.0836,4.0093,3.9398,3.9194,3.9101,3.9101,3.9101,3.9101,3.9101,3.9101,3.9101,3.9101,3.9101,3.9101,3.9101,3.9101,3.9219,3.9402,3.9402,3.9537,3.9745,3.9745,3.9941,4.0205,4.0205,4.0326,4.0496,4.0496,4.0496,4.0496,4.0496,4.0496,4.0496,4.0496,4.0496,4.0496,4.0496,4.0496,4.0496,4.0496,4.0496,4.0527,4.0572,4.0653,4.07,4.0729,4.0755,4.0797,4.0797,4.0797,4.0797,4.0797,4.0797,4.0797,4.0797,4.0797,4.0797,4.0797,4.0797,4.0797,4.0797,4.0797,4.0797,4.0797,4.0802,4.0875,4.0962,4.0952,4.0692,4.0156,4.0154,3.9758,3.8893,3.8211,3.7778,3.7575,3.6696,3.6285,3.6265,3.609,3.5992,3.9101,3.9101,3.9101,3.9101,3.9101,3.9101,3.9101,3.9101,3.9101,3.9101,3.9101,3.9101,3.9101,3.9101,3.9101,3.9101,3.9881,4.0761,4.1505,4.2359,4.3188,4.3912,4.4005,4.4005,4.4005,4.4005,4.4005,4.4005,4.3931,4.3225,4.169,4.0836,4.0353,4.0278,3.951,3.9101,3.9101,3.9101,3.9101,3.9101,3.9101,3.9101,3.9101,3.9101,3.9101,3.9101,3.9101,3.9115,3.9142,3.9142,3.9298,3.9526,3.9526,3.9797,4.0205,4.0205,4.0326,4.0496,4.0496,4.0496,4.0496,4.0496,4.0496,4.0496,4.0496,4.0496,4.0496,4.0496,4.0496,4.0496,4.0496,4.0496,4.0516,4.0589,4.0654,4.0726,4.0781,4.0794,4.0797,4.0797,4.0797,4.0797,4.0797,4.0797,4.0797,4.0797,4.0797,4.0797,4.0797,4.0797,4.0797,4.0797,4.0797,4.0797,4.0797,4.0856,4.0903,4.0919,4.1018,4.1033,4.0906,4.0957,4.0601,3.9792,3.9694,3.9262,3.8474,3.7614,3.7184,3.7165,3.6363,3.5992,3.9101,3.9101,3.9101,3.9101,3.9101,3.9101,3.9101,3.9101,3.9101,3.9101,3.9101,3.9101,3.9101,3.9101,3.9101,3.9101,3.9825,4.0501,4.0836,4.1988,4.2927,4.3243,4.3708,4.4005,4.4005,4.4005,4.4005,4.4005,4.4005,4.3726,4.3076,4.2277,4.1616,4.1133,4.0799,4.0371,3.9888,3.9888,3.9628,3.9101,3.9101,3.9101,3.9101,3.9101,3.9101,3.9101,3.9101,3.9101,3.9101,3.9101,3.9151,3.9259,3.9259,3.9477,3.9769,3.9769,3.992,4.0101,4.0258,4.0317,4.0339,4.0461,4.0496,4.0496,4.0496,4.0496,4.0496,4.0496,4.0496,4.0496,4.0496,4.0496,4.0504,4.0534,4.0589,4.0654,4.0671,4.0746,4.0797,4.0797,4.0797,4.0797,4.0797,4.0797,4.0797,4.0797,4.0797,4.0797,4.0797,4.0797,4.0797,4.0797,4.0797,4.0797,4.0797,4.0822,4.0859,4.0903,4.0957,4.0993,4.1053,4.1084,4.0956,4.062,4.0149,3.9736,3.9379,3.8515,3.8083,3.8063,3.7184,3.6774,3.9101,3.9101,3.9101,3.9101,3.9101,3.9101,3.9101,3.9101,3.9101,3.9101,3.9101,3.9101,3.9101,3.9101,3.9101,0.0,0.0,4.0111,4.0353,4.1374,4.2192,4.2415,4.2946,4.3373,4.3615,4.3856,4.4005,4.4005,4.4005,4.4005,4.4005,4.3466,4.2797,4.198,4.1727,4.1337,4.0761,4.0743,4.0334,3.9472,3.9472,3.9342,3.9101,3.9101,3.9101,3.9101,3.9101,3.9101,3.9101,3.9101,3.9101,3.9101,3.9101,3.9265,3.9508,3.9508,3.9632,3.9824,4.0022,4.0077,4.0129,4.0343,4.0401,4.041,4.0481,4.0496,4.0496,4.0496,4.0496,4.0496,4.0496,4.0496,4.0519,4.0527,4.0572,4.0619,4.0621,4.0704,4.0781,4.0794,4.0797,4.0797,4.0797,4.0797,4.0797,4.0797,4.0797,4.0797,4.0797,4.0797,4.0797,4.0797,4.0797,4.0797,4.0797,4.0797,4.0814,4.0877,4.0891,4.0947,4.1048,4.1065,4.1074,4.1074,4.0508,4.0232,4.0241,3.9397,3.8964,3.8922,3.8083,3.7556,3.9101,3.9101,3.9101,3.9101,3.9101,3.9101,3.9101,3.9101,3.9101,3.9101,3.9101,3.9101,3.9101,3.9101,3.9101,3.9101,3.9101,0.0,4.0278,4.0408,4.0724,4.1523,4.1616,4.195,4.2742,4.3522,4.4005,4.4005,4.4005,4.4005,4.4005,4.3986,4.3615,4.2816,4.2025,4.1597,4.1597,4.1597,4.1189,4.039,4.039,3.9925,3.9101,3.9101,3.9101,3.9101,3.9101,3.9101,3.9101,3.9101,3.9101,3.9101,3.9101,3.9265,3.9508,3.9508,3.9632,3.9803,3.9803,3.9808,3.9845,4.0125,4.021,4.0246,4.0445,4.0496,4.0496,4.0496,4.0496,4.0496,4.0496,4.0496,4.0523,4.0577,4.0607,4.0629,4.0683,4.0697,4.0729,4.0787,4.0797,4.0797,4.0797,4.0797,4.0797,4.0797,4.0797,4.0797,4.0797,4.0797,4.0797,4.0797,4.0797,4.0797,4.0797,4.0797,4.0797,4.0797,4.087,4.0907,4.089,4.0974,4.1008,4.1,4.0982,4.1014,4.1099,4.028,3.9847,3.9761,3.8961,3.8122,3.9101,3.9101,3.9101,3.9101,3.9101,3.9101,3.9101,3.9101,3.9101,3.9101,3.9101,3.9101,3.9101,3.9101,3.9101,3.9101,3.9101,3.9194,3.9479,4.0501,4.1319,4.1579,4.2575,4.3336,4.3596,4.3856,4.4005,4.4005,4.4005,4.4005,4.4005,4.4005,4.3875,4.3633,4.3373,4.2983,4.2426,4.2415,4.2025,4.1207,4.0668,4.026,3.9981,3.9368,3.9101,3.9101,3.9101,3.9101,3.9101,3.9101,3.9101,3.9101,3.9101,3.9144,3.9225,3.9225,3.926,3.9345,3.9531,3.9591,3.9632,3.9859,3.9932,3.9943,3.9994,4.0244,4.0496,4.0496,4.0496,4.0496,4.0496,4.0496,4.0519,4.0531,4.0569,4.0603,4.0637,4.0664,4.0729,4.0787,4.0797,4.0797,4.0797,4.0797,4.0797,4.0797,4.0797,4.0797,4.0797,4.0797,4.0797,4.0797,4.0797,4.0797,4.0797,4.0797,4.0797,4.0797,4.0814,4.0851,4.0905,4.0917,4.0954,4.1007,4.1007,4.1006,4.1033,4.0816,4.0393,3.98,3.9546,3.8981,3.9101,3.9101,3.9101,3.9101,3.9101,3.9101,3.9101,3.9101,3.9101,3.9101,3.9101,3.9101,3.9101,3.9101,3.9101,3.9101,3.9101,3.9212,3.9547,4.0501,4.1263,4.156,4.2742,4.3559,4.3559,4.3819,4.4005,4.4005,4.4005,4.4005,4.4005,4.4005,4.4005,4.4005,4.4005,4.3763,4.3262,4.3243,4.2853,4.2062,4.1542,4.0984,4.0371,3.9851,3.9417,3.9101,3.9101,3.9101,0.0,3.9101,3.9101,3.9101,3.9101,3.9101,3.9101,3.9101,3.9101,3.9129,3.9292,3.9357,3.9383,3.9608,3.975,3.9803,3.9803,4.0072,4.0393,4.0477,4.0496,4.0496,4.0496,4.0496,4.0496,4.0496,4.0531,4.0577,4.0598,4.0637,4.0671,4.0746,4.0784,4.0797,4.0797,4.0797,4.0797,4.0797,4.0797,4.0797,4.0797,4.0797,4.0797,4.0797,4.0797,4.0797,4.0797,4.0797,4.0797,4.0797,4.0797,4.0811,4.0864,4.0867,4.0898,4.0968,4.0967,4.0963,4.0964,4.1035,4.0793,4.0292,4.0289,3.9859,0.0,3.9101,3.9101,3.9101,3.9101,3.9101,3.9101,3.9101,0.0,3.9101,3.9101,3.9101,3.9101,3.9101,3.9101,3.9101,3.9101,3.9398,4.0278,4.0501,4.0854,4.1597,4.2389,4.2853,4.2816,4.3522,4.4005,4.4005,4.4005,4.4005,4.4005,4.4005,4.4005,4.4005,4.4005,4.4005,4.4005,4.4005,4.3615,4.2872,4.2835,4.2025,4.0576,4.0446,3.9963,3.9194,3.912,3.9101,3.9101,3.9101,3.9101,3.9101,3.9101,3.9101,3.9101,3.9101,3.9101,3.9101,3.9101,3.9101,3.9149,3.9395,3.9603,3.9754,3.977,3.9987,4.0242,4.0433,4.0485,4.0496,4.0496,4.0496,4.0496,4.0496,4.0496,4.0523,4.06,4.0598,4.0617,4.069,4.0746,4.079,4.0794,4.0797,4.0797,4.0797,4.0797,4.0797,4.0797,4.0797,4.0797,4.0797,4.0797,4.0797,4.0797,4.0797,4.0797,4.0797,4.0797,4.0797,4.0797,4.0797,4.0831,4.0896,4.0903,4.0906,4.09,4.0959,4.1035,4.1084,4.1097,4.0663,3.9101,0.0,3.9101,3.9101,3.9101,3.9101,0.0,3.9101,3.9101,3.9101,3.9101,3.9101,3.9101,3.9101,3.9101,3.9101,3.9101,3.9398,4.0278,4.1467,4.2314,4.25,4.3225,4.3485,4.2853,4.3522,4.4005,4.4005,4.4005,4.4005,4.4005,4.4005,4.4005,4.4005,4.4005,4.4005,4.4005,4.4005,4.3912,4.3708,4.3095,4.2593,4.2184,4.0966,4.0297,4.0055,3.938,3.9101,3.9101,3.9101,3.9101,3.9101,3.9101,3.9101,3.9101,3.9101,3.9101,3.9101,3.9101,3.9101,3.9115,3.9165,3.9232,3.9305,3.9501,3.9862,4.0214,4.026,4.0377,4.0496,4.0496,4.0496,4.0496,4.0496,4.0496,4.0523,4.06,4.0595,4.0621,4.0687,4.0707,4.0742,4.079,4.0797,4.0797,4.0797,4.0797,4.0797,4.0797,4.0797,4.0797,4.0797,4.0797,4.0797,4.0797,4.0797,4.0797,4.0797,4.0797,4.0797,4.0797,4.0797,4.0809,4.082,4.0868,4.0906,4.09,4.0919,4.0961,4.102,4.1014,4.0937,3.9101,3.9101,3.9101,3.9101,3.9101,3.9101,3.9101,3.9101,3.9101,3.9101,3.9101,3.9101,3.9101,3.9101,3.9101,3.9101,3.9442,4.0,4.0836,4.1709,4.2396,4.276,4.3188,4.3429,4.3355,4.3745,4.4005,4.4005,4.4005,4.4005,4.4005,4.4005,4.4005,4.4005,4.4005,4.4005,4.4005,4.4005,4.4005,4.3986,4.3559,4.315,4.276,4.1895,4.1096,4.0371,3.9907,3.9479,3.9101,3.9101,3.9101,3.9101,3.9101,3.9101,3.9101,3.9101,3.9101,3.9101,3.9101,3.9101,3.9101,3.9101,3.9101,3.9129,3.9272,3.9573,3.9894,3.9997,4.0171,4.036,4.036,4.0437,4.0496,4.0496,4.0496,4.05,4.0558,4.0577,4.0606,4.0647,4.0687,4.071,4.0787,4.0797,4.0797,4.0797,4.0797,4.0797,4.0797,4.0797,4.0797,4.0797,4.0797,4.0797,4.0797,4.0797,4.0797,4.0797,4.0797,4.0797,4.0797,4.0797,4.0797,4.0797,4.0843,4.0876,4.09,4.0871,4.0905,4.1009,4.0994,4.1025,3.9101,3.9101,3.9101,3.9101,3.9101,3.9101,3.9101,3.9101,3.9101,3.9101,3.9101,3.9101,3.9101,3.9101,3.9101,3.9101,3.9925,4.0854,4.1672,4.1887,4.2166,4.2723,4.2909,4.3206,4.3763,4.3931,4.4005,4.4005,4.4005,4.4005,4.4005,4.4005,4.4005,4.4005,4.4005,4.4005,4.4005,4.4005,4.4005,4.4005,4.4005,4.3633,4.2983,4.2853,4.2062,4.0743,4.0501,3.9981,3.9287,3.9157,3.9101,3.9101,3.9101,3.9101,3.9101,3.9101,3.9101,3.9101,3.9101,3.9101,3.9101,3.9101,3.9101,3.9101,3.9101,3.9259,3.9477,3.9654,3.9932,4.0205,4.0205,4.0347,4.0496,4.0496,4.0496,4.0496,4.0496,4.0539,4.0595,4.0604,4.0654,4.0704,4.0787,4.0797,4.0797,4.0797,4.0797,4.0797,4.0797,4.0797,4.0797,4.0797,4.0797,4.0797,4.0797,4.0797,4.0797,4.0797,4.0797,4.0797,4.0797,4.0797,4.0797,4.0797,4.0797,4.0828,4.0883,4.083,4.0854,4.0972,4.0974,4.099,3.9101,3.9101,3.9101,3.9101,3.9101,3.9101,3.9101,3.9101,3.9101,3.9101,3.9101,3.9101,3.9101,3.9101,3.9101,3.9101,4.0401,4.1709,4.25,4.3206,4.3429,4.2872,4.3392,4.3596,4.3039,4.3596,4.4005,4.4005,4.4005,4.4005,4.4005,4.4005,4.4005,4.4005,4.4005,4.4005,4.4005,4.4005,4.4005,4.4005,4.4005,4.3949,4.3782,4.3113,4.2667,4.2359,4.0984,4.0315,4.0148,3.9398,3.9101,3.9101,3.9101,3.9101,3.9101,3.9101,3.9101,3.9101,3.9101,3.9101,3.9101,3.9101,3.9101,3.9101,3.9101,3.9135,3.9176,3.9205,3.9683,4.0205,4.0205,4.0347,4.0496,4.0496,4.0496,4.0496,4.0496,4.0519,4.0527,4.06,4.0617,4.0641,4.0784,4.0797,4.0797,4.0797,4.0797,4.0797,4.0797,4.0797,4.0797,4.0797,4.0797,4.0797,4.0797,4.0797,4.0797,4.0797,4.0797,4.0797,4.0797,4.0797,4.0797,4.0797,4.0797,4.0806,4.0824,4.0811,4.0818,4.0823,4.0896,4.0912,3.9101,3.9101,3.9101,3.9101,3.9101,3.9101,3.9101,3.9101,3.9101,3.9101,3.9101,3.9231,3.9721,3.9788,4.0093,4.0958,4.1374,4.1876,4.2686,4.2742,4.2723,4.2797,4.3132,4.3373,4.3448,4.3782,4.4005,4.4005,4.4005,4.4005,4.4005,4.4005,4.4005,4.4005,4.4005,4.4005,4.4005,4.4005,4.4005,4.4005,4.4005,4.4005,4.3986,4.3615,4.3206,4.276,4.2025,4.1207,4.0371,3.9981,3.951,3.9101,3.9101,3.9101,3.9101,3.9101,3.9101,3.9101,3.9101,3.9101,3.9101,3.9101,3.9101,3.9101,3.9101,3.9101,3.9101,3.9101,3.9439,3.9813,3.9813,4.0091,4.0334,4.0334,4.0429,4.0496,4.0496,4.0496,4.0519,4.0596,4.0591,4.0635,4.0784,4.0797,4.0797,4.0797,4.0797,4.0797,4.0797,4.0797,4.0797,4.0797,4.0797,4.0797,4.0797,4.0797,4.0797,4.0797,4.0797,4.0797,4.0797,4.0797,4.0797,4.0797,4.0797,4.0797,4.0797,4.0797,4.0809,4.0797,4.0828,4.0861,3.9101,3.9101,3.9101,3.9101,3.9101,3.9101,3.9101,3.9101,3.9157,3.9361,3.9398,3.9602,4.0278,4.0408,4.0873,4.2296,4.2166,4.2166,4.2965,4.2556,4.2396,4.3002,4.3076,4.3318,4.3949,4.4005,4.4005,4.4005,4.4005,4.4005,4.4005,4.4005,4.4005,4.4005,4.4005,4.4005,4.4005,4.4005,4.4005,4.4005,4.4005,4.4005,4.4005,4.4005,4.3652,4.3076,4.2872,4.2092,4.0929,4.0557,4.0018,3.938,3.9175,3.9101,3.9101,3.9101,3.9101,3.9101,3.9101,3.9101,3.9101,3.9101,3.9101,3.9101,3.9101,3.9101,3.9101,3.9101,3.9245,3.9427,3.9471,3.9802,4.0125,4.0196,4.0317,4.0449,4.0489,4.0496,4.0516,4.0586,4.0596,4.064,4.0752,4.0781,4.0784,4.0794,4.0797,4.0797,4.0797,4.0797,4.0797,4.0797,4.0797,4.0797,4.0797,4.0797,4.0797,4.0797,4.0797,4.0797,4.0797,4.0797,4.0797,4.0797,4.0797,4.0797,4.0797,4.0797,4.0806,4.0808,4.0794,4.082,3.9101,3.9101,3.9101,3.9101,3.9101,3.9101,3.9101,3.9101,3.9324,4.0148,4.0315,4.0334,4.039,4.0408,4.0687,4.156,4.2259,4.2983,4.3801,4.3856,4.3856,4.3912,4.3912,4.3949,4.3986,4.4005,4.4005,4.4005,4.4005,4.4005,4.4005,4.4005,4.4005,4.4005,4.4005,4.4005,4.4005,4.4005,4.4005,4.4005,4.4005,4.4005,4.4005,4.4005,4.3968,4.3875,4.3113,4.2723,4.25,4.1021,4.0353,4.0223,3.9417,3.9101,3.9101,3.9101,3.9101,3.9101,3.9101,3.9101,3.9101,3.9101,3.9101,3.9101,3.9101,3.9101,3.9101,3.9101,3.9115,3.9197,3.9446,3.9654,3.9882,4.0139,4.0214,4.0273,4.0461,4.0496,4.0527,4.0584,4.0592,4.0617,4.069,4.0704,4.0733,4.079,4.0797,4.0797,4.0797,4.0797,4.0797,4.0797,4.0797,4.0797,4.0797,4.0797,4.0797,4.0797,4.0797,4.0797,4.0797,4.0797,4.0797,4.0797,4.0797,4.0797,4.0797,4.0797,4.0797,4.08,4.0805,4.08,3.9101,3.9101,3.9101,3.9101,3.9101,3.9101,3.9101,3.951,4.0,4.0334,4.0799,4.13,4.1794,4.2303,4.2742,4.3039,4.3355,4.3652,4.3968,4.4005,4.4005,4.4005,4.4005,4.4005,4.4005,4.4005,4.4005,4.4005,4.4005,4.4005,4.4005,4.4005,4.4005,4.4005,4.4005,4.4005,4.4005,4.4005,4.4005,4.4005,4.4005,4.4005,4.4005,4.4005,4.4005,4.3986,4.367,4.3262,4.2742,4.2129,4.13,4.0315,3.9442,3.9101,3.9101,3.9101,3.9101,3.9101,3.9101,3.9101,3.9101,3.9101,3.9101,3.9101,3.9101,3.9101,3.9101,3.9101,3.9101,3.9129,3.9225,3.9421,3.966,3.9896,4.0072,4.026,4.0461,4.0496,4.0527,4.06,4.061,4.0623,4.069,4.0739,4.0778,4.0794,4.0797,4.0797,4.0797,4.0797,4.0797,4.0797,4.0797,4.0797,4.0797,4.0797,4.0797,4.0797,4.0797,4.0797,4.0797,4.0797,4.0797,4.0797,4.0797,4.0797,4.0797,4.0797,4.0797,4.0797,4.0806,4.0799,3.9101,3.9101,3.9101,3.9101,3.9312,3.951,3.951,3.9981,4.0538,4.1059,4.1597,4.2155,4.2705,4.3243,4.3615,4.3615,4.3838,4.4005,4.4005,4.4005,4.4005,4.4005,4.4005,4.4005,4.4005,4.4005,4.4005,4.4005,4.4005,4.4005,4.4005,4.4005,4.4005,4.4005,4.4005,4.4005,4.4005,4.4005,4.4005,4.4005,4.4005,4.4005,4.4005,4.4005,4.4005,4.4005,4.4005,4.3689,4.315,4.289,4.2006,4.0724,4.013,3.9733,3.951,3.951,3.9349,3.9101,3.9101,3.9101,3.9101,3.9101,3.9101,3.9101,3.9101,3.9101,3.9101,3.9101,3.9101,3.9101,3.9101,3.9232,3.9427,3.9648,3.9857,4.0027,4.023,4.0356,4.0425,4.0468,4.0531,4.0604,4.0657,4.0713,4.0781,4.0794,4.0797,4.0797,4.0797,4.0797,4.0797,4.0797,4.0797,4.0797,4.0797,4.0797,4.0797,4.0797,4.0797,4.0797,4.0797,4.0797,4.0797,4.0797,4.0797,4.0797,4.0797,4.0797,4.0797,4.0797,4.0797,4.0806,3.9101,3.9101,3.9101,3.9101,3.9758,4.0408,4.0427,4.0427,4.0873,4.2482,4.2816,4.2816,4.2816,4.2816,4.2816,4.2816,4.3485,4.4005,4.4005,4.4005,4.4005,4.4005,4.4005,4.4005,4.4005,4.4005,4.4005,4.4005,4.4005,4.4005,4.4005,4.4005,4.4005,4.4005,4.4005,4.4005,4.4005,4.4005,4.4005,4.4005,4.4005,4.4005,4.4005,4.4005,4.4005,4.4005,4.4005,4.4005,4.3949,4.3132,4.2341,4.1616,4.1597,4.1114,4.0408,4.0408,3.987,3.912,3.912,3.9101,3.9101,3.9101,3.9101,3.9101,3.9101,3.9101,3.9101,3.9101,3.9101,3.9101,3.9101,3.9108,3.9165,3.9446,3.9495,3.9562,3.9754,4.0017,4.02,4.0205,4.0408,4.0599,4.0604,4.0657,4.071,4.079,4.0794,4.0797,4.0797,4.0797,4.0797,4.0797,4.0797,4.0797,4.0797,4.0797,4.0797,4.0797,4.0797,4.0797,4.0797,4.0797,4.0797,4.0797,4.0797,4.0797,4.0797,4.0797,4.0797,4.0797,4.0797,4.0797,3.9101,3.9101,3.925,3.987,4.0204,4.0706,4.1832,4.2099,4.237,4.3429,4.3633,4.3633,4.3633,4.3633,4.3633,4.3633,4.3838,4.4005,4.4005,4.4005,4.4005,4.4005,4.4005,4.4005,4.4005,4.4005,4.4005,4.4005,4.4005,4.4005,4.4005,4.4005,4.4005,4.4005,4.4005,4.4005,4.4005,4.4005,4.4005,4.4005,4.4005,4.4005,4.4005,4.4005,4.4005,4.4005,4.4005,4.4005,4.3949,4.3132,4.2649,4.2396,4.182,4.1449,4.1244,4.1244,4.1077,4.0773,4.0204,4.0018,3.9907,3.9305,3.9101,3.9101,3.9101,3.9101,3.9101,3.9101,3.9101,3.9101,3.9101,3.9239,3.9408,3.9489,3.9609,3.9739,3.9786,3.9856,3.9968,4.0158,4.0263,4.0374,4.0565,4.066,4.07,4.0733,4.0778,4.0797,4.0797,4.0797,4.0797,4.0797,4.0797,4.0797,4.0797,4.0797,4.0797,4.0797,4.0797,4.0797,4.0797,4.0797,4.0797,4.0797,4.0797,4.0797,4.0797,4.0797,4.0797,4.0797,4.0797,4.0797,3.9101,3.9101,3.9312,4.0185,4.0631,4.13,4.2909,4.328,4.341,4.3893,4.4005,4.4005,4.4005,4.4005,4.4005,4.4005,4.4005,4.4005,4.4005,4.4005,4.4005,4.4005,4.4005,4.4005,4.4005,4.4005,4.4005,4.4005,4.4005,4.4005,4.4005,4.4005,4.4005,4.4005,4.4005,4.4005,4.4005,4.4005,4.4005,4.4005,4.4005,4.4005,4.4005,4.4005,4.4005,4.4005,4.4005,4.4005,4.3968,4.3485,4.328,4.3225,4.2742,4.2359,4.2073,4.2073,4.1876,4.1542,4.104,4.0873,4.0799,4.0253,3.9881,3.9628,3.9628,3.9368,3.9101,3.9101,3.9101,3.9101,3.9101,3.9364,3.9597,3.9514,3.9648,3.9803,3.9803,3.9877,4.0017,4.0163,4.0199,4.0287,4.0558,4.058,4.0612,4.069,4.0752,4.0797,4.0797,4.0797,4.0797,4.0797,4.0797,4.0797,4.0797,4.0797,4.0797,4.0797,4.0797,4.0797,4.0797,4.0797,4.0797,4.0797,4.0797,4.0797,4.0797,4.0797,4.0797,4.0797,4.0797,4.0797,3.9101,3.9101,3.9324,4.0278,4.117,4.2203,4.367,4.4005,4.4005,4.4005,4.4005,4.4005,4.4005,4.4005,4.4005,4.4005,4.4005,4.4005,4.4005,4.4005,4.4005,4.4005,4.4005,4.4005,4.4005,4.4005,4.4005,4.4005,4.4005,4.4005,4.4005,4.4005,4.4005,4.4005,4.4005,4.4005,4.4005,4.4005,4.4005,4.4005,4.4005,4.4005,4.4005,4.4005,4.4005,4.4005,4.4005,4.4005,4.4005,4.4005,4.4005,4.4005,4.4005,4.3559,4.2909,4.2909,4.2452,4.182,4.1727,4.1702,4.1709,4.1616,4.1114,4.0501,4.0501,3.9907,3.9212,3.9212,3.9157,3.9101,3.9101,3.9427,3.9739,3.9544,3.9666,3.9829,3.9808,3.9983,4.0158,4.0158,4.0167,4.0257,4.0512,4.0461,4.0454,4.0677,4.0752,4.0797,4.0797,4.0797,4.0797,4.0797,4.0797,4.0797,4.0797,4.0797,4.0797,4.0797,4.0797,4.0797,4.0797,4.0797,4.0797,4.0797,4.0797,4.0797,4.0797,4.0797,4.0797,4.0797,4.0797,4.0797,3.9101,3.9101,3.9454,4.0966,4.2415,4.3578,4.3912,4.4005,4.4005,4.4005,4.4005,4.4005,4.4005,4.4005,4.4005,4.4005,4.4005,4.4005,4.4005,4.4005,4.4005,4.4005,4.4005,4.4005,4.4005,4.4005,4.4005,4.4005,4.4005,4.4005,4.4005,4.4005,4.4005,4.4005,4.4005,4.4005,4.4005,4.4005,4.4005,4.4005,4.4005,4.4005,4.4005,4.4005,4.4005,4.4005,4.4005,4.4005,4.4005,4.4005,4.4005,4.4005,4.4005,4.3893,4.3745,4.3745,4.3633,4.3392,4.276,4.2537,4.2445,4.182,4.1486,4.1337,4.1337,4.078,4.0111,4.0111,3.9628,3.9101,3.9101,3.9325,3.9556,3.9501,3.9813,4.0057,3.984,3.984,3.9896,3.9896,3.9887,3.9964,4.0246,4.0253,4.0342,4.0647,4.0752,4.0797,4.0797,4.0797,4.0797,4.0797,4.0797,4.0797,4.0797,4.0797,4.0797,4.0797,4.0797,4.0797,4.0797,4.0797,4.0797,4.0797,4.0797,4.0797,4.0797,4.0797,4.0797,4.0797,4.0797,4.0797,3.9101,3.9101,3.9491,4.1181,4.2816,4.4005,4.4005,4.4005,4.4005,4.4005,4.4005,4.4005,4.4005,4.4005,4.4005,4.4005,4.4005,4.4005,4.4005,4.4005,4.4005,4.4005,4.4005,4.4005,4.4005,4.4005,4.4005,4.4005,4.4005,4.4005,4.4005,4.4005,4.4005,4.4005,4.4005,4.4005,4.4005,4.4005,4.4005,4.4005,4.4005,4.4005,4.4005,4.4005,4.4005,4.4005,4.4005,4.4005,4.4005,4.4005,4.4005,4.4005,4.4005,4.4005,4.4005,4.4005,4.4005,4.3949,4.3522,4.3373,4.3318,4.289,4.2482,4.2166,4.2166,4.1616,4.0891,4.0501,4.0074,3.9628,3.9212,3.9305,3.9508,3.9508,3.9764,4.0012,3.9983,3.9983,4.0013,4.0115,4.0053,4.0072,4.0308,4.0374,4.0462,4.068,4.0752,4.0797,4.0797,4.0797,4.0797,4.0797,4.0797,4.0797,4.0797,4.0797,4.0797,4.0797,4.0797,4.0797,4.0797,4.0797,4.0797,4.0797,4.0797,4.0797,4.0797,4.0797,4.0797,4.0797,4.0797,4.0797,3.9163,3.9363,3.9907,4.1252,4.2816,4.4005,4.4005,4.4005,4.4005,4.4005,4.4005,4.4005,4.4005,4.4005,4.4005,4.4005,4.4005,4.4005,4.4005,4.4005,4.4005,4.4005,4.4005,4.4005,4.4005,4.4005,4.4005,4.4005,4.4005,4.4005,4.4005,4.4005,4.4005,4.4005,4.4005,4.4005,4.4005,4.4005,4.4005,4.4005,4.4005,4.4005,4.4005,4.4005,4.4005,4.4005,4.4005,4.4005,4.4005,4.4005,4.4005,4.4005,4.4005,4.4005,4.4005,4.4005,4.4005,4.4005,4.4005,4.4005,4.4005,4.4005,4.3559,4.3002,4.3002,4.2452,4.1672,4.1003,4.0706,4.0446,3.9714,3.9694,3.9864,3.9864,3.9994,4.0124,4.0182,4.0205,4.0251,4.0425,4.0313,4.0255,4.0429,4.0538,4.0614,4.0664,4.0742,4.0787,4.0794,4.0797,4.0797,4.0797,4.0797,4.0797,4.0797,4.0797,4.0797,4.0797,4.0797,4.0797,4.0797,4.0797,4.0797,4.0797,4.0797,4.0797,4.0797,4.0797,4.0797,4.0797,4.0797,4.0797,3.9389,4.0452,4.1535,4.1581,4.2816,4.4005,4.4005,4.4005,4.4005,4.4005,4.4005,4.4005,4.4005,4.4005,4.4005,4.4005,4.4005,4.4005,4.4005,4.4005,4.4005,4.4005,4.4005,4.4005,4.4005,4.4005,4.4005,4.4005,4.4005,4.4005,4.4005,4.4005,4.4005,4.4005,4.4005,4.4005,4.4005,4.4005,4.4005,4.4005,4.4005,4.4005,4.4005,4.4005,4.4005,4.4005,4.4005,4.4005,4.4005,4.4005,4.4005,4.4005,4.4005,4.4005,4.4005,4.4005,4.4005,4.4005,4.4005,4.4005,4.4005,4.4005,4.3931,4.3838,4.3838,4.328,4.2612,4.25,4.198,4.1412,4.13,4.1292,4.1321,4.1321,4.1331,4.1143,4.0361,4.0205,4.0214,4.0237,4.0223,4.0214,4.0242,4.0433,4.0591,4.0611,4.0664,4.0736,4.079,4.0797,4.0797,4.0797,4.0797,4.0797,4.0797,4.0797,4.0797,4.0797,4.0797,4.0797,4.0797,4.0797,4.0797,4.0797,4.0797,4.0797,4.0797,4.0797,4.0797,4.0797,4.0797,4.0797,3.9239,4.0561,4.1856,4.1645,4.2816,4.4005,4.4005,4.4005,4.4005,4.4005,4.4005,4.4005,4.4005,4.4005,4.4005,4.4005,4.4005,4.4005,4.4005,4.4005,4.4005,4.4005,4.4005,4.4005,4.4005,4.4005,4.4005,4.4005,4.4005,4.4005,4.4005,4.4005,4.4005,4.4005,4.4005,4.4005,4.4005,4.4005,4.4005,4.4005,4.4005,4.4005,4.4005,4.4005,4.4005,4.4005,4.4005,4.4005,4.4005,4.4005,4.4005,4.4005,4.4005,4.4005,4.4005,4.4005,4.4005,4.4005,4.4005,4.4005,4.4005,4.4005,4.4005,4.4005,4.4005,4.3745,4.3373,4.2927,4.2556,4.2166,4.1727,4.1597,4.1597,4.1597,4.1597,4.1525,4.1227,4.1156,4.1241,4.1532,4.1718,4.1822,4.1822,4.1554,4.1327,4.1327,4.0972,4.0704,4.0742,4.0781,4.0797,4.0797,4.0797,4.0797,4.0797,4.0797,4.0797,4.0797,4.0797,4.0797,4.0797,4.0797,4.0797,4.0797,4.0797,4.0797,4.0797,4.0797,4.0797,4.0797,4.0797,4.0797,3.9198,4.0425,4.1699,4.1684,4.2742,4.3837,4.3965,4.4005,4.4028,4.4094,4.4098,4.4098,4.4098,4.4041,4.4005,4.4005,4.4005,4.4005,4.4005,4.4005,4.4005,4.4005,4.4005,4.4005,4.4005,4.4005,4.4005,4.4005,4.4005,4.4005,4.4005,4.4005,4.4005,4.4005,4.4005,4.4005,4.4005,4.4005,4.4005,4.4005,4.4005,4.4005,4.4005,4.4005,4.4005,4.4005,4.4005,4.4005,4.4005,4.4005,4.4005,4.4005,4.4005,4.4005,4.4005,4.4005,4.4005,4.4005,4.4005,4.4005,4.4005,4.4005,4.4005,4.4005,4.4005,4.4005,4.3875,4.3262,4.3095,4.2965,4.237,4.2211,4.2211,4.2211,4.2211,4.2154,4.1938,4.1956,4.2139,4.2621,4.2866,4.3026,4.3096,4.2594,4.2194,4.2206,4.151,4.1015,4.1025,4.0907,4.0797,4.0797,4.0797,4.0797,4.0797,4.0797,4.0797,4.0797,4.0797,4.0797,4.0797,4.0797,4.0797,4.0797,4.0797,4.0797,4.0797,4.0797,4.0797,4.0797,4.0797,4.0797,3.9489,4.0292,4.126,4.1762,4.2571,4.3376,4.3881,4.4005,4.4079,4.4325,4.4388,4.4388,4.4388,4.4162,4.4005,4.4005,4.4005,4.4005,4.4005,4.4005,4.4005,4.4005,4.4005,4.4005,4.4005,4.4005,4.4005,4.4005,4.4005,4.4005,4.4005,4.4005,4.4005,4.4005,4.4005,4.4005,4.4005,4.4005,4.4005,4.4005,4.4005,4.4005,4.4005,4.4005,4.4005,4.4005,4.4005,4.4005,4.4005,4.4005,4.4005,4.4005,4.4005,4.4005,4.4005,4.4005,4.4005,4.4005,4.4005,4.4005,4.4005,4.4005,4.4005,4.4005,4.4005,4.4005,4.3986,4.3949,4.3949,4.3931,4.3893,4.3875,4.3875,4.3875,4.3875,4.3513,4.2193,4.2096,4.236,4.2647,4.2703,4.2795,4.3052,4.3066,4.3044,4.305,4.2352,4.1868,4.193,4.1274,4.0797,4.0797,4.0797,4.0797,4.0797,4.0797,4.0797,4.0797,4.0797,4.0797,4.0797,4.0797,4.0797,4.0797,4.0797,4.0797,4.0797,4.0797,4.0797,4.0797,4.0797,4.0797,3.9532,4.0388,4.1308,4.1373,4.229,4.3258,4.3434,4.3895,4.4275,4.4388,4.4533,4.4605,4.4425,4.4318,4.4199,4.4036,4.4005,4.4005,4.4005,4.4005,4.4005,4.4005,4.4005,4.4005,4.4005,4.4005,4.4005,4.4005,4.4005,4.4005,4.4005,4.4005,4.4005,4.4005,4.4005,4.4005,4.4005,4.4005,4.4005,4.4005,4.4005,4.4005,4.4005,4.4005,4.4005,4.4005,4.4005,4.4005,4.4005,4.4005,4.4005,4.4005,4.4005,4.4005,4.4005,4.4005,4.4005,4.4005,4.4005,4.4005,4.4005,4.4005,4.4005,4.4005,4.4005,4.4005,4.4005,4.4005,4.4005,4.4005,4.4005,4.4005,4.4005,4.4005,4.4005,4.3861,4.336,4.36,4.394,4.4028,4.4332,4.4583,4.4692,4.4244,4.3863,4.3876,4.3227,4.2736,4.277,4.2552,4.2183,4.1625,4.1567,4.1354,4.0832,4.0797,4.0797,4.0797,4.0797,4.0797,4.0797,4.0797,4.0797,4.0797,4.0797,4.0797,4.0797,4.0797,4.0797,4.0797,4.0797,4.0797,4.0426,4.1056,4.1755,4.1971,4.2684,4.3344,4.3557,4.3943,4.4311,4.4493,4.4605,4.4637,4.4546,4.4459,4.4311,4.4041,4.4005,4.4005,4.4005,4.4005,4.4005,4.4005,4.4005,4.4005,4.4005,4.4005,4.4005,4.4005,4.4005,4.4005,4.4005,4.4005,4.4005,4.4005,4.4005,4.4005,4.4005,4.4005,4.4005,4.4005,4.4005,4.4005,4.4005,4.4005,4.4005,4.4005,4.4005,4.4005,4.4005,4.4005,4.4005,4.4005,4.4005,4.4005,4.4005,4.4005,4.4005,4.4005,4.4005,4.4005,4.4005,4.4005,4.4005,4.4005,4.4005,4.4005,4.4005,4.4005,4.4005,4.4005,4.4005,4.4005,4.4005,4.4005,4.4005,4.4005,4.4005,4.4279,4.4579,4.4776,4.5085,4.5395,4.5573,4.5128,4.4744,4.4744,4.409,4.3601,4.3597,4.3401,4.3056,4.2489,4.2434,4.2106,4.1277,4.12,4.1084,4.0813,4.0797,4.0797,4.0797,4.0797,4.0797,4.0797,4.0797,4.0797,4.0797,4.0797,4.0797,4.0797,4.0797,4.0797,0.0,0.0,0.0,4.3595,4.3674,4.363,4.4219,4.4173,4.4158,4.4676,4.4585,4.4486,4.4739,4.4572,4.4311,4.4041,4.4005,4.4005,4.4005,4.4005,4.4005,4.4005,4.4005,4.4005,4.4005,4.4005,4.4005,4.4005,4.4005,4.4005,4.4005,4.4005,4.4005,4.4005,4.4005,4.4005,4.4005,4.4005,4.4005,4.4005,4.4005,4.4005,4.4005,4.4005,4.4005,4.4005,4.4005,4.4005,4.4005,4.4005,4.4005,4.4005,4.4005,4.4005,4.4005,4.4005,4.4005,4.4005,4.4005,4.4005,4.4005,4.4005,4.4005,4.4005,4.4005,4.4005,4.4005,4.4005,4.4005,4.4005,4.4013,4.4013,4.4005,4.4013,4.4013,4.4005,4.4005,4.4005,4.4158,4.4682,4.4794,4.4985,4.5499,4.559,4.5594,4.5594,4.4947,4.4445,4.445,4.3758,4.3299,4.3337,4.334,4.2995,4.2106,4.2048,4.168,4.089,4.0832,4.0813,4.0797,4.0797,4.0797,4.0797,4.0797,4.0797,4.0797,4.0797,4.0797,4.0797,4.0797,4.0797,4.1976,0.0,0.0,0.0,0.0,0.0,4.3501,4.3919,4.4332,4.4479,4.4605,4.465,4.4533,4.4445,4.4311,4.4041,4.4005,4.4005,4.4005,4.4005,4.4005,4.4005,4.4005,4.4005,4.4005,4.4005,4.4005,4.4005,4.4005,4.4005,4.4005,4.4005,4.4005,4.4005,4.4005,4.4005,4.4005,4.4005,4.4005,4.4005,4.4005,4.4005,4.4005,4.4005,4.4005,4.4005,4.4005,4.4005,4.4005,4.4005,4.4005,4.4005,4.4005,4.4005,4.4005,4.4005,4.4005,4.4005,4.4005,4.4005,4.4005,4.4005,4.4005,4.4005,4.4005,4.4005,4.4005,4.4005,4.4005,4.4041,4.4243,4.4151,4.4048,4.4243,4.4143,4.4005,4.4005,4.4005,4.4091,4.4431,4.4825,4.5148,4.5292,4.5481,4.5594,4.5594,4.5456,4.5335,4.5347,4.5198,4.4857,4.4227,4.4213,4.3882,4.3015,4.2937,4.2589,4.1719,4.1661,4.1413,4.0813,4.0797,4.0797,4.0797,4.0797,4.0797,4.0797,4.0797,4.0797,4.0797,4.0797,4.0797,4.2909,4.3062,4.3202,4.3312,0.0,0.0,4.3694,4.3978,4.4253,4.4388,4.4443,4.4457,4.4416,4.4303,4.4177,4.4036,4.4005,4.4005,4.4005,4.4005,4.4005,4.4005,4.4005,4.4005,4.4005,4.4005,4.4005,4.4005,4.4005,4.4005,4.4005,4.4005,4.4005,4.4005,4.4005,4.4005,4.4005,4.4005,4.4005,4.4005,4.4005,4.4005,4.4005,4.4005,4.4005,4.4005,4.4005,4.4005,4.4005,4.4005,4.4005,4.4005,4.4005,4.4005,4.4005,4.4005,4.4005,4.4005,4.4005,4.4005,4.4005,4.4005,4.4005,4.4005,4.4005,4.4005,4.4005,4.4005,4.4005,4.4051,4.4184,4.4199,4.4206,4.4367,4.4367,4.4325,4.4325,4.4325,4.4358,4.4402,4.4657,4.4937,4.515,4.5327,4.5481,4.5581,4.5635,4.568,4.5697,4.5723,4.5572,4.5081,4.5079,4.4755,4.3901,4.3843,4.3476,4.2609,4.2531,4.2338,4.1857,4.1838,4.1838,4.1838,4.149,4.1142,4.0797,4.0797,4.0797,4.0797,4.0797,4.0797,4.4282,4.436,4.4404,4.4644,4.4526,0.0,4.436,4.4181,4.4071,4.4303,4.4173,4.4079,4.4311,4.4166,4.4005,4.4005,4.4005,4.4005,4.4005,4.4005,4.4005,4.4005,4.4005,4.4005,4.4005,4.4005,4.4005,4.4005,4.4005,4.4005,4.4005,4.4005,4.4005,4.4005,4.4005,4.4005,4.4005,4.4005,4.4005,4.4005,4.4005,4.4005,4.4005,4.4005,4.4005,4.4005,4.4005,4.4005,4.4005,4.4005,4.4005,4.4005,4.4005,4.4005,4.4005,4.4005,4.4005,4.4005,4.4005,4.4005,4.4005,4.4005,4.4005,4.4005,4.4005,4.4005,4.4005,4.4005,4.4005,4.4013,4.4033,4.4221,4.4416,4.4431,4.4624,4.4794,4.4794,4.4794,4.4726,4.4486,4.4438,4.4599,4.5074,4.5185,4.5297,4.5564,4.5594,4.5627,4.5688,4.5695,4.5719,4.5777,4.5798,4.5513,4.4791,4.4733,4.4365,4.3495,4.3437,4.3398,4.3301,4.3301,4.3301,4.3301,4.2531,4.1796,4.1084,4.089,4.0797,4.0797,4.0797,4.0797,4.4064,4.4086,4.4102,4.4143,4.4113,0.0,4.4086,4.4033,4.4002,4.4071,4.4033,4.402,4.4071,4.4051,4.4005,4.4005,4.4005,4.4005,4.4005,4.4005,4.4005,4.4005,4.4005,4.4005,4.4005,4.4005,4.4005,4.4005,4.4005,4.4005,4.4005,4.4005,4.4005,4.4005,4.4005,4.4005,4.4005,4.4005,4.4005,4.4005,4.4005,4.4005,4.4005,4.4005,4.4005,4.4005,4.4005,4.4005,4.4005,4.4005,4.4005,4.4005,4.4005,4.4005,4.4005,4.4005,4.4005,4.4005,4.4005,4.4005,4.4005,4.4005,4.4005,4.4005,4.4005,4.4005,4.4005,4.4005,4.4005,4.4048,4.4272,4.4367,4.4445,4.4669,4.4757,4.4794,4.4794,4.4794,4.4776,4.4732,4.472,4.4751,4.4855,4.5058,4.5297,4.5564,4.5594,4.5594,4.5622,4.5679,4.5708,4.5715,4.5764,4.5745,4.5571,4.5571,4.522,4.4404,4.4346,4.4036,4.3321,4.3301,4.3301,4.3301,4.3127,4.2976,4.2802,4.1451,4.0797,4.0797,4.0797,4.0797,4.4005,4.4005,4.4005,4.4005,4.4005,0.0,0.0,4.4005,4.4005,4.4005,4.4005,4.4005,4.4005,4.4005,4.3875,4.3466,4.3745,4.3726,4.2927,4.3485,4.4005,4.4005,4.4005,4.4005,4.4005,4.4005,4.4005,4.4005,4.4005,4.4005,4.4005,4.4005,4.4005,4.4005,4.4005,4.4005,4.4005,4.4005,4.4005,4.4005,4.4005,4.4005,4.4005,4.4005,4.4005,4.4005,4.4005,4.4005,4.4005,4.4005,4.4005,4.4005,4.4005,4.4005,4.4005,4.4005,4.4005,4.4005,4.4005,4.4005,4.4005,4.4005,4.4005,4.4005,4.4005,4.4005,4.4005,4.4005,4.4005,4.4025,4.4173,4.4296,4.4465,4.4732,4.4896,4.5036,4.5175,4.5201,4.5169,4.503,4.5007,4.5007,4.5007,4.5107,4.5307,4.5594,4.5627,4.5603,4.5644,4.5686,4.5695,4.5695,4.5731,4.5749,4.5749,4.5787,4.562,4.5211,4.519,4.5007,4.4562,4.4543,4.4369,4.3959,4.3959,4.3727,4.3301,4.2454,4.2048,4.2048,4.1606,4.1393,4.4005,4.4005,4.4005,4.4005,4.4005,4.4005,0.0,0.0,0.0,4.4005,4.4005,4.4005,4.4005,4.4005,4.3745,4.2927,4.3355,4.3262,4.1794,4.2723,4.354,4.354,4.3819,4.3949,4.3782,4.3763,4.3838,4.3986,4.3856,4.3838,4.3986,4.4005,4.4005,4.4005,4.4005,4.4005,4.4005,4.4005,4.4005,4.4005,4.4005,4.4005,4.4005,4.4005,4.4005,4.4005,4.4005,4.4005,4.4005,4.4005,4.4005,4.4005,4.4005,4.4005,4.4005,4.4005,4.4005,4.4005,4.4005,4.4005,4.4005,4.4005,4.4005,4.4005,4.4005,4.4005,4.4005,4.4005,4.4005,4.4005,4.4005,4.4199,4.4445,4.4669,4.4938,4.5201,4.5476,4.5517,4.5462,4.5312,4.5287,4.5253,4.5211,4.5201,4.5317,4.5648,4.5648,4.5644,4.5686,4.5702,4.5726,4.5726,4.5723,4.5712,4.5712,4.5773,4.5792,4.5799,4.5801,4.5796,4.5803,4.5803,4.5494,4.4829,4.4829,4.4481,4.3788,4.3788,4.3614,4.3282,4.2589,4.2241,4.4005,4.4005,4.4005,4.4005,4.4005,4.4005,4.4005,0.0,4.4005,4.4005,0.0,4.4005,4.4005,0.0,0.0,4.2927,4.2872,4.2612,4.1727,4.1765,4.1876,4.1876,4.3132,4.3726,4.3002,4.2946,4.3225,4.3949,4.3336,4.3243,4.3968,4.4005,4.4005,4.4005,4.4005,4.4005,4.4005,4.4005,4.4005,4.4005,4.4005,4.4005,4.4005,4.4005,4.4005,4.4005,4.4005,4.4005,4.4005,4.4005,4.4005,4.4005,4.4005,4.4005,4.4005,4.4005,4.4005,4.4005,4.4005,4.4005,4.4005,4.4005,4.4005,4.4005,4.4005,4.4005,4.4005,4.4005,4.4005,4.4005,4.4005,4.4199,4.4416,4.4431,4.465,4.4908,4.5191,4.5243,4.5312,4.5513,4.554,4.5485,4.5237,4.5201,4.5317,4.5648,4.5697,4.569,4.5692,4.575,4.5792,4.5792,4.5791,4.5793,4.5793,4.5803,4.5803,4.5796,4.5791,4.581,4.5803,4.5803,4.5765,4.5668,4.5668,4.561,4.5513,4.5513,4.4759,4.3301,4.3205,4.3147,4.4005,4.4005,4.4005,4.4005,4.4005,4.4005,4.4005,4.4005,4.4005,4.4005,0.0,0.0,0.0,0.0,0.0,0.0,4.2797,4.2359,4.1077,4.1319,4.1597,4.1597,4.2203,4.2649,4.2797,4.3225,4.3633,4.3968,4.3689,4.3633,4.3986,4.4005,4.4005,4.4005,4.4005,4.4005,4.4005,4.4005,4.4005,4.4005,4.4005,4.4005,4.4005,4.4005,4.4005,4.4005,4.4005,4.4005,4.4005,4.4005,4.4005,4.4005,4.4005,4.4005,4.4005,4.4005,4.4005,4.4005,4.4005,4.4005,4.4005,4.4005,4.4005,4.4005,4.4005,4.4005,4.4005,4.4005,4.4005,4.4005,4.4005,4.4086,4.4206,4.4367,4.4479,4.4688,4.5107,4.5201,4.5287,4.5555,4.5594,4.5568,4.5443,4.5429,4.5495,4.5661,4.568,4.5669,4.5696,4.5719,4.5746,4.575,4.5746,4.5738,4.5738,4.5784,4.5795,4.5791,4.5798,4.5809,4.5803,4.5803,4.5803,4.5803,4.5803,4.5803,4.5803,4.5803,4.5436,4.4739,4.4272,4.4056,4.4061,4.4005,4.4005,4.4005,4.4005,4.4005,4.4005,4.4005,4.4005,4.4005,4.4005,0.0,0.0,0.0,4.3745,4.2927,0.0,4.2248,4.0631,4.091,4.1189,4.094,4.1133,4.1597,4.2396,4.3002,4.3429,4.3652,4.367,4.3763,4.3986,4.4005,4.4005,4.4005,4.4005,4.4005,4.4005,4.4005,4.4005,4.4005,4.4005,4.4005,4.4005,4.4005,4.4005,4.4005,4.4005,4.4005,4.4005,4.4005,4.4005,4.4005,4.4005,4.4005,4.4005,4.4005,4.4005,4.4005,4.4005,4.4005,4.4005,4.4005,4.4005,4.4005,4.4005,4.4005,4.4005,4.4005,4.4005,4.4005,4.4005,4.4005,4.4048,4.425,4.4282,4.443,4.4878,4.5047,4.5175,4.5434,4.5555,4.5594,4.5594,4.5594,4.5627,4.5693,4.5652,4.5646,4.5712,4.5734,4.5734,4.5735,4.5739,4.5739,4.5739,4.5777,4.5807,4.5807,4.5805,4.5803,4.5803,4.5803,4.5803,4.5803,4.5803,4.5803,4.5803,4.5803,4.5803,4.5784,4.52,4.4926,4.4228,4.4005,4.4005,4.4005,4.4005,4.4005,4.4005,4.4005,4.4005,4.4005,4.4005,4.4005,4.4005,4.4005,4.3745,0.0,4.2797,0.0,0.0,4.0427,4.013,3.9287,3.9925,4.0743,4.156,4.1672,4.2006,4.2779,4.2835,4.3188,4.3968,4.4005,4.4005,4.4005,4.4005,4.4005,4.4005,4.4005,4.4005,4.4005,4.4005,4.4005,4.4005,4.4005,4.4005,4.4005,4.4005,4.4005,4.4005,4.4005,4.4005,4.4005,4.4005,4.4005,4.4005,4.4005,4.4005,4.4005,4.4005,4.4005,4.4005,4.4005,4.4005,4.4005,4.4005,4.4005,4.4005,4.4005,4.4005,4.4005,4.4005,4.4005,4.4005,4.4013,4.4002,4.4094,4.4374,4.4631,4.4884,4.5169,4.5424,4.5594,4.5594,4.5594,4.5627,4.5693,4.5701,4.571,4.5792,4.5804,4.5799,4.5796,4.58,4.58,4.58,4.5806,4.5807,4.5807,4.5805,4.5803,4.5803,4.5803,4.5803,4.5803,4.5803,4.5803,4.5803,4.5803,4.5803,4.5803,4.5765,4.5765,4.5732,4.5658,4.5528,4.4989,4.4867,4.4711,4.4135,4.4005,4.4005,4.4005,4.4005,4.4005,4.4005,4.4005,4.3912,0.0,0.0,4.2612,0.0,4.1077,4.0074,3.9194,3.987,4.0501,4.078,4.1757,4.25,4.2779,4.328,4.3708,4.3986,4.4005,4.4005,4.4005,4.4005,4.4005,4.4005,4.4005,4.4005,4.4005,4.4005,4.4005,4.4005,4.4005,4.4005,4.4005,4.4005,4.4005,4.4005,4.4005,4.4005,4.4005,4.4005,4.4005,4.4005,4.4005,4.4005,4.4005,4.4005,4.4005,4.4005,4.4005,4.4005,4.4005,4.4005,4.4005,4.4005,4.4005,4.4005,4.4005,4.4005,4.4005,4.4005,4.4005,4.4005,4.4079,4.4346,4.4465,4.4612,4.4878,4.514,4.5332,4.5332,4.5485,4.5618,4.5635,4.5635,4.5669,4.5735,4.5727,4.5754,4.58,4.5803,4.5803,4.5803,4.5793,4.5805,4.5805,4.5796,4.5803,4.5803,4.5803,4.5803,4.5803,4.5803,4.5803,4.5803,4.5803,4.5803,4.5803,4.5803,4.5803,4.6587,4.6494,4.6382,4.5862,4.574,4.5499,4.4655,4.4451,4.4451,4.4451,4.4228,4.4098,4.4413,4.4209,4.4005,0.0,0.0,0.0,0.0,4.1412,4.0185,3.9628,3.9777,4.0055,4.0371,4.1337,4.2192,4.276,4.328,4.3708,4.3986,4.4005,4.4005,4.4005,4.4005,4.4005,4.4005,4.4005,4.4005,4.4005,4.4302,4.4451,4.4469,4.4766,4.4896,4.4896,4.4896,4.4896,4.4878,4.4581,4.4451,4.4432,4.4116,4.4005,4.4005,4.4005,4.4005,4.4005,4.4005,4.4005,4.4005,4.4005,4.4005,4.4028,4.4106,4.4079,4.4084,4.4467,4.4284,4.4079,4.4376,4.4228,4.4005,4.4005,4.4005,4.4048,4.4221,4.4332,4.4445,4.4624,4.4866,4.5058,4.5058,4.5201,4.539,4.5573,4.5594,4.562,4.5695,4.5703,4.5712,4.5757,4.5798,4.5789,4.5803,4.5803,4.5803,4.5803,4.5803,4.5803,4.5803,4.5803,4.5958,4.6268,4.5958,4.5958,4.6268,4.5958,4.5803,4.5803,4.5803,4.5803]}]]